[[{"header":{"parameterUnit":"m.s-1","parameterCategory":1,"la1":31.0,"la2":29.5877,"lo1":-88.7671,"lo2":-86.6584,"dy":0.0162,"dx":0.0185,"nx":115,"ny":88,"refTime":"2024-03-09T06:00:00:Z","depth":0,"parameterNumber":2,"parameterNumberName":"U-component_of_WINDS"},"data":[0.0,0.0,0.0,0.0,0.0,0.0,0.0,0.0,0.0,0.0,0.0,0.0,0.0,0.0,0.0,0.0,0.0,0.0,0.0,0.0,0.0,0.0,0.0,0.0,0.0,0.0,0.0,0.0,0.0,0.0,0.0,0.0,0.0,0.0,0.0,0.0,0.0,0.0,0.0,0.0,0.0,0.0,0.0,0.0,0.0,0.0,0.0,0.0,0.0,0.0,0.0,0.0,0.0,0.0,0.0,0.0,0.0,0.0,0.0,0.0,0.0,0.0,0.0,0.0,0.0,0.0,0.0,0.0,0.0,0.0,0.0,0.0,0.0,0.0,0.0,0.0,0.0,0.0,0.0,0.0,0.0,0.0,0.0,0.0,0.0,0.0,0.0,0.0,0.0,0.0,0.0,0.0,0.0,0.0,0.0,0.0,0.0,0.0,0.0,0.0,0.0,0.0,0.0,0.0,0.0,0.0,0.0,0.0,0.0,0.0,0.0,0.0,0.0,0.0,0.0,0.0,0.0,0.0,0.0,0.0,0.0,0.0,0.0,0.0,0.0,0.0,0.0,0.0,0.0,0.0,0.0,0.0,0.0,0.0,0.0,0.0,0.0,0.0,0.0,0.0,0.0,0.0,0.0,0.0,0.0,0.0,0.0,0.0,0.0,0.0,0.0,0.0,0.0,0.0,0.0,0.0,0.0,0.0,0.0,0.0,0.0,0.0,0.0,0.0,0.0,0.0,0.0,0.0,0.0,0.0,0.0,0.0,0.0,0.0,0.0,0.0,0.0,0.0,0.0,0.0,0.0,0.0,0.0,0.0,0.0,0.0,0.0,0.0,0.0,0.0,0.0,0.0,0.0,0.0,0.0,0.0,0.0,0.0,0.0,0.0,0.0,0.0,0.0,0.0,0.0,0.0,0.0,0.0,0.0,0.0,0.0,0.0,0.0,0.0,0.0,0.0,0.0,0.0,0.0,0.0,0.0,0.0,0.0,0.0,0.0,0.0,0.0,0.0,0.0,0.0,0.0,0.0,0.0,0.0,0.0,0.0,0.0,0.0,0.0,0.0,0.0,0.0,0.0,0.0,0.0,0.0,0.0,0.0,0.0,0.0,0.0,0.0,0.0,0.0,0.0,0.0,0.0,0.0,0.0,0.0,0.0,0.0,0.0,0.0,0.0,0.0,0.0,0.0,0.0,0.0,0.0,0.0,0.0,0.0,0.0,0.0,0.0,0.0,0.0,0.0,0.0,0.0,0.0,0.0,0.0,0.0,0.0,0.0,0.0,0.0,0.0,0.0,0.0,0.0,0.0,0.0,0.0,0.0,0.0,0.0,0.0,0.0,0.0,0.0,0.0,0.0,0.0,0.0,0.0,0.0,0.0,0.0,0.0,0.0,0.0,0.0,0.0,0.0,0.0,0.0,0.0,0.0,0.0,0.0,0.0,0.0,0.0,0.0,0.0,0.0,0.0,0.0,0.0,0.0,0.0,0.0,0.0,0.0,0.0,0.0,0.0,0.0,0.0,0.0,0.0,0.0,0.0,0.0,0.0,0.0,0.0,0.0,0.0,0.0,0.0,0.0,0.0,0.0,0.0,0.0,0.0,0.0,0.0,0.0,0.0,0.0,0.0,0.0,0.0,0.0,0.0,0.0,0.0,0.0,0.0,0.0,0.0,0.0,0.0,0.0,0.0,0.0,0.0,0.0,0.0,0.0,0.0,0.0,0.0,0.0,0.0,0.0,0.0,0.0,0.0,0.0,0.0,0.0,0.0,0.0,0.0,0.0,0.0,0.0,0.0,0.0,0.0,0.0,0.0,0.0,0.0,0.0,0.0,0.0,0.0,0.0,0.0,0.0,0.0,0.0,0.0,0.0,0.0,0.0,0.0,0.0,0.0,0.0,0.0,0.0,0.0,0.0,0.0,0.0,0.0,0.0,0.0,0.0,0.0,0.0,0.0,0.0,0.0,0.0,0.0,0.0,0.0,0.0,0.0,0.0,0.0,0.0,0.0,0.0,0.0,0.0,0.0,0.0,0.0,0.0,0.0,0.0,0.0,0.0,0.0,0.0,0.0,0.0,0.0,0.0,0.0,0.0,0.0,0.0,0.0,0.0,0.0,0.0,0.0,0.0,0.0,0.0,0.0,0.0,0.0,0.0,0.0,0.0,0.0,0.0,0.0,0.0,0.0,0.0,0.0,0.0,0.0,0.0,0.0,0.0,0.0,0.0,0.0,0.0,0.0,0.0,0.0,0.0,0.0,0.0,0.0,0.0,0.0,0.0,0.0,0.0,0.0,0.0,0.0,0.0,0.0,0.0,0.0,0.0,0.0,0.0,0.0,0.0,0.0,0.0,0.0,0.0,0.0,0.0,0.0,0.0,0.0,0.0,0.0,0.0,0.0,0.0,0.0,0.0,0.0,0.0,0.0,0.0,0.0,0.0,0.0,0.0,0.0,0.0,0.0,0.0,0.0,0.0,0.0,0.0,0.0,0.0,0.0,0.0,0.0,0.0,0.0,0.0,0.0,0.0,0.0,0.0,0.0,0.0,0.0,0.0,0.0,0.0,0.0,0.0,0.0,0.0,0.0,0.0,0.0,0.0,0.0,0.0,0.0,0.0,0.0,0.0,0.0,0.0,0.0,0.0,0.0,0.0,0.0,0.0,0.0,0.0,0.0,0.0,0.0,0.0,0.0,0.0,0.0,0.0,0.0,0.0,0.0,0.0,0.0,0.0,0.0,0.0,0.0,0.0,0.0,0.0,0.0,0.0,0.0,0.0,0.0,0.0,0.0,0.0,0.0,0.0,0.0,0.0,0.0,0.0,0.0,0.0,0.0,0.0,0.0,0.0,0.0,0.0,0.0,0.0,0.0,0.0,0.0,0.0,0.0,0.0,0.0,0.0,0.0,0.0,0.0,0.0,0.0,0.0,0.0,0.0,0.0,0.0,0.0,0.0,0.0,0.0,0.0,0.0,0.0,0.0,0.0,0.0,0.0,0.0,0.0,0.0,0.0,0.0,0.0,0.0,0.0,0.0,0.0,0.0,0.0,0.0,0.0,0.0,0.0,0.0,0.0,0.0,0.0,0.0,0.0,0.0,0.0,0.0,0.0,0.0,0.0,0.0,0.0,0.0,0.0,0.0,0.0,0.0,0.0,0.0,0.0,0.0,0.0,0.0,0.0,0.0,0.0,0.0,0.0,0.0,0.0,0.0,0.0,0.0,0.0,0.0,0.0,0.0,0.0,0.0,0.0,0.0,0.0,0.0,0.0,0.0,0.0,0.0,0.0,0.0,0.0,0.0,0.0,0.0,0.0,0.0,0.0,0.0,0.0,0.0,0.0,0.0,0.0,0.0,0.0,0.0,0.0,0.0,0.0,0.0,0.0,0.0,0.0,0.0,0.0,0.0,0.0,0.0,0.0,0.0,0.0,0.0,0.0,0.0,0.0,0.0,0.0,0.0,0.0,0.0,0.0,0.0,0.0,0.0,0.0,0.0,0.0,0.0,0.0,0.0,0.0,0.0,0.0,0.0,0.0,0.0,0.0,0.0,0.0,0.0,0.0,0.0,0.0,0.0,0.0,0.0,0.0,0.0,0.0,0.0,0.0,0.0,0.0,0.0,0.0,0.0,0.0,0.0,0.0,0.0,0.0,0.0,0.0,0.0,0.0,0.0,0.0,0.0,0.0,0.0,0.0,0.0,0.0,0.0,0.0,0.0,0.0,0.0,0.0,0.0,0.0,0.0,0.0,0.0,0.0,0.0,0.0,0.0,0.0,0.0,0.0,0.0,0.0,0.0,0.0,0.0,0.0,0.0,0.0,0.0,0.0,0.0,0.0,0.0,0.0,0.0,0.0,0.0,0.0,0.0,0.0,0.0,0.0,0.0,0.0,0.0,0.0,0.0,0.0,0.0,0.0,0.0,0.0,0.0,0.0,0.0,0.0,0.0,0.0,0.0,0.0,0.0,0.0,0.0,0.0,0.0,0.0,0.0,0.0,0.0,0.0,0.0,0.0,0.0,0.0,0.0,0.0,0.0,0.0,0.0,0.0,0.0,0.0,0.0,0.0,0.0,0.0,0.0,0.0,0.0,0.0,0.0,0.0,0.0,0.0,0.0,0.0,0.0,0.0,0.0,0.0,0.0,0.0,0.0,0.0,0.0,0.0,0.0,0.0,0.0,0.0,0.0,0.0,0.0,0.0,0.0,0.0,0.0,0.0,0.0,0.0,0.0,0.0,0.0,0.0,0.0,0.0,0.0,0.0,0.0,0.0,0.0,0.0,0.0,2.5687,0.0,0.0,0.0,0.0,0.0,0.0,0.0,0.0,0.0,0.0,0.0,0.0,0.0,0.0,0.0,0.0,0.0,0.0,0.0,0.0,0.0,0.0,0.0,0.0,0.0,0.0,0.0,0.0,0.0,0.0,0.0,0.0,0.0,0.0,0.0,0.0,0.0,0.0,0.0,0.0,0.0,0.0,0.0,0.0,0.0,0.0,0.0,0.0,0.0,0.0,0.0,0.0,0.0,0.0,0.0,0.0,0.0,0.0,0.0,0.0,0.0,0.0,0.0,0.0,0.0,0.0,0.0,0.0,0.0,0.0,0.0,0.0,0.0,0.0,0.0,0.0,0.0,0.0,0.0,0.0,0.0,0.0,0.0,0.0,0.0,0.0,0.0,0.0,0.0,0.0,0.0,0.0,0.0,0.0,0.0,0.0,0.0,0.0,0.0,0.0,0.0,0.0,0.0,0.0,0.0,0.0,0.0,0.0,0.0,0.0,2.5687,2.5687,2.5687,2.5687,2.5687,0.0,0.0,0.0,0.0,0.0,0.0,0.0,0.0,0.0,0.0,0.0,0.0,0.0,0.0,0.0,0.0,0.0,0.0,0.0,0.0,0.0,0.0,0.0,0.0,0.0,0.0,0.0,0.0,0.0,0.0,0.0,0.0,0.0,0.0,0.0,0.0,0.0,0.0,0.0,0.0,0.0,0.0,0.0,0.0,0.0,0.0,0.0,0.0,0.0,0.0,0.0,0.0,0.0,0.0,0.0,0.0,0.0,0.0,0.0,0.0,0.0,0.0,0.0,0.0,0.0,0.0,0.0,0.0,0.0,0.0,0.0,0.0,0.0,0.0,0.0,0.0,0.0,0.0,0.0,0.0,0.0,0.0,0.0,0.0,0.0,0.0,0.0,0.0,0.0,0.0,0.0,0.0,0.0,0.0,0.0,0.0,0.0,0.0,0.0,0.0,0.0,0.0,0.0,0.0,0.0,0.0,0.0,0.0,0.0,0.0,0.0,0.0,2.5687,2.5687,2.5687,0.0,0.0,0.0,0.0,0.0,0.0,0.0,0.0,0.0,0.0,0.0,0.0,0.0,0.0,0.0,0.0,0.0,0.0,0.0,0.0,0.0,0.0,0.0,0.0,0.0,0.0,0.0,0.0,0.0,0.0,0.0,0.0,0.0,0.0,0.0,0.0,0.0,0.0,0.0,0.0,0.0,0.0,0.0,0.0,0.0,0.0,0.0,0.0,0.0,0.0,0.0,0.0,0.0,0.0,0.0,0.0,0.0,0.0,0.0,0.0,0.0,0.0,0.0,0.0,0.0,0.0,0.0,0.0,0.0,0.0,0.0,0.0,0.0,0.0,0.0,0.0,0.0,0.0,0.0,0.0,0.0,0.0,0.0,0.0,0.0,0.0,0.0,0.0,0.0,0.0,0.0,0.0,0.0,0.0,0.0,0.0,0.0,0.0,0.0,0.0,0.0,0.0,0.0,0.0,0.0,0.0,0.0,0.0,0.0,0.0,2.5687,2.5687,2.5687,0.0,2.5687,0.0,0.0,0.0,0.0,0.0,0.0,0.0,0.0,0.0,0.0,0.0,0.0,0.0,0.0,0.0,0.0,0.0,0.0,0.0,0.0,0.0,0.0,0.0,0.0,0.0,0.0,0.0,0.0,0.0,0.0,0.0,0.0,0.0,0.0,0.0,0.0,0.0,0.0,0.0,0.0,0.0,0.0,0.0,0.0,0.0,0.0,0.0,0.0,0.0,0.0,0.0,0.0,0.0,0.0,0.0,0.0,0.0,0.0,0.0,0.0,0.0,0.0,0.0,0.0,0.0,0.0,0.0,0.0,0.0,0.0,0.0,0.0,0.0,0.0,0.0,0.0,0.0,0.0,0.0,0.0,0.0,0.0,0.0,0.0,0.0,0.0,0.0,0.0,0.0,0.0,0.0,0.0,0.0,0.0,0.0,0.0,0.0,0.0,0.0,0.0,0.0,0.0,0.0,0.0,0.0,0.0,0.0,0.0,0.0,0.0,2.647,2.647,2.647,2.6236,0.0,0.0,0.0,0.0,0.0,0.0,0.0,0.0,0.0,0.0,0.0,0.0,0.0,0.0,0.0,0.0,0.0,0.0,0.0,0.0,0.0,0.0,0.0,0.0,0.0,0.0,0.0,0.0,0.0,0.0,0.0,0.0,0.0,0.0,0.0,0.0,0.0,0.0,0.0,0.0,0.0,0.0,0.0,0.0,0.0,0.0,0.0,0.0,0.0,0.0,0.0,0.0,0.0,0.0,0.0,0.0,0.0,0.0,0.0,0.0,0.0,0.0,0.0,0.0,0.0,0.0,0.0,0.0,0.0,0.0,0.0,0.0,0.0,0.0,0.0,0.0,0.0,0.0,0.0,0.0,0.0,0.0,0.0,0.0,0.0,0.0,0.0,0.0,0.0,0.0,0.0,0.0,0.0,0.0,0.0,0.0,0.0,0.0,0.0,0.0,0.0,0.0,0.0,0.0,0.0,0.0,0.0,0.0,0.0,0.0,2.6665,2.7017,2.7017,2.7017,2.6587,2.5726,0.0,0.0,0.0,0.0,0.0,0.0,0.0,0.0,0.0,0.0,0.0,0.0,0.0,0.0,0.0,0.0,0.0,0.0,0.0,0.0,0.0,0.0,0.0,0.0,0.0,0.0,0.0,0.0,0.0,0.0,0.0,0.0,0.0,0.0,0.0,0.0,0.0,0.0,0.0,0.0,0.0,0.0,0.0,0.0,0.0,0.0,0.0,0.0,0.0,0.0,0.0,0.0,0.0,0.0,0.0,0.0,0.0,0.0,0.0,0.0,0.0,0.0,0.0,0.0,0.0,0.0,0.0,0.0,0.0,0.0,0.0,0.0,0.0,0.0,0.0,0.0,0.0,0.0,0.0,0.0,0.0,0.0,0.0,0.0,0.0,0.0,0.0,0.0,0.0,0.0,0.0,0.0,0.0,0.0,0.0,0.0,0.0,0.0,0.0,0.0,0.0,0.0,0.0,0.0,0.0,0.0,0.0,0.0,2.6861,2.6978,2.7017,2.7017,2.7017,2.6587,0.0,0.0,0.0,0.0,0.0,0.0,0.0,0.0,0.0,0.0,0.0,0.0,0.0,0.0,0.0,0.0,0.0,0.0,0.0,0.0,0.0,0.0,0.0,0.0,0.0,0.0,0.0,0.0,0.0,0.0,0.0,0.0,0.0,0.0,0.0,0.0,0.0,0.0,0.0,0.0,0.0,0.0,0.0,0.0,0.0,0.0,0.0,0.0,0.0,0.0,0.0,0.0,0.0,0.0,0.0,0.0,0.0,0.0,0.0,0.0,0.0,0.0,0.0,0.0,0.0,0.0,0.0,0.0,0.0,0.0,0.0,0.0,0.0,0.0,0.0,0.0,0.0,0.0,0.0,0.0,0.0,0.0,0.0,0.0,0.0,0.0,0.0,0.0,0.0,0.0,0.0,0.0,0.0,0.0,0.0,0.0,0.0,0.0,0.0,0.0,0.0,0.0,0.0,0.0,0.0,0.0,0.0,0.0,0.0,2.6156,2.7249,2.7835,2.7835,2.7835,2.7171,0.0,0.0,0.0,0.0,0.0,0.0,0.0,0.0,0.0,0.0,0.0,0.0,0.0,0.0,0.0,0.0,0.0,0.0,0.0,0.0,0.0,0.0,0.0,0.0,0.0,0.0,0.0,0.0,0.0,0.0,0.0,0.0,0.0,0.0,0.0,0.0,0.0,0.0,0.0,0.0,0.0,0.0,0.0,0.0,0.0,0.0,0.0,0.0,0.0,0.0,0.0,0.0,0.0,0.0,0.0,0.0,0.0,0.0,0.0,0.0,0.0,0.0,0.0,0.0,0.0,0.0,0.0,0.0,0.0,0.0,0.0,0.0,0.0,0.0,0.0,0.0,0.0,0.0,0.0,0.0,0.0,0.0,0.0,0.0,0.0,0.0,0.0,0.0,0.0,0.0,0.0,0.0,0.0,0.0,0.0,0.0,0.0,0.0,0.0,0.0,0.0,0.0,0.0,0.0,0.0,0.0,0.0,0.0,0.0,2.6546,0.0,2.9279,2.8732,2.8732,2.7913,0.0,0.0,0.0,0.0,0.0,0.0,0.0,0.0,0.0,0.0,0.0,0.0,0.0,0.0,0.0,0.0,0.0,0.0,0.0,0.0,0.0,0.0,0.0,0.0,0.0,0.0,0.0,0.0,0.0,0.0,0.0,0.0,0.0,0.0,0.0,0.0,0.0,0.0,0.0,0.0,0.0,0.0,0.0,0.0,0.0,0.0,0.0,0.0,0.0,0.0,0.0,0.0,0.0,0.0,0.0,0.0,0.0,0.0,0.0,0.0,0.0,0.0,0.0,0.0,0.0,0.0,0.0,0.0,0.0,0.0,0.0,0.0,0.0,0.0,0.0,0.0,0.0,0.0,0.0,0.0,0.0,0.0,0.0,0.0,0.0,0.0,0.0,0.0,0.0,0.0,0.0,0.0,0.0,0.0,0.0,0.0,0.0,0.0,0.0,0.0,0.0,0.0,0.0,0.0,0.0,0.0,0.0,0.0,2.6624,2.8342,3.0762,3.1231,2.9708,2.963,2.8774,0.0,0.0,0.0,0.0,0.0,0.0,0.0,0.0,0.0,0.0,0.0,0.0,0.0,0.0,0.0,0.0,0.0,0.0,0.0,0.0,0.0,0.0,0.0,0.0,0.0,0.0,0.0,0.0,0.0,0.0,0.0,0.0,0.0,0.0,0.0,0.0,0.0,0.0,0.0,0.0,0.0,0.0,0.0,0.0,0.0,0.0,0.0,0.0,0.0,0.0,0.0,0.0,0.0,0.0,0.0,0.0,0.0,0.0,0.0,0.0,0.0,0.0,0.0,0.0,0.0,0.0,0.0,0.0,0.0,0.0,0.0,0.0,0.0,0.0,0.0,0.0,0.0,0.0,0.0,0.0,0.0,0.0,0.0,0.0,0.0,0.0,0.0,0.0,0.0,0.0,0.0,0.0,0.0,0.0,0.0,0.0,0.0,0.0,0.0,0.0,0.0,0.0,0.0,0.0,0.0,0.0,0.0,0.0,0.0,3.0882,3.1702,3.2129,3.2168,3.1075,2.9669,0.0,0.0,0.0,0.0,0.0,0.0,0.0,0.0,0.0,0.0,0.0,0.0,0.0,0.0,0.0,0.0,0.0,0.0,0.0,0.0,0.0,0.0,0.0,0.0,0.0,0.0,0.0,0.0,0.0,0.0,0.0,0.0,0.0,0.0,0.0,0.0,0.0,0.0,0.0,0.0,0.0,0.0,0.0,0.0,0.0,0.0,0.0,0.0,0.0,0.0,0.0,0.0,0.0,0.0,0.0,0.0,0.0,0.0,0.0,0.0,0.0,0.0,0.0,0.0,0.0,0.0,0.0,0.0,0.0,0.0,0.0,0.0,0.0,0.0,0.0,0.0,0.0,0.0,0.0,0.0,0.0,0.0,0.0,0.0,0.0,0.0,0.0,0.0,0.0,0.0,0.0,0.0,0.0,0.0,0.0,0.0,0.0,0.0,0.0,0.0,0.0,0.0,0.0,0.0,0.0,0.0,0.0,0.0,0.0,3.4912,3.4677,3.448,3.4361,3.3029,3.1192,2.8889,0.0,0.0,0.0,0.0,0.0,0.0,0.0,0.0,0.0,0.0,0.0,0.0,0.0,0.0,0.0,0.0,0.0,0.0,0.0,0.0,0.0,0.0,0.0,0.0,0.0,0.0,0.0,0.0,0.0,0.0,0.0,0.0,0.0,0.0,0.0,0.0,0.0,0.0,0.0,0.0,0.0,0.0,0.0,0.0,0.0,0.0,0.0,0.0,0.0,0.0,0.0,0.0,0.0,0.0,0.0,0.0,0.0,0.0,0.0,0.0,0.0,0.0,0.0,0.0,0.0,0.0,0.0,0.0,0.0,0.0,0.0,0.0,0.0,0.0,0.0,0.0,0.0,0.0,0.0,0.0,0.0,0.0,0.0,0.0,0.0,0.0,0.0,0.0,0.0,0.0,0.0,0.0,0.0,0.0,0.0,0.0,0.0,0.0,0.0,0.0,0.0,0.0,0.0,0.0,0.0,0.0,0.0,0.0,3.9918,3.9372,3.82,3.6442,3.5378,3.3263,0.0,0.0,0.0,0.0,0.0,0.0,0.0,0.0,0.0,0.0,0.0,0.0,0.0,0.0,0.0,0.0,0.0,0.0,0.0,0.0,0.0,0.0,0.0,0.0,0.0,0.0,0.0,0.0,0.0,0.0,0.0,0.0,0.0,0.0,0.0,0.0,0.0,0.0,0.0,0.0,0.0,0.0,0.0,0.0,0.0,0.0,0.0,0.0,0.0,0.0,0.0,0.0,0.0,0.0,0.0,0.0,0.0,0.0,0.0,0.0,0.0,0.0,0.0,0.0,0.0,0.0,0.0,0.0,0.0,0.0,0.0,0.0,0.0,0.0,0.0,0.0,0.0,0.0,0.0,0.0,0.0,0.0,0.0,0.0,0.0,0.0,0.0,0.0,0.0,0.0,0.0,0.0,0.0,0.0,0.0,0.0,0.0,0.0,0.0,0.0,0.0,0.0,0.0,0.0,0.0,0.0,0.0,0.0,0.0,4.0684,4.3076,4.316,4.0781,3.8044,3.5302,0.0,0.0,0.0,0.0,0.0,0.0,0.0,0.0,0.0,0.0,0.0,0.0,0.0,0.0,0.0,0.0,0.0,0.0,0.0,0.0,0.0,0.0,0.0,0.0,0.0,0.0,0.0,0.0,0.0,0.0,0.0,0.0,0.0,0.0,0.0,0.0,0.0,0.0,0.0,0.0,0.0,0.0,0.0,0.0,0.0,0.0,0.0,0.0,0.0,0.0,0.0,0.0,0.0,0.0,0.0,0.0,0.0,0.0,0.0,0.0,0.0,0.0,0.0,0.0,0.0,0.0,0.0,0.0,0.0,0.0,0.0,0.0,0.0,0.0,0.0,0.0,0.0,0.0,0.0,0.0,0.0,0.0,0.0,0.0,0.0,0.0,0.0,0.0,0.0,0.0,0.0,0.0,0.0,0.0,0.0,0.0,0.0,0.0,0.0,0.0,0.0,0.0,0.0,0.0,0.0,0.0,0.0,0.0,3.9819,4.3216,4.6306,4.7174,4.5657,4.1279,3.7331,0.0,0.0,0.0,0.0,0.0,0.0,0.0,0.0,0.0,0.0,0.0,0.0,0.0,0.0,0.0,0.0,0.0,0.0,0.0,0.0,0.0,0.0,0.0,0.0,0.0,0.0,0.0,0.0,0.0,0.0,0.0,0.0,0.0,0.0,0.0,0.0,0.0,0.0,0.0,0.0,0.0,0.0,0.0,0.0,0.0,0.0,0.0,0.0,0.0,0.0,0.0,0.0,0.0,0.0,0.0,0.0,0.0,0.0,0.0,0.0,0.0,0.0,0.0,0.0,0.0,0.0,0.0,0.0,0.0,0.0,0.0,0.0,0.0,0.0,0.0,0.0,0.0,0.0,0.0,0.0,0.0,0.0,0.0,0.0,0.0,0.0,0.0,0.0,0.0,0.0,0.0,0.0,0.0,0.0,0.0,0.0,0.0,0.0,0.0,0.0,0.0,0.0,0.0,0.0,0.0,0.0,0.0,0.0,4.2825,4.6378,4.8915,5.0243,5.0087,4.4582,3.9507,0.0,0.0,0.0,0.0,0.0,0.0,0.0,0.0,0.0,0.0,0.0,0.0,0.0,0.0,0.0,0.0,0.0,0.0,0.0,0.0,0.0,0.0,0.0,0.0,0.0,0.0,0.0,0.0,0.0,0.0,0.0,0.0,0.0,0.0,0.0,0.0,0.0,0.0,0.0,0.0,0.0,0.0,0.0,0.0,0.0,0.0,0.0,0.0,0.0,0.0,0.0,0.0,0.0,0.0,0.0,0.0,0.0,0.0,0.0,0.0,0.0,0.0,0.0,0.0,0.0,0.0,0.0,0.0,0.0,0.0,0.0,0.0,0.0,0.0,0.0,0.0,0.0,0.0,0.0,0.0,0.0,0.0,0.0,0.0,0.0,0.0,0.0,0.0,0.0,0.0,0.0,0.0,0.0,0.0,0.0,0.0,0.0,0.0,0.0,0.0,0.0,0.0,0.0,0.0,0.0,0.0,0.0,0.0,4.3099,4.7237,4.9813,5.1141,5.1102,4.6612,4.2162,0.0,0.0,0.0,0.0,0.0,0.0,0.0,0.0,0.0,0.0,0.0,0.0,0.0,0.0,0.0,0.0,0.0,0.0,0.0,0.0,0.0,0.0,0.0,0.0,0.0,0.0,0.0,0.0,0.0,0.0,0.0,0.0,0.0,0.0,0.0,0.0,0.0,0.0,0.0,0.0,0.0,0.0,0.0,0.0,0.0,0.0,0.0,0.0,2.7178,0.0,0.0,0.0,0.0,0.0,0.0,0.0,0.0,0.0,0.0,0.0,0.0,0.0,0.0,0.0,0.0,0.0,0.0,0.0,0.0,0.0,0.0,0.0,0.0,0.0,0.0,0.0,0.0,0.0,0.0,0.0,0.0,0.0,0.0,0.0,0.0,0.0,0.0,0.0,0.0,0.0,0.0,0.0,0.0,0.0,0.0,0.0,0.0,0.0,0.0,0.0,0.0,0.0,0.0,0.0,0.0,0.0,0.0,0.0,4.4426,4.8681,5.0906,5.2195,5.2468,4.8486,4.3997,0.0,0.0,0.0,0.0,0.0,0.0,0.0,0.0,0.0,0.0,0.0,0.0,0.0,0.0,0.0,0.0,0.0,0.0,0.0,0.0,0.0,0.0,0.0,0.0,0.0,0.0,0.0,0.0,0.0,0.0,0.0,0.0,0.0,0.0,0.0,0.0,0.0,0.0,0.0,0.0,0.0,0.0,0.0,0.0,0.0,0.0,0.0,0.0,0.0,0.0,0.0,0.0,0.0,0.0,0.0,0.0,0.0,0.0,0.0,0.0,0.0,0.0,0.0,0.0,0.0,0.0,0.0,0.0,0.0,0.0,0.0,0.0,0.0,0.0,0.0,0.0,0.0,0.0,0.0,0.0,0.0,0.0,0.0,0.0,0.0,0.0,0.0,0.0,0.0,0.0,0.0,0.0,0.0,0.0,0.0,0.0,0.0,0.0,0.0,0.0,0.0,0.0,0.0,0.0,0.0,0.0,0.0,4.1225,4.5831,5.0126,5.1882,5.3053,5.3678,4.9657,4.5012,3.9978,0.0,0.0,0.0,0.0,0.0,0.0,0.0,0.0,0.0,0.0,0.0,0.0,0.0,0.0,0.0,0.0,0.0,0.0,0.0,0.0,0.0,0.0,0.0,0.0,0.0,0.0,0.0,0.0,0.0,0.0,0.0,0.0,0.0,0.0,0.0,0.0,0.0,0.0,2.7208,2.8841,0.0,0.0,0.0,0.0,0.0,0.0,0.0,0.0,2.9178,0.0,0.0,0.0,0.0,0.0,0.0,0.0,0.0,0.0,0.0,0.0,0.0,0.0,0.0,0.0,0.0,0.0,0.0,0.0,0.0,0.0,0.0,0.0,0.0,0.0,0.0,0.0,0.0,0.0,0.0,0.0,0.0,0.0,0.0,0.0,0.0,0.0,0.0,0.0,0.0,0.0,0.0,0.0,0.0,0.0,0.0,0.0,0.0,0.0,0.0,0.0,0.0,0.0,0.0,0.0,0.0,3.8141,4.181,4.6144,5.1063,5.2195,5.278,5.2819,4.8755,4.4429,4.0025,0.0,0.0,0.0,0.0,0.0,0.0,0.0,0.0,0.0,0.0,0.0,0.0,0.0,0.0,0.0,0.0,0.0,0.0,0.0,0.0,0.0,0.0,0.0,0.0,0.0,0.0,0.0,0.0,0.0,0.0,0.0,0.0,0.0,0.0,0.0,0.0,0.0,0.0,0.0,3.2362,3.3429,0.0,0.0,0.0,0.0,0.0,0.0,0.0,0.0,3.2018,0.0,0.0,0.0,0.0,0.0,0.0,0.0,0.0,0.0,0.0,0.0,0.0,0.0,0.0,0.0,0.0,0.0,0.0,0.0,0.0,0.0,0.0,0.0,0.0,0.0,0.0,0.0,0.0,0.0,0.0,0.0,0.0,0.0,0.0,0.0,0.0,0.0,0.0,0.0,0.0,0.0,0.0,0.0,0.0,0.0,0.0,0.0,0.0,0.0,0.0,0.0,0.0,0.0,0.0,0.0,3.8456,4.197,4.6225,5.118,5.1804,5.2234,5.2585,4.8092,4.384,0.0,0.0,0.0,0.0,0.0,0.0,0.0,0.0,0.0,0.0,0.0,0.0,0.0,0.0,0.0,0.0,0.0,0.0,0.0,0.0,0.0,0.0,0.0,0.0,0.0,0.0,0.0,0.0,0.0,0.0,0.0,0.0,0.0,0.0,0.0,0.0,0.0,0.0,0.0,0.0,3.4506,3.5753,3.6164,0.0,0.0,0.0,0.0,0.0,0.0,3.4311,3.4102,0.0,0.0,0.0,0.0,0.0,0.0,0.0,0.0,0.0,0.0,0.0,0.0,0.0,0.0,0.0,0.0,0.0,0.0,0.0,0.0,0.0,0.0,0.0,0.0,0.0,0.0,0.0,0.0,0.0,0.0,0.0,0.0,0.0,0.0,0.0,0.0,0.0,0.0,0.0,0.0,0.0,0.0,0.0,0.0,0.0,0.0,0.0,0.0,0.0,0.0,0.0,0.0,0.0,0.0,0.0,3.8768,4.2243,4.6345,5.1115,5.1385,5.1655,5.2046,4.7361,4.3147,0.0,0.0,0.0,0.0,0.0,0.0,0.0,0.0,0.0,0.0,0.0,0.0,0.0,0.0,0.0,0.0,0.0,0.0,0.0,0.0,0.0,0.0,0.0,0.0,0.0,0.0,0.0,0.0,0.0,0.0,0.0,0.0,0.0,0.0,0.0,0.0,0.0,0.0,0.0,0.0,0.0,3.7668,3.8517,3.88,0.0,0.0,0.0,0.0,3.698,3.682,0.0,0.0,0.0,0.0,0.0,0.0,0.0,0.0,0.0,0.0,0.0,0.0,0.0,0.0,0.0,0.0,0.0,0.0,0.0,0.0,0.0,0.0,0.0,0.0,0.0,0.0,0.0,0.0,0.0,0.0,0.0,0.0,0.0,0.0,0.0,0.0,0.0,0.0,0.0,0.0,0.0,0.0,0.0,0.0,0.0,0.0,0.0,0.0,0.0,0.0,0.0,0.0,0.0,0.0,0.0,0.0,3.9666,4.3141,4.6981,5.1133,5.1406,5.1054,5.035,4.617,4.2226,0.0,0.0,0.0,0.0,0.0,0.0,0.0,0.0,0.0,0.0,0.0,0.0,0.0,0.0,0.0,0.0,0.0,0.0,0.0,0.0,0.0,0.0,0.0,0.0,0.0,0.0,0.0,0.0,0.0,0.0,0.0,0.0,0.0,0.0,0.0,0.0,0.0,0.0,0.0,0.0,0.0,3.9518,4.0355,4.1164,4.1291,0.0,0.0,4.1466,4.1369,4.078,0.0,0.0,0.0,0.0,0.0,0.0,0.0,0.0,0.0,0.0,0.0,0.0,0.0,0.0,0.0,0.0,0.0,0.0,0.0,0.0,0.0,0.0,0.0,0.0,0.0,0.0,0.0,0.0,0.0,0.0,0.0,0.0,0.0,0.0,0.0,0.0,0.0,0.0,0.0,0.0,0.0,0.0,0.0,0.0,0.0,0.0,0.0,0.0,0.0,0.0,0.0,0.0,0.0,0.0,0.0,3.4666,3.9822,4.3275,4.7069,5.121,5.1379,5.0995,5.0097,4.5922,4.2095,0.0,0.0,0.0,0.0,0.0,0.0,0.0,0.0,0.0,0.0,0.0,0.0,0.0,0.0,0.0,0.0,0.0,0.0,0.0,0.0,0.0,0.0,0.0,0.0,0.0,0.0,0.0,0.0,0.0,0.0,0.0,0.0,0.0,0.0,0.0,0.0,0.0,0.0,0.0,0.0,0.0,0.0,4.3485,4.4499,0.0,0.0,0.0,4.582,4.5833,0.0,0.0,0.0,0.0,0.0,0.0,0.0,0.0,0.0,0.0,0.0,0.0,0.0,0.0,0.0,0.0,0.0,0.0,0.0,0.0,0.0,0.0,0.0,0.0,0.0,0.0,0.0,0.0,0.0,0.0,0.0,0.0,0.0,0.0,0.0,0.0,0.0,0.0,0.0,0.0,0.0,0.0,0.0,0.0,0.0,0.0,0.0,0.0,0.0,0.0,0.0,0.0,0.0,0.0,0.0,0.0,0.0,4.0147,4.3594,4.7286,5.1225,5.1395,5.0855,4.9736,4.5796,0.0,0.0,0.0,0.0,0.0,0.0,0.0,0.0,0.0,0.0,0.0,0.0,0.0,0.0,0.0,0.0,0.0,0.0,0.0,0.0,0.0,0.0,0.0,0.0,0.0,0.0,0.0,0.0,0.0,0.0,0.0,0.0,0.0,0.0,0.0,0.0,0.0,0.0,0.0,0.0,0.0,0.0,4.3645,4.6046,4.7534,4.837,0.0,0.0,4.9917,4.9729,4.8265,4.6512,0.0,0.0,0.0,0.0,0.0,0.0,0.0,0.0,0.0,0.0,0.0,0.0,0.0,0.0,0.0,0.0,0.0,0.0,0.0,0.0,0.0,0.0,0.0,0.0,0.0,0.0,0.0,0.0,0.0,0.0,0.0,0.0,0.0,0.0,0.0,0.0,0.0,0.0,0.0,0.0,0.0,0.0,0.0,0.0,0.0,0.0,0.0,0.0,0.0,0.0,0.0,0.0,0.0,0.0,0.0,4.0937,4.4446,4.7868,5.123,5.1349,5.0555,4.8893,4.5462,4.2031,0.0,0.0,0.0,0.0,0.0,0.0,0.0,0.0,0.0,0.0,0.0,0.0,0.0,0.0,0.0,0.0,0.0,0.0,0.0,0.0,0.0,0.0,0.0,0.0,0.0,0.0,0.0,0.0,0.0,0.0,0.0,0.0,0.0,0.0,0.0,0.0,0.0,0.0,0.0,0.0,0.0,4.5269,4.7042,4.9442,5.1055,0.0,0.0,5.3273,5.2473,5.0918,4.8972,4.6463,0.0,0.0,0.0,0.0,0.0,0.0,0.0,0.0,0.0,0.0,0.0,0.0,0.0,0.0,0.0,0.0,0.0,0.0,0.0,0.0,0.0,0.0,0.0,0.0,0.0,0.0,0.0,0.0,0.0,0.0,0.0,0.0,0.0,0.0,0.0,0.0,0.0,0.0,0.0,0.0,0.0,0.0,0.0,0.0,0.0,0.0,0.0,0.0,0.0,0.0,0.0,0.0,0.0,3.5937,4.105,4.4474,4.7918,5.1172,5.1312,5.0477,4.8794,4.5881,4.2486,0.0,0.0,0.0,0.0,0.0,0.0,0.0,0.0,0.0,0.0,0.0,0.0,0.0,0.0,0.0,0.0,0.0,0.0,0.0,0.0,0.0,0.0,0.0,0.0,0.0,0.0,0.0,0.0,2.3066,2.3725,2.4617,0.0,0.0,0.0,0.0,0.0,0.0,0.0,0.0,0.0,0.0,4.6808,5.0151,5.1927,0.0,0.0,5.4632,5.4787,5.497,5.3157,5.098,4.8933,4.544,0.0,0.0,0.0,0.0,0.0,0.0,0.0,0.0,0.0,0.0,0.0,0.0,0.0,0.0,0.0,0.0,0.0,0.0,0.0,0.0,0.0,0.0,0.0,0.0,0.0,0.0,0.0,0.0,0.0,0.0,0.0,0.0,0.0,0.0,0.0,0.0,0.0,0.0,0.0,0.0,0.0,0.0,0.0,0.0,0.0,0.0,0.0,0.0,0.0,0.0,0.0,0.0,3.6313,4.1417,4.4597,4.7834,5.1191,5.1259,5.0432,4.8652,4.6124,4.2905,0.0,0.0,0.0,0.0,0.0,0.0,0.0,0.0,0.0,0.0,0.0,0.0,0.0,0.0,0.0,0.0,0.0,0.0,0.0,0.0,0.0,0.0,0.0,0.0,0.0,0.0,0.0,0.0,2.4278,2.5132,2.5988,0.0,0.0,0.0,0.0,0.0,0.0,0.0,0.0,0.0,0.0,4.8568,5.2136,5.3793,5.5132,5.6347,5.623,5.6035,5.6123,5.4411,5.2386,5.0434,0.0,0.0,0.0,0.0,0.0,0.0,0.0,0.0,0.0,0.0,0.0,0.0,0.0,0.0,0.0,0.0,0.0,0.0,0.0,0.0,0.0,0.0,0.0,0.0,0.0,0.0,0.0,0.0,0.0,0.0,2.32,0.0,0.0,0.0,0.0,0.0,0.0,0.0,0.0,0.0,0.0,0.0,0.0,0.0,0.0,0.0,0.0,0.0,0.0,0.0,0.0,0.0,0.0,0.0,4.2188,4.4861,4.7834,5.1094,5.1159,5.0309,4.8638,4.6113,4.3122,3.973,0.0,0.0,0.0,0.0,0.0,0.0,0.0,0.0,0.0,0.0,0.0,0.0,0.0,0.0,0.0,0.0,0.0,0.0,0.0,0.0,0.0,0.0,0.0,0.0,0.0,0.0,2.4436,2.5178,2.6039,0.0,0.0,0.0,0.0,0.0,0.0,0.0,0.0,0.0,0.0,4.6794,5.0667,5.2489,5.483,5.6436,5.6602,5.7231,5.7153,5.563,5.4576,5.3088,0.0,0.0,0.0,0.0,0.0,0.0,0.0,0.0,0.0,0.0,0.0,0.0,0.0,0.0,0.0,0.0,0.0,0.0,0.0,0.0,0.0,0.0,0.0,0.0,0.0,0.0,0.0,2.8033,2.78,0.0,0.0,0.0,0.0,0.0,0.0,0.0,0.0,0.0,0.0,0.0,3.508,3.5701,0.0,0.0,0.0,0.0,0.0,0.0,0.0,0.0,0.0,0.0,0.0,0.0,3.7702,4.2144,4.5317,4.8282,5.1008,5.1101,5.0545,4.9419,4.7462,4.4054,3.8991,0.0,0.0,0.0,0.0,0.0,0.0,0.0,0.0,0.0,0.0,0.0,0.0,0.0,0.0,0.0,0.0,0.0,0.0,0.0,0.0,0.0,0.0,0.0,0.0,0.0,2.6351,0.0,0.0,0.0,0.0,0.0,0.0,0.0,0.0,0.0,0.0,0.0,4.1618,4.5289,4.8767,5.2016,5.483,5.5972,5.6758,0.0,0.0,0.0,0.0,0.0,0.0,0.0,0.0,0.0,0.0,0.0,0.0,0.0,0.0,4.4982,4.2611,4.1703,4.1189,4.0848,0.0,0.0,0.0,0.0,0.0,0.0,0.0,0.0,0.0,0.0,0.0,0.0,0.0,0.0,0.0,0.0,3.0544,0.0,0.0,0.0,0.0,0.0,0.0,0.0,0.0,3.5338,3.7079,3.8979,3.9558,3.9507,0.0,3.8992,3.678,0.0,0.0,0.0,0.0,0.0,0.0,0.0,0.0,3.8828,4.2986,4.5852,4.8538,5.0933,5.1089,5.0675,4.9782,4.7606,4.4054,3.9021,3.6114,3.3718,0.0,0.0,0.0,0.0,0.0,0.0,0.0,0.0,0.0,0.0,0.0,0.0,0.0,0.0,0.0,0.0,0.0,0.0,0.0,0.0,0.0,0.0,0.0,2.7795,0.0,0.0,0.0,0.0,0.0,0.0,0.0,0.0,0.0,3.7776,4.0742,4.4289,4.7918,5.0659,5.324,5.5738,0.0,0.0,0.0,0.0,0.0,0.0,0.0,5.5864,5.5044,5.4455,5.3787,5.2928,5.2303,5.2221,5.3074,0.0,0.0,4.7352,4.6185,4.5654,4.5317,4.5726,4.6309,4.6882,4.7932,4.8915,0.0,0.0,0.0,0.0,0.0,0.0,0.0,0.0,3.3945,3.3621,0.0,3.2732,0.0,0.0,0.0,0.0,0.0,3.3192,0.0,0.0,3.8316,4.0019,4.2337,4.2532,4.2486,4.2471,4.2455,4.1077,3.8432,3.523,0.0,0.0,0.0,0.0,0.0,0.0,4.0576,4.4622,4.6484,4.8554,5.0903,5.1087,5.0674,4.9718,4.6635,4.3355,4.0014,3.8166,3.6036,3.3549,3.1843,0.0,0.0,0.0,0.0,0.0,0.0,0.0,0.0,0.0,0.0,0.0,0.0,0.0,0.0,0.0,0.0,0.0,0.0,0.0,0.0,2.791,0.0,0.0,0.0,0.0,0.0,0.0,0.0,0.0,0.0,0.0,4.1459,4.4348,4.7354,4.9891,0.0,0.0,0.0,0.0,5.7855,5.7855,5.8558,5.8792,5.7972,5.7855,5.7577,5.684,0.0,0.0,5.7777,5.7855,5.8011,5.8909,5.7621,5.5348,5.1213,5.0336,4.9932,4.9216,5.026,5.1351,5.1593,5.2692,5.383,4.1552,0.0,0.0,0.0,0.0,3.7152,3.7692,3.8198,3.8618,3.8438,3.7821,3.6968,0.0,0.0,0.0,0.0,0.0,0.0,3.8427,4.087,4.2337,4.4036,4.5927,4.6532,4.6484,4.593,4.5872,4.454,4.2092,4.1042,3.8502,3.4478,0.0,0.0,0.0,0.0,4.2516,4.5493,4.7856,4.965,5.0883,5.1073,5.0429,4.8965,4.7423,4.5297,4.25,4.0761,3.8633,3.6114,3.4418,0.0,0.0,0.0,0.0,0.0,0.0,0.0,0.0,0.0,0.0,0.0,0.0,0.0,0.0,0.0,0.0,0.0,0.0,0.0,2.9589,3.1036,3.2048,0.0,0.0,0.0,0.0,0.0,0.0,0.0,0.0,0.0,4.7276,4.8369,4.9969,0.0,0.0,5.6138,5.6957,5.805,5.8714,5.8753,0.0,0.0,0.0,5.8709,5.8866,5.9261,5.9807,6.0315,6.0549,6.008,5.9729,6.0002,5.9143,5.7929,5.6826,5.5449,5.458,5.4372,5.4677,5.523,5.5822,5.6374,5.6881,4.7157,4.3866,4.1385,4.0505,4.0854,4.1419,4.181,4.214,4.2694,4.2276,4.114,4.0654,3.9801,3.8695,3.816,0.0,0.0,0.0,4.17,4.3841,4.5187,4.6726,4.838,4.8865,4.8854,4.8427,4.8338,4.7201,4.5025,4.4986,4.3287,3.9932,0.0,0.0,4.0315,4.2144,4.4356,4.6834,4.873,5.0109,5.0867,5.1048,5.0312,4.8677,4.8094,4.6618,4.4132,4.2345,4.0567,3.8672,3.6347,3.4231,0.0,0.0,0.0,0.0,0.0,0.0,0.0,0.0,0.0,0.0,0.0,2.4985,0.0,0.0,0.0,0.0,2.881,3.0526,3.2168,3.33,0.0,0.0,0.0,0.0,0.0,0.0,0.0,4.2474,4.5675,4.8798,5.1297,5.2234,5.3249,5.4849,5.6528,5.7777,5.8246,0.0,5.9612,5.9612,6.0198,6.0666,6.0666,6.0939,6.1364,6.1837,6.2696,6.3204,6.3243,6.254,6.1954,6.1837,6.0939,6.0119,6.0119,5.9256,5.8309,5.7679,5.7835,5.8226,5.8738,5.9095,5.9524,5.1873,5.0712,4.6125,4.4601,4.5183,4.5183,4.558,4.6191,4.6201,4.5297,4.3829,4.3801,4.2898,4.1396,4.1395,0.0,4.2727,4.3522,4.479,4.6445,4.7203,4.8466,4.9959,4.9998,4.9998,4.9998,4.9998,4.9143,4.755,4.7512,4.7045,4.6113,4.3052,4.2244,4.3645,4.4499,4.6098,4.8469,4.9359,5.0171,5.0906,5.0972,5.0231,4.8638,4.8522,4.7317,4.4909,4.3199,4.1879,4.0869,3.7816,3.5702,3.4718,0.0,0.0,0.0,0.0,0.0,0.0,0.0,0.0,0.0,0.0,0.0,0.0,0.0,0.0,0.0,3.1385,0.0,3.4861,3.5096,0.0,0.0,0.0,3.9312,4.0054,4.2435,4.4387,4.5285,0.0,0.0,5.3873,0.0,5.6801,5.6879,5.8246,5.9222,5.9183,5.9924,6.051,6.051,6.1876,6.293,6.2774,6.3555,6.4179,6.4258,6.5116,6.5546,6.5507,6.4882,6.4414,6.414,6.293,6.172,6.172,6.1486,6.1213,5.9573,5.9885,6.0471,6.0471,6.0978,6.1481,5.3691,5.2763,5.1579,5.0457,4.9451,4.948,4.9238,4.8811,4.8839,4.8257,4.7249,4.6678,4.5831,4.4909,4.488,4.5365,4.6199,4.6406,4.7408,4.8953,4.9204,4.9893,5.0853,5.0891,5.0891,5.0891,5.0891,5.0348,4.9299,4.9299,4.8832,4.7978,4.7105,4.6564,4.6332,4.708,4.8121,4.9397,5.021,5.0782,5.1034,5.0428,4.9621,4.8638,4.7978,4.6735,4.487,4.3743,4.25,4.0946,3.9548,3.7778,3.5624,3.4983,0.0,0.0,0.0,0.0,0.0,0.0,0.0,0.0,0.0,2.9513,2.9318,0.0,3.2012,0.0,3.369,3.5798,3.7516,3.8219,0.0,0.0,4.1537,4.2552,4.2786,4.509,4.7237,4.872,5.0789,5.3053,5.5669,5.7465,5.8753,5.9417,5.9846,6.008,6.0119,6.0822,6.1408,6.1486,6.2306,6.2969,6.3164,6.4297,6.5312,6.5273,6.5975,6.6522,6.6522,6.5819,6.5116,6.4414,6.3438,6.2501,6.1837,6.172,6.1603,6.1174,6.1252,6.1369,6.1408,6.1564,6.172,5.5625,5.5161,5.4774,5.4078,5.3111,5.243,5.1811,5.1424,5.1416,5.0966,5.0129,4.8955,4.7955,4.7222,4.7222,4.7699,4.8487,4.8515,4.9243,5.0487,5.0864,5.128,5.1746,5.2135,5.2096,5.1746,5.1746,5.128,5.0503,5.0503,5.0231,4.9765,4.9678,4.9408,4.8968,4.8977,4.9397,5.021,5.0674,5.0975,5.1034,5.0248,4.9392,4.8577,4.7345,4.6113,4.4831,4.3588,4.2461,4.149,4.0325,3.9052,3.7599,3.6868,3.5496,0.0,0.0,0.0,0.0,0.0,0.0,0.0,0.0,0.0,0.0,0.0,3.4666,0.0,3.6618,3.8414,4.0132,4.0678,4.1615,4.3255,4.427,4.5129,4.587,4.7939,4.9657,5.0594,5.2546,5.4693,5.684,5.8285,5.9573,6.0783,6.0978,6.0978,6.1017,6.1408,6.172,6.1759,6.2774,6.3867,6.4531,6.5507,6.6131,6.617,6.6483,6.6795,6.6795,6.6131,6.5312,6.4453,6.3594,6.2735,6.1876,6.172,6.1798,6.2189,6.2267,6.2149,6.1798,6.1993,6.2267,5.7482,5.7404,5.6631,5.6283,5.6051,5.4581,5.3884,5.3674,5.3691,5.322,5.2375,5.0933,4.9885,4.926,4.926,4.9687,5.0386,5.0386,5.0814,5.1552,5.2251,5.2562,5.2601,5.3339,5.33,5.2562,5.2562,5.2212,5.1552,5.1513,5.1513,5.1513,5.1476,5.1451,5.1372,5.0603,5.0442,5.0906,5.0906,5.0921,5.0966,5.0092,4.9278,4.8463,4.6868,4.5569,4.4637,4.3161,4.2267,4.1995,4.0635,3.9829,3.9668,3.8283,3.7102,0.0,3.5527,0.0,0.0,0.0,0.0,0.0,0.0,0.0,0.0,3.6108,3.7321,3.8961,3.9702,4.0912,4.2708,4.2903,4.3879,4.63,4.6729,4.7393,4.8993,5.0594,5.1648,5.1882,5.399,5.6098,5.7738,5.8714,5.9924,6.133,6.1642,6.1603,6.1681,6.1681,6.172,6.172,6.3164,6.4687,6.6014,6.66,6.6756,6.6795,6.6795,6.6795,6.6795,6.6249,6.5507,6.4648,6.3945,6.3125,6.2189,6.2071,6.2345,6.3047,6.3164,6.293,6.2384,6.2696,6.3125,5.8333,5.8333,5.8178,5.7675,5.7056,5.6708,5.5801,5.4564,5.4581,5.4088,5.3335,5.3081,5.2887,5.2717,5.2756,5.2795,5.2989,5.2989,5.3067,5.3222,5.3378,5.3455,5.3455,5.3611,5.3611,5.3455,5.3455,5.3378,5.3222,5.3222,5.3222,5.3222,5.3223,5.3197,5.3117,0.0,0.0,0.0,5.0906,5.0921,5.0928,4.9484,4.8632,4.8463,4.6884,0.0,4.386,4.3433,4.2578,4.1218,4.083,0.0,0.0,0.0,0.0,0.0,0.0,0.0,0.0,0.0,0.0,0.0,4.0467,3.988,3.8102,3.9273,4.0561,4.1576,4.181,4.2903,4.5324,4.5558,4.63,4.8096,4.8954,4.9813,5.0828,5.1843,5.2975,5.442,5.563,5.6996,5.8558,5.9612,6.051,6.1486,6.172,6.172,6.172,6.172,6.172,6.1837,6.3204,6.4609,6.5663,6.6366,6.6717,6.6795,6.6795,6.6795,6.6795,6.6717,6.6288,6.5468,6.5194,6.4804,6.3945,6.3828,6.375,6.4023,6.4062,6.3984,6.3828,6.3945,6.4062,5.9261,0.0,5.8758,5.8333,0.0,5.7946,5.7482,5.6613,5.578,5.4923,5.4211,5.4255,5.4064,5.3702,5.3727,5.3701,5.3701,5.3701,5.3701,5.3727,5.4155,5.4349,5.4349,5.4776,5.4737,5.4349,5.4349,5.4116,5.3727,5.3701,5.3701,5.3727,5.3715,5.3676,5.3582,5.3561,5.2911,5.1563,5.1138,5.0906,5.0898,4.9688,4.8864,4.8425,0.0,0.0,0.0,0.0,0.0,0.0,0.0,0.0,0.0,0.0,0.0,3.9801,4.0149,4.0396,4.0442,4.0833,4.1445,4.2315,4.3587,4.3437,4.1306,4.1888,4.2903,4.4192,4.4312,4.5207,4.7315,4.7588,4.8096,4.9306,5.0204,5.1102,5.1999,5.321,5.4303,5.5201,5.6411,5.7699,5.8948,5.9885,6.0705,6.1564,6.172,6.172,6.172,6.172,6.1837,6.2267,6.3008,6.414,6.5312,6.5897,6.6366,6.6678,6.6795,6.6795,6.6795,6.6795,6.6522,6.5819,6.5624,6.5351,6.4531,6.4297,6.4414,6.4843,6.496,6.5116,6.539,6.5234,6.496,6.0112,6.0035,5.9339,5.8952,5.8836,5.8836,5.872,5.8488,0.0,0.0,0.0,5.5103,5.476,5.4142,5.4142,5.4155,5.4155,5.4155,5.4155,5.4194,5.4893,5.5242,5.5281,5.5942,5.5903,5.5242,5.5242,5.4854,5.4194,5.4155,5.4155,5.4155,5.4155,5.4116,5.4033,5.3855,5.3382,5.2647,5.1641,5.1061,5.0906,5.0124,4.9364,4.8643,4.7068,4.5825,4.4944,4.415,4.3666,4.351,4.351,4.3471,4.3491,4.3491,4.3216,4.261,4.2656,4.2786,4.2844,4.2966,4.3451,4.4305,4.5846,4.6054,4.4516,4.451,4.5213,4.6619,4.6739,4.7403,4.8922,4.9114,4.9501,5.0438,5.1219,5.1999,5.3093,5.4381,5.5357,5.5825,5.7113,5.8363,5.9261,6.0119,6.0861,6.1525,6.172,6.172,6.172,6.172,6.1915,6.2501,6.2852,6.3555,6.4687,6.5273,6.5663,6.6366,6.6405,6.6405,6.6522,6.6444,6.617,6.5741,6.5624,6.539,6.4882,6.4843,6.4999,6.5702,6.5819,6.6014,6.6561,6.6288,6.5858,6.0925,6.0925,6.0809,6.0344,5.9725,5.9725,5.93,5.8526,5.7559,5.6648,5.5924,5.6009,5.5976,5.5849,5.589,5.5942,5.5942,5.5942,5.5942,0.0,5.6058,5.6097,5.6136,5.6253,5.6214,5.6136,5.6136,5.6058,5.5942,5.5903,5.5942,5.5903,5.5877,5.5782,5.5707,5.4984,5.4581,5.4426,5.284,5.1641,5.0906,5.0132,4.9644,4.9456,4.7908,4.6654,4.5825,4.5082,4.4287,4.3549,4.351,4.351,4.351,4.351,4.3471,4.3467,4.4065,4.4455,4.4579,4.5261,4.603,4.6921,4.7904,4.8035,4.7187,4.7691,4.8194,4.8508,4.8513,4.8904,4.9797,4.998,5.0598,5.2038,5.2468,5.3132,5.4654,5.5123,5.5864,5.7153,5.8285,5.9222,6.0037,6.09,6.1486,6.1681,6.172,6.172,6.172,6.172,6.1759,6.1954,6.254,6.3047,6.3555,6.4023,6.4765,6.5624,6.5194,6.5155,6.578,6.5429,6.5234,6.5546,6.5702,6.5858,6.617,6.6444,6.6405,6.6522,6.6522,6.6639,6.6795,6.6639,6.6561,6.1543,6.1118,6.1118,6.0886,6.0538,6.0538,6.0074,5.93,5.8913,5.8235,5.7478,5.7489,5.725,5.6869,5.6936,5.6706,5.6291,5.6291,5.6291,5.6291,5.6291,5.6291,5.6291,5.6291,5.6291,5.6291,5.6291,5.6291,5.6291,5.6291,5.6291,5.6291,5.6238,5.6141,5.6078,5.5681,5.5238,5.4774,5.3072,5.1989,5.1602,5.079,5.0147,4.9688,4.8955,4.8244,4.7466,4.7073,4.6463,4.5608,4.5569,4.5336,4.4909,4.487,4.49,4.4962,4.5733,4.6247,4.6293,4.7132,4.7768,4.8181,4.9011,4.9341,4.8975,4.8904,4.9062,4.953,4.9609,5.0156,5.1366,5.1519,5.2023,5.3266,5.3803,5.442,5.5162,5.5747,5.6489,5.766,5.8558,5.9417,6.0271,6.1174,6.1681,6.172,6.172,6.172,6.172,6.172,6.172,6.1759,6.2071,6.2501,6.293,6.3282,6.3945,6.4726,6.4999,6.5155,6.5585,6.5468,6.578,6.6131,6.6249,6.6405,6.6795,6.6795,6.6795,6.6795,6.6795,6.6795,6.6795,6.6795,6.6795,6.2008,6.1389,6.1195,6.1118,6.1118,6.1118,6.0731,6.019,6.0151,5.9803,5.9163,5.8772,5.8225,5.773,5.7761,5.7455,5.6913,5.6874,5.6874,5.6848,5.668,5.6602,5.6563,5.6408,5.6291,5.6291,5.6291,5.6291,5.6291,5.6291,5.6278,5.6265,5.6209,5.6149,5.6062,5.6029,5.5702,5.5006,5.3575,5.2569,5.2182,5.1525,5.0805,5.0076,4.9846,4.9524,4.8902,4.8705,4.8289,4.7667,4.7589,4.7279,4.6629,4.659,4.661,4.6735,4.7323,4.7735,4.7852,4.8607,4.9081,4.9127,4.988,5.0366,5.0352,5.0016,4.9912,5.0388,5.0663,5.1328,5.2383,5.2851,5.3359,5.4214,5.487,5.5329,5.5634,5.6372,5.7192,5.8011,5.887,5.9729,6.0549,6.1291,6.1681,6.172,6.172,6.172,6.172,6.172,6.172,6.172,6.172,6.1954,6.2618,6.293,6.3399,6.414,6.4804,6.5234,6.5507,6.6014,6.6288,6.6288,6.6444,6.6522,6.6717,6.6795,6.6795,6.6795,6.6795,6.6795,6.6795,6.6795,6.6795,6.2356,6.2162,6.1466,6.1118,6.1118,6.1118,6.1041,6.0963,6.0963,6.0963,6.0654,5.9276,5.8629,5.8583,5.8629,5.8581,5.8506,5.8545,5.8519,5.8415,5.782,5.747,5.7392,5.6719,5.6291,5.6369,5.6369,5.6369,5.6369,5.6291,5.6265,5.6194,5.6149,5.6101,5.6012,5.6012,5.5973,5.5857,5.5006,5.3807,5.2298,5.2105,5.1711,5.0889,5.0195,4.9757,4.9678,4.8977,4.8561,4.8483,4.8483,4.8455,4.8349,4.8321,4.837,4.8409,4.853,4.8631,4.8748,4.9449,4.9925,5.0024,5.0725,5.1206,5.1302,5.1938,5.1991,5.1613,5.2019,5.2495,5.2734,5.3437,5.4258,5.5039,5.5273,5.5622,5.6383,5.7192,5.8011,5.887,5.969,6.0588,6.1291,6.1642,6.1681,6.172,6.172,6.172,6.172,6.172,6.172,6.172,6.172,6.1798,6.2032,6.254,6.3282,6.4101,6.4375,6.4843,6.5351,6.5194,6.4804,6.6092,6.5897,6.617,6.66,6.6795,6.6795,6.6795,6.6795,6.6795,6.6795,6.6795,6.6795,6.3632,6.3091,6.224,6.1543,6.1118,6.1118,6.1118,6.1118,6.1118,6.1118,6.1041,6.0363,5.9856,5.9404,5.9475,5.9289,5.8828,5.8803,5.8817,5.8791,5.8428,5.8311,5.8273,5.7962,5.7768,5.7729,5.7301,5.7068,5.6925,5.6509,5.6209,5.6164,5.6133,5.6046,5.6012,5.6012,5.6012,5.6012,5.5702,5.4929,5.3846,5.3227,5.2601,5.1848,5.1449,5.105,5.0673,5.0297,4.992,4.9415,4.9376,4.9143,4.861,4.8572,4.8621,4.8662,4.9166,4.9707,5.0268,5.0579,5.0774,5.0821,5.1608,5.2083,5.2136,5.289,5.3247,5.303,5.3249,5.3653,5.4167,5.4568,5.5117,5.5859,5.6094,5.6406,5.7261,5.7636,5.8285,5.9612,6.0159,6.0744,6.1486,6.172,6.172,6.172,6.172,6.172,6.172,6.172,6.172,6.1759,6.211,6.2462,6.2501,6.2735,6.3399,6.4101,6.4726,6.5312,6.5468,6.5858,6.5936,6.6249,6.6249,6.6327,6.6717,6.6795,6.6795,6.6795,6.6795,6.6795,6.6795,6.6795,6.6795,6.4638,6.3942,6.2859,6.2046,6.1466,6.1195,6.1118,6.1118,6.1118,6.1118,6.1118,6.1118,6.0788,6.0282,6.0278,5.9979,5.9522,5.9488,5.9463,5.9477,5.9283,5.9166,5.9127,5.8894,5.8803,5.8725,5.8181,5.7896,5.7776,5.7188,5.673,5.6482,5.6466,5.6278,5.6012,5.6012,5.6012,5.6012,5.6012,5.5702,5.5122,5.4503,5.3685,5.2792,5.2651,5.2421,5.194,5.1901,5.1474,5.0619,5.0581,5.0192,4.9376,4.9299,4.931,4.937,4.9975,5.075,5.1585,5.1663,5.1749,5.2021,5.2645,5.2964,5.3089,5.3759,5.4203,5.4248,5.4513,5.4957,5.5166,5.5536,5.5935,5.6523,5.6758,5.7226,5.7773,5.8153,5.9026,6.0198,6.0627,6.0978,6.1525,6.172,6.172,6.172,6.172,6.172,6.172,6.172,6.1759,6.1993,6.2618,6.293,6.3047,6.3594,6.3945,6.4531,6.5351,6.5897,6.5936,6.6483,6.6756,6.6561,6.6756,6.6795,6.6795,6.6795,6.6795,6.6795,6.6795,6.6795,6.6795,6.6795,6.6795,6.4948,6.4677,6.3091,6.2394,6.2278,6.1466,6.1118,6.1118,6.1118,6.1118,6.1118,6.1118,6.1079,6.1002,6.1018,6.1148,6.1142,6.1035,6.1026,6.0978,6.037,6.0021,5.9982,5.9205,5.8867,5.9032,5.8838,5.8707,5.8583,5.8458,5.8092,5.7357,5.7284,5.6863,5.6283,5.6205,5.6051,5.6128,5.6089,5.6012,5.5896,5.5857,5.5039,5.3761,5.3543,5.3532,5.3494,5.3533,5.3145,5.229,5.2212,5.1901,5.1202,5.1086,5.1086,5.1136,5.1191,5.1615,5.2386,5.2511,5.2831,5.358,5.3736,5.3853,5.3892,5.4609,5.5092,5.5131,5.5776,5.599,5.5543,5.5986,5.6471,5.6679,5.7344,5.7773,5.8008,5.9285,6.0163,6.0549,6.1095,6.1525,6.1681,6.172,6.172,6.172,6.172,6.172,6.172,6.172,6.211,6.2657,6.3008,6.3047,6.3164,6.4101,6.5116,6.5624,6.6053,6.6639,6.6717,6.6795,6.6795,6.6795,6.6795,6.6795,6.6795,6.6795,6.6795,6.6795,6.6795,6.6795,6.6795,6.6795,6.6795,6.545,6.487,6.3748,6.2936,6.2317,6.1466,6.1118,6.1118,6.1118,6.1118,6.1118,6.1118,6.1118,6.1118,6.1137,6.1173,6.1247,6.1259,6.1306,6.1283,6.0996,6.0864,6.0809,6.0515,6.0414,6.0321,5.9801,5.9242,5.869,5.8618,5.8484,5.8213,5.8157,5.7946,5.7714,5.7637,5.7404,5.6902,5.6863,5.6592,5.6089,5.6012,5.5736,5.5288,5.4706,5.4192,5.3727,5.3701,5.3533,5.3222,5.3222,5.3106,5.2834,5.2795,5.2795,5.2846,5.2863,5.302,5.3312,5.3407,5.3533,5.3892,5.4437,5.471,5.4866,5.5498,5.6051,5.609,5.6262,5.6315,5.6212,5.6358,5.6766,5.7288,5.7695,5.8359,5.9297,6.0071,6.0607,6.1115,6.1534,6.1681,6.172,6.172,6.172,6.172,6.172,6.172,6.1837,6.211,6.2696,6.3125,6.3945,6.4648,6.4648,6.5077,6.5702,6.6209,6.6639,6.6717,6.6795,6.6795,6.6795,6.6795,6.6795,6.6795,6.6795,6.6795,6.6795,6.6795,6.6795,6.6795,6.6795,6.6795,6.6795,6.5876,6.5296,6.4445,6.3632,6.2781,6.1892,6.135,6.1118,6.1118,6.1118,6.1118,6.1118,6.1118,6.1118,6.1118,6.1137,6.1173,6.1208,6.1281,6.1259,6.1297,6.1336,6.132,6.1336,6.1297,6.1203,6.0683,5.999,5.9508,5.9395,5.9261,5.9029,5.9029,5.8874,5.8642,5.8604,5.8255,5.7791,5.7714,5.7404,5.6902,5.6824,5.6875,5.6862,5.6164,5.5356,5.4582,5.4543,5.4388,5.4194,5.4116,5.3999,5.3727,5.3727,5.3727,5.3766,5.3763,5.3952,5.4188,5.4246,5.442,5.471,5.5256,5.5606,5.5645,5.6152,5.6425,5.6511,5.6792,5.6917,5.6971,5.7154,5.745,5.7894,5.8348,5.9099,6.0234,6.0624,6.1086,6.1506,6.169,6.172,6.172,6.172,6.172,6.172,6.1915,6.211,6.2228,6.2852,6.3555,6.3867,6.4765,6.5507,6.5741,6.6014,6.6131,6.6561,6.6678,6.6756,6.6795,6.6795,6.6795,6.6795,6.6795,6.6795,6.6795,6.6795,6.6795,6.6795,6.6795,6.6795,6.6795,6.6795,6.6951,6.6185,6.6031,6.5296,6.4445,6.3632,6.2665,6.1892,6.1273,6.1118,6.1118,6.1118,6.1118,6.1118,6.1118,6.1118,6.1079,6.1098,6.1173,6.1191,6.1191,6.1264,6.1281,6.1281,6.1281,6.1264,6.1191,6.1098,6.1041,6.0886,6.0809,6.0538,6.0016,5.9919,5.9571,5.8702,5.8874,5.872,5.8642,5.8604,5.8526,5.8565,5.8372,5.8385,5.8451,5.7738,5.6994,5.633,5.6214,5.5747,5.5087,5.5009,5.4582,5.4038,5.3922,5.3805,5.396,5.3883,5.4307,5.4975,5.5112,5.5492,5.6065,5.6425,5.6494,5.6494,5.6658,5.6775,5.6892,5.7321,5.7758,5.7892,5.8445,5.8669,5.8158,5.9265,6.0181,6.0583,6.1172,6.1677,6.1697,6.1725,6.172,6.172,6.172,6.1759,6.1954,6.2423,6.2891,6.3047,6.375,6.4609,6.5194,6.5624,6.6014,6.6444,6.6795,6.6756,6.6795,6.6795,6.6795,6.6795,6.6795,6.6795,6.6795,6.6795,6.6795,6.6795,6.6795,6.6795,6.6795,6.6795,6.6834,6.6834,6.6912,6.7381,6.6185,6.6108,6.5334,6.4831,6.4406,6.3013,6.2201,6.193,6.1389,6.1118,6.1118,6.1118,6.1118,6.1118,6.1118,6.1118,6.1118,6.1098,6.1137,6.1175,6.1194,6.1173,6.1173,6.1173,6.1155,6.1137,6.1118,6.1118,6.1118,6.1118,6.0925,6.077,6.0731,6.0615,6.0267,6.0306,6.0112,5.9571,5.9493,5.9223,5.8681,5.8604,5.8656,5.8645,5.8412,5.8187,5.7987,5.6913,5.6214,5.5903,5.5903,5.5747,5.5553,5.5476,5.5476,5.5476,5.55,5.559,5.5847,5.5986,5.6124,5.6495,5.6962,5.7225,5.7341,5.779,5.8072,5.815,5.8481,5.8616,5.8732,5.9395,5.9732,5.9619,6.0071,6.067,6.1154,6.1521,6.1679,6.1715,6.1697,6.172,6.172,6.1759,6.1993,6.254,6.2891,6.3243,6.3867,6.4648,6.5194,6.5546,6.5975,6.6366,6.6639,6.6795,6.6795,6.6795,6.6795,6.6795,6.6795,6.6795,6.6795,6.6795,6.6795,6.6795,6.6795,6.6795,6.6795,6.6834,6.6873,6.6873,6.6912,6.7264,6.7888,6.6185,6.6108,6.5644,6.5257,6.4909,6.3787,6.3168,6.28,6.1969,6.1582,6.1543,6.1234,6.1118,6.1118,6.1118,6.1311,6.1543,6.1582,6.1776,6.1853,6.1311,6.1118,6.1118,6.1118,6.1118,6.1118,6.1118,6.1118,6.1118,6.1118,6.1079,6.1079,6.1118,6.1079,6.1118,6.1079,6.0809,6.0383,6.0344,6.0074,5.9648,5.9532,5.9585,5.9614,5.9359,5.925,5.9152,5.7962,5.7224,5.7224,5.7224,5.7224,5.7224,5.7224,5.7224,5.7224,5.7249,5.7262,5.7274,5.7375,5.7348,5.7437,5.7826,5.8098,5.8176,5.8654,5.8909,5.8958,5.9241,5.9455,5.9581,6.0234,6.072,6.0824,6.0867,6.1086,6.1603,6.1711,6.1719,6.1719,6.1713,6.1857,6.2115,6.2228,6.254,6.3282,6.375,6.4023,6.4804,6.5507,6.5819,6.6053,6.6405,6.6639,6.6756,6.6795,6.6795,6.6795,6.6795,6.6795,6.6795,6.6795,6.6795,6.6795,6.6795,6.6795,6.6795,6.6795,6.6795,6.6873,6.7068,6.7342,6.7615,6.8161,6.8747,6.6185,6.6185,6.6185,6.576,6.5141,6.4909,6.4387,6.3709,6.2839,6.2472,6.2297,6.1776,6.1427,6.1311,6.1543,6.1892,6.2356,6.2472,6.282,6.2936,6.2201,6.1505,6.1543,6.1543,6.1582,6.1466,6.135,6.1234,6.1311,6.1157,6.1118,6.1118,6.1118,6.1118,6.1118,6.1118,6.1079,6.1002,6.1041,6.0963,6.0925,6.1002,6.1,6.1087,6.046,6.0104,6.0007,5.9347,5.8842,5.8778,5.8583,5.8545,5.8739,5.8778,5.8622,5.8583,5.8739,5.8674,5.8778,5.8584,5.8635,5.862,5.8776,5.8943,5.8982,5.9188,5.9355,5.9366,5.9872,6.0272,6.0487,6.0965,6.1393,6.1539,6.1463,6.1537,6.1681,6.1711,6.1758,6.1836,6.1836,6.2107,6.2943,6.3052,6.3477,6.4219,6.4921,6.5273,6.5702,6.617,6.6639,6.6756,6.6756,6.6756,6.6795,6.6795,6.6795,6.6795,6.6795,6.6795,6.6795,6.6795,6.6795,6.6795,6.6873,6.6834,6.6873,6.6951,6.7068,6.7185,6.7537,6.7966,6.8474,6.8981,6.9489,6.6185,6.6185,6.6185,6.6069,6.5799,6.5296,6.487,6.4561,6.3748,6.3362,6.3245,6.3129,6.2897,6.3013,6.2975,6.3168,6.3323,6.3362,6.34,6.3594,6.3323,6.3013,6.3013,6.2975,6.2975,6.2859,6.2317,6.2085,6.2008,6.1505,6.1195,6.1118,6.1195,6.1157,6.1118,6.1118,6.1118,6.1118,6.1118,6.1118,6.1118,6.1118,6.1137,6.1208,6.1009,6.0942,6.0988,6.0823,6.006,5.8894,5.8817,5.8817,5.8933,5.8933,5.8972,5.8972,5.8894,5.8855,5.8869,5.8908,5.8869,5.8921,5.9465,5.9776,5.9815,6.0359,6.0657,6.0786,6.1019,6.1085,6.1172,6.1401,6.1549,6.1586,6.1775,6.1765,6.1754,6.1729,6.1902,6.25,6.2656,6.3086,6.3672,6.4005,6.4301,6.5043,6.5507,6.5858,6.6249,6.6483,6.6795,6.6795,6.6795,6.6795,6.6795,6.6795,6.6795,6.6795,6.6795,6.6795,6.6795,6.6795,6.6795,6.6795,6.7029,6.7068,6.7185,6.7303,6.742,6.7732,6.8396,6.902,6.9294,6.9723,7.0191,6.6185,6.6185,6.6185,6.6185,6.6147,6.5721,6.5528,6.5314,6.4638,6.4251,6.4174,6.3826,6.3671,6.3671,6.3671,6.3903,6.4213,6.4213,6.4445,6.4754,6.4754,6.4367,6.3864,6.3671,6.3671,6.3632,6.3207,6.2975,6.2897,6.2433,6.2201,6.2162,6.1814,6.166,6.166,6.1234,6.1118,6.1118,6.1118,6.1118,6.1118,6.1118,6.1137,6.1212,6.1264,6.133,6.1337,6.1366,6.0875,6.0099,5.9904,5.9904,5.9904,5.9904,5.9904,5.9904,5.9904,5.9904,5.9904,5.9904,5.9904,5.9982,6.0409,6.0604,6.072,6.1147,6.1394,6.1369,6.1394,6.1394,6.1499,6.1807,6.2201,6.2659,6.2695,6.257,6.2335,6.2618,6.2943,6.3389,6.3594,6.3867,6.4726,6.4844,6.5258,6.5876,6.6175,6.641,6.6678,6.6756,6.6795,6.6795,6.6795,6.6795,6.6795,6.6795,6.6912,6.6912,6.699,6.6951,6.7068,6.7029,6.6873,6.6951,6.7146,6.7381,6.7615,6.7966,6.8435,6.8864,6.9528,6.9918,7.0152,7.0426,7.0894,6.6185,6.6185,6.6185,6.6185,6.6185,6.6185,6.6108,6.6031,6.5412,6.5102,6.4966,6.4329,6.4213,6.3942,6.429,6.4406,6.5102,6.5102,6.5489,6.5837,6.5876,6.5373,6.4329,6.429,6.4251,6.4174,6.3942,6.3826,6.3748,6.3671,6.3594,6.3323,6.2781,6.2588,6.2433,6.1853,6.1427,6.1582,6.166,6.1698,6.1698,6.1698,6.1737,6.1794,6.1845,6.1889,6.1857,6.1808,6.173,6.1691,6.1536,6.1225,6.1303,6.1342,6.1303,6.1225,6.1147,6.1186,6.1381,6.1264,6.1497,6.1458,6.1575,6.1652,6.1808,6.1924,6.1963,6.2016,6.1691,6.1886,6.203,6.2522,6.3114,6.372,6.4033,6.3912,6.3598,6.3818,6.4258,6.4418,6.4445,6.4842,6.539,6.5781,6.6015,6.6359,6.6625,6.6699,6.6809,6.68,6.6839,6.6795,6.6795,6.6795,6.6795,6.6795,6.6951,6.7068,6.7224,6.7303,6.7576,6.7498,6.7185,6.7185,6.7771,6.8122,6.8318,6.8747,6.9372,6.9801,7.0309,7.0621,7.0894,7.1206,7.1636,6.6185,6.6185,6.6185,6.6185,6.6185,6.6185,6.6185,6.6185,6.6031,6.5876,6.5876,6.5721,6.5605,6.5605,6.5528,6.5799,6.5837,6.5876,6.6069,6.6147,6.6185,6.6069,6.5605,6.5528,6.5605,6.545,6.4948,6.4715,6.4599,6.4174,6.371,6.371,6.3671,6.34,6.3323,6.3129,6.3129,6.3129,6.3091,6.2975,6.2955,6.2975,6.2994,6.3051,6.3085,6.3247,6.3425,6.3439,6.3439,6.3129,6.2274,6.1614,6.1614,6.1575,6.1575,6.1614,6.1536,6.1497,6.1536,6.208,6.2429,6.2468,6.2896,6.3439,6.3439,6.3323,6.3376,6.3415,6.3439,6.3284,6.339,6.3573,6.3923,6.4321,6.481,6.5114,6.4887,6.4535,6.4632,6.5077,6.5321,6.5645,6.6476,6.6522,6.6679,6.6874,6.6911,6.6908,6.6901,6.6891,6.6848,6.6848,6.6834,6.6873,6.7185,6.7303,6.7615,6.7732,6.781,6.7888,6.8122,6.8318,6.8122,6.8239,6.8591,6.8864,6.9137,6.9762,7.0426,7.0738,7.1011,7.1285,7.1558,7.1909,7.2143,6.6185,6.6185,6.6185,6.6185,6.6185,6.6185,6.6185,6.6185,6.6185,6.6185,6.6185,6.6185,6.6185,6.6185,6.6185,6.6185,6.6185,6.6185,6.6185,6.6185,6.6185,6.6185,6.6185,6.6185,6.6185,6.6108,6.5799,6.5566,6.5412,6.5102,6.4948,6.4793,6.4522,6.4329,6.4174,6.3942,6.3632,6.3632,6.3671,6.369,6.369,6.369,6.3709,6.3747,6.3761,6.3867,6.3945,6.3945,6.3983,6.3789,6.3129,6.2624,6.2624,6.2624,6.2585,6.2624,6.2624,6.2624,6.2818,6.3012,6.3323,6.3323,6.375,6.3906,6.3983,6.3983,6.3998,6.3998,6.3983,6.4076,6.4517,6.4609,6.4727,6.5258,6.5672,6.6018,6.5981,6.5628,6.551,6.5998,6.6131,6.6336,6.6699,6.6865,6.6908,6.6911,6.6914,6.6913,6.6912,6.6869,6.6901,6.6859,6.6883,6.7029,6.7498,6.7888,6.8435,6.8591,6.8708,6.8786,6.8903,6.9098,6.9255,6.9333,6.9411,6.9801,7.0152,7.0816,7.1245,7.1441,7.1636,7.187,7.2026,7.2143,7.2417,6.6185,6.6185,6.6185,6.6185,6.6185,6.6185,6.6185,6.6185,6.6185,6.6185,6.6185,6.6185,6.6185,6.6185,6.6185,6.6185,6.6185,6.6185,6.6185,6.6185,6.6185,6.6185,6.6185,6.6185,6.6185,6.6185,6.6108,6.6108,6.6108,6.6185,6.5876,6.5992,6.5528,6.518,6.4986,6.4522,6.429,6.4329,6.4367,6.4329,6.429,6.4251,6.4348,6.442,6.4438,6.4527,6.4629,6.4605,6.4488,6.4372,6.4372,6.4372,6.4333,6.4061,6.3983,6.3945,6.3789,6.3711,6.375,6.4022,6.4178,6.4178,6.4411,6.445,6.4488,6.4605,6.4644,6.4566,6.4644,6.4838,6.5304,6.5436,6.5814,6.6309,6.6594,6.6657,6.668,6.6712,6.6603,6.6642,6.6577,6.6667,6.6756,6.6844,6.6891,6.6898,6.691,6.6952,6.6992,6.7109,6.7224,6.7492,6.764,6.7854,6.8279,6.8513,6.9059,6.9489,6.9606,6.9762,6.9879,7.023,7.0387,7.0074,7.0152,7.0582,7.0933,7.1363,7.1714,7.1987,7.226,7.2495,7.2456,7.2339,7.2807,6.6185,6.6185,6.6185,6.6185,6.6185,6.6185,6.6185,6.6185,6.6185,6.6185,6.6185,6.6185,6.6185,6.6185,6.6185,6.6185,6.6185,6.6185,6.6185,6.6185,6.6185,6.6185,6.6185,6.6185,6.6185,6.6185,6.6185,6.6185,6.6185,6.6185,6.6185,6.6185,6.6031,6.5915,6.5876,6.5799,6.5528,6.545,6.5489,6.5489,6.5528,6.5528,6.5567,6.5661,6.564,6.5769,6.5949,6.6042,6.6081,6.6081,6.6081,6.6042,6.5732,6.4799,6.4333,6.4216,6.4255,6.4333,6.4333,6.4721,6.4955,6.5149,6.5537,6.5926,6.5965,6.5965,6.577,6.5848,6.5887,6.6081,6.6237,6.6174,6.6344,6.6606,6.662,6.6607,6.6633,6.6669,6.679,6.6915,6.6861,6.6805,6.6811,6.6862,6.699,6.7078,6.7203,6.7333,6.7453,6.7693,6.8008,6.828,6.8627,6.8886,6.9221,6.9333,6.9684,7.027,7.0543,7.0816,7.105,7.1519,7.1558,7.1206,7.1128,7.1402,7.1753,7.1948,7.2104,7.23,7.2651,7.308,7.3158,7.3236,7.3744,6.6185,6.6185,6.6185,6.6185,6.6185,6.6185,6.6185,6.6185,6.6185,6.6185,6.6185,6.6185,6.6185,6.6185,6.6185,6.6185,6.6185,6.6185,6.6185,6.6185,6.6185,6.6185,6.6263,6.6224,6.6185,6.6185,6.6185,6.6224,6.6185,6.6185,6.6185,6.6185,6.6185,6.6185,6.6185,6.6147,6.6185,6.6185,6.6185,6.6185,6.6185,6.6185,6.6264,6.6322,6.6415,6.6411,6.6461,6.6493,6.647,6.647,6.647,6.6508,6.6392,6.6237,6.5732,6.5382,6.5304,6.5304,6.5304,6.5693,6.5848,6.5926,6.6353,6.647,6.6508,6.6431,6.6586,6.6547,6.6508,6.6508,6.647,6.6547,6.6524,6.6577,6.6631,6.6659,6.6633,6.6672,6.6941,6.718,6.7053,6.697,6.6798,6.6922,6.7084,6.7253,6.7453,6.7698,6.7984,6.8385,6.8824,6.9218,6.957,6.9844,7.0156,7.0331,7.0518,7.1099,7.1441,7.1714,7.2026,7.2417,7.2495,7.2339,7.2378,7.2339,7.2221,7.2339,7.2495,7.2768,7.3393,7.3861,7.4017,7.4251,7.472,6.6185,6.6185,6.6185,6.6185,6.6185,6.6185,6.6185,6.6185,6.6185,6.6185,6.6185,6.6185,6.6185,6.6185,6.6185,6.6185,6.6185,6.6185,6.6301,6.6533,6.6572,6.6533,6.6727,6.6727,6.6882,6.7036,6.6959,6.6533,6.6224,6.6185,6.6185,6.6185,6.6185,6.6185,6.6185,6.6185,6.6185,6.6185,6.6185,6.6185,6.6185,6.6185,6.636,6.6535,6.663,6.676,6.7105,6.7231,6.7247,6.7208,6.7169,6.7091,6.7169,6.7674,6.7713,6.7169,6.7014,6.7014,6.7014,6.7052,6.7169,6.7208,6.7091,6.7091,6.713,6.7285,6.7169,6.7014,6.7091,6.7208,6.7285,6.7091,6.713,6.713,6.7238,6.7175,6.7306,6.7436,6.771,6.7708,6.7364,6.7443,6.7664,6.7712,6.8078,6.8131,6.8333,6.8463,6.8786,6.9338,6.9745,7.0152,7.0508,7.082,7.1094,7.1328,7.1632,7.2098,7.2314,7.2534,7.2846,7.3197,7.3236,7.3354,7.3158,7.308,7.2885,7.2924,7.3275,7.3744,7.433,7.4681,7.4798,7.5188,7.5657,6.6185,6.6185,6.6185,6.6185,6.6185,6.6185,6.6185,6.6185,6.6185,6.6185,6.6185,6.6185,6.6185,6.6185,6.6185,6.6185,6.6263,6.634,6.6727,6.7268,6.7384,6.7694,6.8274,6.8506,6.8197,6.8119,6.8274,6.7539,6.6804,6.6456,6.634,6.6417,6.6495,6.6301,6.6572,6.6611,6.6185,6.6263,6.6301,6.6301,6.634,6.6379,6.6806,6.7232,6.7521,6.7751,6.8252,6.8419,6.8529,6.8606,6.8684,6.8762,6.8801,6.8839,6.8917,6.8839,6.8801,6.8762,6.8645,6.849,6.849,6.8451,6.8529,6.8762,6.8529,6.849,6.849,6.8801,6.8684,6.8529,6.8451,6.8645,6.8723,6.8606,6.8412,6.8505,6.8583,6.8147,6.8409,6.8773,6.8592,6.8833,6.907,6.908,6.9099,6.9163,6.9217,6.938,6.9667,7.0219,7.0621,7.0963,7.1439,7.1758,7.2031,7.2305,7.2694,7.3122,7.3192,7.3325,7.3627,7.3939,7.4251,7.4251,7.4134,7.4173,7.433,7.4408,7.4408,7.4681,7.5149,7.5423,7.5657,7.6086,7.6477,6.6185,6.6185,6.6185,6.6185,6.6185,6.6185,6.6185,6.6185,6.6185,6.6185,6.6185,6.6185,6.6185,6.6185,6.6185,6.6495,6.6843,6.692,6.7423,6.8081,6.8274,6.8468,6.8661,6.8777,6.8777,6.8893,6.8777,6.8506,6.7771,6.7694,6.7655,6.7617,6.7617,6.7771,6.7501,6.7655,6.7694,6.7733,6.7715,6.7676,6.7655,6.7694,6.781,6.8238,6.8316,6.8586,6.8933,6.904,6.9111,6.9111,6.9111,6.9111,6.9228,6.9461,6.9788,6.9811,7.0277,7.0044,6.9267,6.9189,6.9189,6.915,6.915,6.9034,6.9111,6.915,6.915,6.9072,6.9095,6.9134,6.9189,6.9111,6.9111,6.9111,6.9344,6.9306,6.9267,6.915,6.9104,6.9507,6.9886,7.0058,7.0069,6.9768,6.9762,7.0034,7.0169,7.0333,7.0707,7.1234,7.1519,7.1724,7.2245,7.2734,7.3008,7.328,7.3672,7.4023,7.4023,7.4168,7.4418,7.472,7.5077,7.5462,7.5618,7.5735,7.5813,7.5579,7.5305,7.5579,7.593,7.6125,7.632,7.6516,7.6828,6.6185,6.6185,6.6185,6.6185,6.6185,6.6185,6.6185,6.6185,6.6185,6.6185,6.6185,6.6185,6.6185,6.6301,6.6495,6.692,6.7462,6.7694,6.8352,6.8854,6.9164,6.928,6.9551,6.9551,6.9512,6.9396,6.9667,6.9551,6.9512,6.9357,6.9203,6.8854,6.8545,6.8661,6.8738,6.8622,6.8545,6.8545,6.8605,6.8605,6.8661,6.8661,6.8854,6.903,6.9169,6.9304,6.9517,6.9744,6.9833,6.9849,6.9888,6.9966,7.0044,7.0354,7.0626,7.0704,7.1093,7.0976,7.0277,6.9966,6.9733,6.9733,6.9733,6.9966,6.9888,6.9733,6.9733,6.9927,6.9927,6.9872,6.9733,6.9811,6.9966,7.0005,6.9927,6.9772,6.9733,6.9849,7.006,7.0425,7.0751,7.0946,7.0834,7.0356,7.0368,7.0775,7.1068,7.1243,7.162,7.208,7.232,7.2489,7.313,7.3564,7.3768,7.4132,7.4567,7.4882,7.4922,7.5155,7.5496,7.5755,7.6063,7.6449,7.6717,7.6711,7.6477,7.6281,7.6125,7.632,7.6555,7.6789,7.6984,7.7101,7.714,6.6185,6.6185,6.6185,6.6185,6.6185,6.6185,6.6185,6.6185,6.6185,6.6185,6.6185,6.6185,6.6185,6.6379,6.692,6.7384,6.7578,6.8352,6.9164,6.9705,6.9976,7.0324,7.0595,7.0789,7.0905,7.0905,7.075,7.0789,7.0982,7.0672,7.0015,6.9048,6.9241,6.897,6.9009,6.9241,6.9203,6.9203,6.9164,6.9087,6.9087,6.9087,6.9319,6.9843,7.0039,7.0389,7.1223,7.1162,7.1137,7.1093,7.1054,7.1054,7.1015,7.117,7.1287,7.1365,7.1442,7.1365,7.1093,7.1015,7.1287,7.1365,7.1287,7.1054,7.0976,7.1248,7.1365,7.1131,7.0937,7.1093,7.1209,7.1365,7.1015,7.0937,7.0782,7.0782,7.0821,7.0976,7.117,7.1403,7.1497,7.1474,7.1669,7.1209,7.094,7.1315,7.1739,7.1955,7.2218,7.2604,7.3002,7.3328,7.3972,7.4369,7.4486,7.4892,7.5373,7.5657,7.5778,7.621,7.6679,7.687,7.6743,7.6848,7.6966,7.7034,7.714,7.7023,7.6945,7.6984,7.7101,7.7101,7.7218,7.7335,7.7296,6.6144,6.6185,6.6185,6.6185,6.6185,6.6185,6.6185,6.6185,6.6185,6.6185,6.6185,6.6185,6.6185,6.6456,6.7114,6.781,6.8352,6.9164,6.9976,7.0556,7.0866,7.1021,7.1291,7.1291,7.1253,7.1291,7.1291,7.1291,7.1253,7.1291,7.1059,7.0479,7.0208,7.0363,7.0363,7.017,7.0208,7.0247,7.0286,7.0324,7.0324,7.0324,7.0479,7.0711,7.0852,7.1048,7.1417,7.1532,7.1586,7.1659,7.1675,7.1753,7.1792,7.1753,7.1753,7.1753,7.1753,7.1753,7.1714,7.1675,7.1598,7.1598,7.1559,7.1675,7.1792,7.1675,7.1598,7.1559,7.1714,7.1831,7.1636,7.1598,7.1481,7.1559,7.1675,7.1753,7.1831,7.1947,7.1947,7.2119,7.1792,7.1575,7.1847,7.2041,7.1909,7.1848,7.2276,7.2663,7.294,7.3319,7.3757,7.4164,7.4804,7.517,7.5326,7.5729,7.6209,7.6384,7.6553,7.6987,7.7342,7.7109,7.7028,7.71,7.7286,7.7395,7.7542,7.7693,7.7648,7.7453,7.7257,7.7101,7.7257,7.7648,7.7765,6.6123,6.6165,6.6185,6.6185,6.6185,6.6185,6.6185,6.6185,6.6185,6.6185,6.6185,6.6185,6.6379,6.6766,6.7501,6.839,6.9203,7.0015,7.0672,7.1059,7.1214,7.1291,7.1291,7.1291,7.1291,7.1291,7.1291,7.1291,7.1291,7.1291,7.1175,7.1175,7.1291,7.1175,7.1175,7.1291,7.1291,7.1291,7.1291,7.1291,7.1214,7.1214,7.1214,7.1214,7.1257,7.159,7.1862,7.2075,7.2267,7.2436,7.253,7.2452,7.2413,7.2391,7.2375,7.2375,7.2336,7.2336,7.2336,7.2103,7.2025,7.2103,7.2452,7.2452,7.2375,7.2336,7.2608,7.253,7.2452,7.2336,7.2297,7.2569,7.2647,7.2802,7.2802,7.2841,7.2802,7.2841,7.278,7.2702,7.2491,7.2569,7.2724,7.3074,7.3068,7.2974,7.3185,7.3535,7.3676,7.4138,7.4665,7.5113,7.5599,7.5928,7.617,7.6458,7.6705,7.6873,7.7087,7.7442,7.7644,7.7536,7.7812,7.8241,7.8274,7.7954,7.8137,7.8591,7.8233,7.7726,7.7765,7.796,7.8233,7.8663,7.8702,6.6102,6.6102,6.6165,6.6185,6.6185,6.6185,6.6185,6.6185,6.6185,6.6185,6.6185,6.6224,6.6688,6.7384,6.8158,6.897,6.9821,7.0711,7.1214,7.1253,7.1291,7.1291,7.1291,7.1291,7.1291,7.1291,7.1291,7.1291,7.1291,7.1291,7.1291,7.1291,7.1291,7.1291,7.1291,7.1291,7.1291,7.1291,7.1291,7.1291,7.1446,7.1485,7.1523,7.1717,7.1777,7.2169,7.2579,7.2774,7.3063,7.3506,7.3657,7.3657,7.3712,7.3751,7.3773,7.3834,7.3873,7.3967,7.4006,7.3307,7.3035,7.2957,7.3268,7.3618,7.3929,7.3967,7.3773,7.3501,7.3734,7.3851,7.4006,7.4006,7.3851,7.3734,7.3695,7.3657,7.3579,7.3523,7.3368,7.3307,7.3734,7.4084,7.4123,7.4162,7.4217,7.4227,7.43,7.4405,7.4509,7.5,7.5569,7.5824,7.6235,7.6409,7.6613,7.6942,7.7199,7.7368,7.7687,7.8166,7.8528,7.8692,7.9016,7.9413,7.9218,7.8823,7.9161,7.9645,7.9371,7.9176,7.9131,7.9287,7.9483,7.96,7.9639,6.6058,6.6102,6.6165,6.6185,6.6185,6.6185,6.6185,6.6185,6.6185,6.6185,6.6185,6.6185,6.6688,6.7539,6.839,6.9241,7.0092,7.0866,7.1291,7.1291,7.1291,7.1291,7.1291,7.1291,7.1291,7.1291,7.1291,7.1291,7.1291,7.1291,7.1291,7.1291,7.1291,7.1291,7.1291,7.1291,7.1291,7.1291,7.133,7.1523,7.2065,7.2181,7.2375,7.2877,7.2877,7.3115,7.3488,7.3568,7.3898,7.4303,7.4416,7.4395,7.4373,7.4373,7.4317,7.4261,7.4261,7.4183,7.4356,7.42,7.4317,7.4162,7.4084,7.4395,7.4239,7.42,7.42,7.4278,7.4434,7.4395,7.4162,7.4162,7.4084,7.4045,7.4006,7.4045,7.4006,7.3972,7.3915,7.3855,7.4106,7.4688,7.4921,7.5055,7.5111,7.5228,7.5292,7.5196,7.5262,7.5859,7.6469,7.6543,7.676,7.6887,7.7102,7.7628,7.7909,7.8035,7.8526,7.9125,7.9444,7.9723,7.9772,7.9942,7.9801,7.9726,8.0073,8.0414,8.0827,8.0861,8.0504,8.0146,8.0029,8.0263,8.0537,6.6013,6.608,6.6123,6.6165,6.6185,6.6185,6.6185,6.6185,6.6185,6.6185,6.6185,6.6224,6.692,6.7849,6.8545,6.9551,7.0402,7.0982,7.1291,7.1291,7.1291,7.1291,7.1291,7.1291,7.1291,7.1291,7.1291,7.1291,7.1291,7.1291,7.1291,7.1291,7.1291,7.1291,7.1291,7.1291,7.1485,7.1678,7.191,7.222,7.28,7.3109,7.3303,7.3651,7.3806,7.3983,7.4242,7.4439,7.4616,7.4828,7.4981,7.5016,7.5016,7.5016,7.5038,7.5077,7.5077,7.5115,7.5327,7.5482,7.5521,7.5249,7.5055,7.5055,7.5055,7.5249,7.5211,7.5211,7.5016,7.5016,7.5016,7.4977,7.4939,7.4939,7.4977,7.5016,7.502,7.5041,7.4965,7.4867,7.4885,7.5351,7.5641,7.5853,7.5988,7.6121,7.6238,7.6148,7.6038,7.6572,7.717,7.7404,7.7506,7.7712,7.8007,7.8496,7.8701,7.875,7.9353,8.0072,8.0353,8.0595,8.0524,8.053,8.0758,8.093,8.0898,8.1131,8.1472,8.1578,8.1373,8.1017,8.0654,8.0888,8.1278,6.5967,6.6013,6.608,6.6123,6.6185,6.6185,6.6185,6.6185,6.6185,6.6185,6.6185,6.6185,6.7075,6.8468,6.8777,6.9705,7.0905,7.1214,7.1291,7.1291,7.1291,7.1291,7.1291,7.1291,7.1291,7.1291,7.1291,7.1291,7.1291,7.1291,7.1291,7.133,7.1485,7.1523,7.1562,7.1794,7.2026,7.2297,7.2607,7.3071,7.3728,7.396,7.4115,7.4347,7.4463,7.4718,7.5034,7.533,7.574,7.6129,7.6496,7.6552,7.6609,7.6648,7.6687,7.6609,7.6531,7.6454,7.6415,7.6454,7.6493,7.6221,7.6376,7.657,7.6454,7.6221,7.6143,7.6182,7.6143,7.6337,7.6454,7.6376,7.6337,7.6337,7.6358,7.6379,7.6399,7.6361,7.6342,7.6245,7.6167,7.6342,7.6342,7.6534,7.6552,7.6842,7.7015,7.7188,7.7081,7.6918,7.757,7.8221,7.8404,7.865,7.8987,7.9283,7.9528,7.9617,8.03,8.0943,8.1226,8.1351,8.1368,8.1492,8.1975,8.2037,8.1709,8.1757,8.2068,8.2063,8.1859,8.1803,8.1441,8.163,8.1981,6.5394,6.6005,6.6058,6.6102,6.6123,6.6165,6.6185,6.6185,6.6185,6.6185,6.6185,6.6185,6.7191,6.8738,6.8816,6.986,7.075,7.1291,7.1291,7.1291,7.1291,7.1291,7.1291,7.1291,7.1291,7.1291,7.1291,7.1291,7.1291,7.1291,7.1291,7.133,7.1872,7.2065,7.2413,7.28,7.2839,7.2955,7.3303,7.396,7.4541,7.4773,7.5005,7.5314,7.543,7.5686,7.5863,7.6024,7.6359,7.6516,7.6691,7.669,7.6687,7.6687,7.6687,7.6687,7.6648,7.6648,7.6687,7.6726,7.6803,7.692,7.6881,7.6687,7.6687,7.6764,7.6764,7.6687,7.6687,7.6687,7.6687,7.6687,7.6687,7.6708,7.669,7.6671,7.6672,7.6632,7.6591,7.6553,7.6531,7.6728,7.675,7.6826,7.6923,7.7368,7.7736,7.7986,7.8082,7.7921,7.8147,7.8854,7.918,7.9389,7.965,7.9987,8.0234,8.0557,8.1126,8.1577,8.1704,8.187,8.2084,8.2218,8.2234,8.2248,8.2227,8.2292,8.2303,8.2304,8.2143,8.2246,8.2305,8.2305,8.2299,6.4922,6.5471,6.5897,6.608,6.6144,6.6204,6.6185,6.6185,6.6185,6.6185,6.6185,6.6185,6.7191,6.8622,6.8893,6.9667,7.1214,7.1291,7.1291,7.1291,7.1291,7.1291,7.1291,7.1291,7.1291,7.1291,7.1291,7.1291,7.1291,7.133,7.1369,7.1932,7.2452,7.2761,7.3226,7.3806,7.4038,7.3999,7.4193,7.4811,7.5237,7.5585,7.5972,7.6243,7.6359,7.6397,7.6397,7.6466,7.651,7.6612,7.6672,7.6671,7.6669,7.6687,7.6687,7.6764,7.7153,7.7231,7.7347,7.7697,7.7697,7.7697,7.7658,7.7775,7.7425,7.7308,7.6959,7.6687,7.6687,7.6687,7.6687,7.6687,7.6708,7.669,7.6671,7.6672,7.6632,7.657,7.651,7.6488,7.6588,7.6824,7.6943,7.706,7.7448,7.8145,7.8668,7.8979,7.9036,7.8898,7.9165,7.9703,7.9913,8.01,8.0401,8.0701,8.0948,8.1247,8.1571,8.1945,8.2101,8.2123,8.2143,8.2162,8.2179,8.2234,8.2254,8.2266,8.2246,8.2261,8.2304,8.2304,8.23,8.2295,8.2324,6.4424,6.473,6.562,6.608,6.6165,6.6185,6.6185,6.6185,6.6185,6.6185,6.6185,6.6185,6.7191,6.8545,6.8854,6.9783,7.0866,7.1291,7.1291,7.1291,7.1291,7.1291,7.1291,7.1291,7.1291,7.1291,7.1291,7.1291,7.1291,7.1369,7.1678,7.2551,7.2761,7.3187,7.4038,7.4811,7.5082,7.5082,7.516,7.5546,7.6049,7.632,7.6397,7.6359,7.6397,7.6397,7.6421,7.6444,7.651,7.6573,7.6652,7.6671,7.6902,7.7153,7.7114,7.727,7.7813,7.8008,7.8241,7.8552,7.8862,7.9057,7.9251,7.8979,7.8435,7.8008,7.7619,7.7503,7.7619,7.7619,7.7619,7.7619,7.7601,7.7583,7.7545,7.7486,7.7423,7.7418,7.7395,7.7334,7.7395,7.7595,7.7814,7.799,7.836,7.9077,7.9484,7.9834,8.0067,7.995,8.0141,8.0548,8.0698,8.0886,8.1213,8.153,8.1714,8.1961,8.2052,8.2077,8.2077,8.2101,8.2123,8.2143,8.2153,8.2179,8.2195,8.2209,8.2221,8.2271,8.225,8.2258,8.2301,8.2304,8.2301,6.331,6.4616,6.5596,6.6058,6.6123,6.6165,6.6185,6.6185,6.6185,6.6185,6.6185,6.634,6.7191,6.8622,6.8816,6.9705,7.0982,7.1291,7.1291,7.1291,7.1291,7.1291,7.1291,7.1291,7.1291,7.1291,7.1291,7.1291,7.133,7.1407,7.1756,7.2629,7.3148,7.3999,7.4811,7.5624,7.5933,7.5895,7.5972,7.6011,7.6281,7.6397,7.6397,7.6397,7.6397,7.6397,7.6397,7.6459,7.6505,7.651,7.6591,7.6982,7.7619,7.828,7.859,7.8746,7.8785,7.894,7.9095,7.9328,7.9562,7.9484,7.9445,7.9328,7.9095,7.8823,7.8668,7.8629,7.859,7.8552,7.8552,7.8513,7.8494,7.8457,7.8398,7.8336,7.827,7.8286,7.8278,7.8278,7.8278,7.8441,7.8663,7.8977,7.9369,7.9757,8.0126,8.0533,8.1077,8.1193,8.1038,8.1346,8.1481,8.1709,8.1975,8.1952,8.1983,8.2012,8.2026,8.2039,8.2104,8.2116,8.2101,8.2112,8.2094,8.2153,8.2162,8.2179,8.2195,8.2241,8.2254,8.2232,8.2285,8.2292,8.2303,6.2617,6.4027,6.5418,6.6036,6.6102,6.6165,6.6185,6.6185,6.6185,6.6185,6.6185,6.6301,6.7152,6.8622,6.8816,6.9705,7.1059,7.1291,7.1291,7.1291,7.1291,7.1291,7.1291,7.1291,7.1291,7.1291,7.1291,7.1291,7.1407,7.1872,7.2375,7.317,7.4022,7.4811,7.5585,7.6165,7.6397,7.6359,7.6397,7.6397,7.6397,7.6397,7.6397,7.6397,7.6397,7.6397,7.6552,7.6668,7.7024,7.7263,7.7581,7.7972,7.8494,7.8901,7.9173,7.9367,7.9562,7.9872,7.995,8.0144,8.03,8.03,8.0416,8.061,8.0649,8.0377,7.9678,7.9562,7.9057,7.8979,7.8961,7.8961,7.8884,7.8825,7.8783,7.8718,7.8712,7.8704,7.868,7.868,7.882,7.9037,7.9277,7.9609,8.0084,8.0767,8.1097,8.1097,8.164,8.1892,8.1892,8.1892,8.1929,8.1908,8.1943,8.1959,8.1937,8.1968,8.1983,8.2012,8.2065,8.2091,8.2077,8.2089,8.2101,8.2112,8.2133,8.2143,8.2201,8.2218,8.2226,8.2234,8.2248,8.2266,8.2285,6.2218,6.3322,6.5048,6.5958,6.6102,6.6144,6.6185,6.6185,6.6185,6.6185,6.6185,6.6185,6.7268,6.8313,6.8854,7.0015,7.0866,7.1214,7.1291,7.1291,7.1291,7.1291,7.1291,7.1291,7.1291,7.1291,7.1291,7.1485,7.164,7.2181,7.29,7.3966,7.4757,7.5508,7.6127,7.6397,7.6397,7.6397,7.6397,7.6397,7.6397,7.6397,7.6397,7.6397,7.6514,7.6552,7.6823,7.7287,7.7837,7.8231,7.8684,7.9097,7.9447,7.9776,7.9893,8.0126,8.0494,8.0727,8.0882,8.1271,8.1543,8.1776,8.1892,8.1892,8.1815,8.1465,8.0766,8.0377,7.9872,7.9678,7.966,7.9641,7.9582,7.952,7.9454,7.9409,7.94,7.9376,7.9376,7.9376,7.9555,7.9811,8.0004,8.0338,8.0816,8.1543,8.1776,8.1835,8.1873,8.1892,8.1892,8.1892,8.1911,8.1929,8.1908,8.1926,8.1943,8.192,8.1937,8.1968,8.1998,8.2026,8.2052,8.2052,8.2065,8.2128,8.2128,8.2101,8.2162,8.2182,8.2153,8.2162,8.2187,8.2241,8.2248,6.1709,6.3258,6.4446,6.535,6.5958,6.608,6.6144,6.6185,6.6185,6.6185,6.6185,6.634,6.7152,6.8777,6.8777,6.9705,7.1098,7.1291,7.1291,7.1291,7.1291,7.1291,7.1291,7.1291,7.1291,7.1291,7.1369,7.1717,7.2065,7.2529,7.338,7.4757,7.4928,7.5546,7.6243,7.6397,7.6397,7.6397,7.6397,7.6397,7.6436,7.6397,7.6397,7.663,7.7094,7.7287,7.7674,7.8293,7.8641,7.9037,7.9587,8.0045,8.0378,8.0689,8.0922,8.098,8.133,8.1426,8.1621,8.1737,8.1892,8.1892,8.1892,8.1892,8.1854,8.1854,8.1426,8.1426,8.1116,8.1116,8.1097,8.1058,8.1018,8.0894,8.0826,8.0779,8.0769,8.0769,8.0769,8.0769,8.0807,8.0909,8.0948,8.1127,8.119,8.1691,8.1755,8.1794,8.1834,8.1873,8.1892,8.1892,8.1892,8.1892,8.1911,8.1911,8.1929,8.1926,8.1904,8.192,8.1952,8.1998,8.2012,8.2026,8.2091,8.2116,8.2116,8.2065,8.2089,8.2112,8.2123,8.2133,8.2153,8.2171,8.2218]},{"header":{"parameterUnit":"m.s-1","parameterCategory":1,"la1":31.0,"la2":29.5877,"lo1":-88.7671,"lo2":-86.6584,"dy":0.0162,"dx":0.0185,"nx":115,"ny":88,"refTime":"2024-03-09T06:00:00:Z","depth":0,"parameterNumber":3,"parameterNumberName":"V-component_of_WINDS"},"data":[0.0,0.0,0.0,0.0,0.0,0.0,0.0,0.0,0.0,0.0,0.0,0.0,0.0,0.0,0.0,0.0,0.0,0.0,0.0,0.0,0.0,0.0,0.0,0.0,0.0,0.0,0.0,0.0,0.0,0.0,0.0,0.0,0.0,0.0,0.0,0.0,0.0,0.0,0.0,0.0,0.0,0.0,0.0,0.0,0.0,0.0,0.0,0.0,0.0,0.0,0.0,0.0,0.0,0.0,0.0,0.0,0.0,0.0,0.0,0.0,0.0,0.0,0.0,0.0,0.0,0.0,0.0,0.0,0.0,0.0,0.0,0.0,0.0,0.0,0.0,0.0,0.0,0.0,0.0,0.0,0.0,0.0,0.0,0.0,0.0,0.0,0.0,0.0,0.0,0.0,0.0,0.0,0.0,0.0,0.0,0.0,0.0,0.0,0.0,0.0,0.0,0.0,0.0,0.0,0.0,0.0,0.0,0.0,0.0,0.0,0.0,0.0,0.0,0.0,0.0,0.0,0.0,0.0,0.0,0.0,0.0,0.0,0.0,0.0,0.0,0.0,0.0,0.0,0.0,0.0,0.0,0.0,0.0,0.0,0.0,0.0,0.0,0.0,0.0,0.0,0.0,0.0,0.0,0.0,0.0,0.0,0.0,0.0,0.0,0.0,0.0,0.0,0.0,0.0,0.0,0.0,0.0,0.0,0.0,0.0,0.0,0.0,0.0,0.0,0.0,0.0,0.0,0.0,0.0,0.0,0.0,0.0,0.0,0.0,0.0,0.0,0.0,0.0,0.0,0.0,0.0,0.0,0.0,0.0,0.0,0.0,0.0,0.0,0.0,0.0,0.0,0.0,0.0,0.0,0.0,0.0,0.0,0.0,0.0,0.0,0.0,0.0,0.0,0.0,0.0,0.0,0.0,0.0,0.0,0.0,0.0,0.0,0.0,0.0,0.0,0.0,0.0,0.0,0.0,0.0,0.0,0.0,0.0,0.0,0.0,0.0,0.0,0.0,0.0,0.0,0.0,0.0,0.0,0.0,0.0,0.0,0.0,0.0,0.0,0.0,0.0,0.0,0.0,0.0,0.0,0.0,0.0,0.0,0.0,0.0,0.0,0.0,0.0,0.0,0.0,0.0,0.0,0.0,0.0,0.0,0.0,0.0,0.0,0.0,0.0,0.0,0.0,0.0,0.0,0.0,0.0,0.0,0.0,0.0,0.0,0.0,0.0,0.0,0.0,0.0,0.0,0.0,0.0,0.0,0.0,0.0,0.0,0.0,0.0,0.0,0.0,0.0,0.0,0.0,0.0,0.0,0.0,0.0,0.0,0.0,0.0,0.0,0.0,0.0,0.0,0.0,0.0,0.0,0.0,0.0,0.0,0.0,0.0,0.0,0.0,0.0,0.0,0.0,0.0,0.0,0.0,0.0,0.0,0.0,0.0,0.0,0.0,0.0,0.0,0.0,0.0,0.0,0.0,0.0,0.0,0.0,0.0,0.0,0.0,0.0,0.0,0.0,0.0,0.0,0.0,0.0,0.0,0.0,0.0,0.0,0.0,0.0,0.0,0.0,0.0,0.0,0.0,0.0,0.0,0.0,0.0,0.0,0.0,0.0,0.0,0.0,0.0,0.0,0.0,0.0,0.0,0.0,0.0,0.0,0.0,0.0,0.0,0.0,0.0,0.0,0.0,0.0,0.0,0.0,0.0,0.0,0.0,0.0,0.0,0.0,0.0,0.0,0.0,0.0,0.0,0.0,0.0,0.0,0.0,0.0,0.0,0.0,0.0,0.0,0.0,0.0,0.0,0.0,0.0,0.0,0.0,0.0,0.0,0.0,0.0,0.0,0.0,0.0,0.0,0.0,0.0,0.0,0.0,0.0,0.0,0.0,0.0,0.0,0.0,0.0,0.0,0.0,0.0,0.0,0.0,0.0,0.0,0.0,0.0,0.0,0.0,0.0,0.0,0.0,0.0,0.0,0.0,0.0,0.0,0.0,0.0,0.0,0.0,0.0,0.0,0.0,0.0,0.0,0.0,0.0,0.0,0.0,0.0,0.0,0.0,0.0,0.0,0.0,0.0,0.0,0.0,0.0,0.0,0.0,0.0,0.0,0.0,0.0,0.0,0.0,0.0,0.0,0.0,0.0,0.0,0.0,0.0,0.0,0.0,0.0,0.0,0.0,0.0,0.0,0.0,0.0,0.0,0.0,0.0,0.0,0.0,0.0,0.0,0.0,0.0,0.0,0.0,0.0,0.0,0.0,0.0,0.0,0.0,0.0,0.0,0.0,0.0,0.0,0.0,0.0,0.0,0.0,0.0,0.0,0.0,0.0,0.0,0.0,0.0,0.0,0.0,0.0,0.0,0.0,0.0,0.0,0.0,0.0,0.0,0.0,0.0,0.0,0.0,0.0,0.0,0.0,0.0,0.0,0.0,0.0,0.0,0.0,0.0,0.0,0.0,0.0,0.0,0.0,0.0,0.0,0.0,0.0,0.0,0.0,0.0,0.0,0.0,0.0,0.0,0.0,0.0,0.0,0.0,0.0,0.0,0.0,0.0,0.0,0.0,0.0,0.0,0.0,0.0,0.0,0.0,0.0,0.0,0.0,0.0,0.0,0.0,0.0,0.0,0.0,0.0,0.0,0.0,0.0,0.0,0.0,0.0,0.0,0.0,0.0,0.0,0.0,0.0,0.0,0.0,0.0,0.0,0.0,0.0,0.0,0.0,0.0,0.0,0.0,0.0,0.0,0.0,0.0,0.0,0.0,0.0,0.0,0.0,0.0,0.0,0.0,0.0,0.0,0.0,0.0,0.0,0.0,0.0,0.0,0.0,0.0,0.0,0.0,0.0,0.0,0.0,0.0,0.0,0.0,0.0,0.0,0.0,0.0,0.0,0.0,0.0,0.0,0.0,0.0,0.0,0.0,0.0,0.0,0.0,0.0,0.0,0.0,0.0,0.0,0.0,0.0,0.0,0.0,0.0,0.0,0.0,0.0,0.0,0.0,0.0,0.0,0.0,0.0,0.0,0.0,0.0,0.0,0.0,0.0,0.0,0.0,0.0,0.0,0.0,0.0,0.0,0.0,0.0,0.0,0.0,0.0,0.0,0.0,0.0,0.0,0.0,0.0,0.0,0.0,0.0,0.0,0.0,0.0,0.0,0.0,0.0,0.0,0.0,0.0,0.0,0.0,0.0,0.0,0.0,0.0,0.0,0.0,0.0,0.0,0.0,0.0,0.0,0.0,0.0,0.0,0.0,0.0,0.0,0.0,0.0,0.0,0.0,0.0,0.0,0.0,0.0,0.0,0.0,0.0,0.0,0.0,0.0,0.0,0.0,0.0,0.0,0.0,0.0,0.0,0.0,0.0,0.0,0.0,0.0,0.0,0.0,0.0,0.0,0.0,0.0,0.0,0.0,0.0,0.0,0.0,0.0,0.0,0.0,0.0,0.0,0.0,0.0,0.0,0.0,0.0,0.0,0.0,0.0,0.0,0.0,0.0,0.0,0.0,0.0,0.0,0.0,0.0,0.0,0.0,0.0,0.0,0.0,0.0,0.0,0.0,0.0,0.0,0.0,0.0,0.0,0.0,0.0,0.0,0.0,0.0,0.0,0.0,0.0,0.0,0.0,0.0,0.0,0.0,0.0,0.0,0.0,0.0,0.0,0.0,0.0,0.0,0.0,0.0,0.0,0.0,0.0,0.0,0.0,0.0,0.0,0.0,0.0,0.0,0.0,0.0,0.0,0.0,0.0,0.0,0.0,0.0,0.0,0.0,0.0,0.0,0.0,0.0,0.0,0.0,0.0,0.0,0.0,0.0,0.0,0.0,0.0,0.0,0.0,0.0,0.0,0.0,0.0,0.0,0.0,0.0,0.0,0.0,0.0,0.0,0.0,0.0,0.0,0.0,0.0,0.0,0.0,0.0,0.0,0.0,0.0,0.0,0.0,0.0,0.0,0.0,0.0,0.0,0.0,0.0,0.0,0.0,0.0,0.0,0.0,0.0,0.0,0.0,0.0,0.0,0.0,0.0,0.0,0.0,0.0,0.0,0.0,0.0,0.0,0.0,0.0,0.0,0.0,0.0,0.0,0.0,0.0,0.0,0.0,0.0,0.0,0.0,0.0,0.0,0.0,0.0,0.0,0.0,0.0,0.0,0.0,0.0,0.0,0.0,0.0,0.0,0.0,0.0,0.0,0.0,0.0,0.0,0.0,0.0,0.0,0.0,0.0,0.0,0.0,0.0,0.0,0.0,0.0,0.0,0.0,0.0,0.0,0.0,-0.0897,0.0,0.0,0.0,0.0,0.0,0.0,0.0,0.0,0.0,0.0,0.0,0.0,0.0,0.0,0.0,0.0,0.0,0.0,0.0,0.0,0.0,0.0,0.0,0.0,0.0,0.0,0.0,0.0,0.0,0.0,0.0,0.0,0.0,0.0,0.0,0.0,0.0,0.0,0.0,0.0,0.0,0.0,0.0,0.0,0.0,0.0,0.0,0.0,0.0,0.0,0.0,0.0,0.0,0.0,0.0,0.0,0.0,0.0,0.0,0.0,0.0,0.0,0.0,0.0,0.0,0.0,0.0,0.0,0.0,0.0,0.0,0.0,0.0,0.0,0.0,0.0,0.0,0.0,0.0,0.0,0.0,0.0,0.0,0.0,0.0,0.0,0.0,0.0,0.0,0.0,0.0,0.0,0.0,0.0,0.0,0.0,0.0,0.0,0.0,0.0,0.0,0.0,0.0,0.0,0.0,0.0,0.0,0.0,0.0,0.0,-0.0897,-0.0897,-0.0897,-0.0897,-0.0897,0.0,0.0,0.0,0.0,0.0,0.0,0.0,0.0,0.0,0.0,0.0,0.0,0.0,0.0,0.0,0.0,0.0,0.0,0.0,0.0,0.0,0.0,0.0,0.0,0.0,0.0,0.0,0.0,0.0,0.0,0.0,0.0,0.0,0.0,0.0,0.0,0.0,0.0,0.0,0.0,0.0,0.0,0.0,0.0,0.0,0.0,0.0,0.0,0.0,0.0,0.0,0.0,0.0,0.0,0.0,0.0,0.0,0.0,0.0,0.0,0.0,0.0,0.0,0.0,0.0,0.0,0.0,0.0,0.0,0.0,0.0,0.0,0.0,0.0,0.0,0.0,0.0,0.0,0.0,0.0,0.0,0.0,0.0,0.0,0.0,0.0,0.0,0.0,0.0,0.0,0.0,0.0,0.0,0.0,0.0,0.0,0.0,0.0,0.0,0.0,0.0,0.0,0.0,0.0,0.0,0.0,0.0,0.0,0.0,0.0,0.0,0.0,-0.0897,-0.0897,-0.0897,0.0,0.0,0.0,0.0,0.0,0.0,0.0,0.0,0.0,0.0,0.0,0.0,0.0,0.0,0.0,0.0,0.0,0.0,0.0,0.0,0.0,0.0,0.0,0.0,0.0,0.0,0.0,0.0,0.0,0.0,0.0,0.0,0.0,0.0,0.0,0.0,0.0,0.0,0.0,0.0,0.0,0.0,0.0,0.0,0.0,0.0,0.0,0.0,0.0,0.0,0.0,0.0,0.0,0.0,0.0,0.0,0.0,0.0,0.0,0.0,0.0,0.0,0.0,0.0,0.0,0.0,0.0,0.0,0.0,0.0,0.0,0.0,0.0,0.0,0.0,0.0,0.0,0.0,0.0,0.0,0.0,0.0,0.0,0.0,0.0,0.0,0.0,0.0,0.0,0.0,0.0,0.0,0.0,0.0,0.0,0.0,0.0,0.0,0.0,0.0,0.0,0.0,0.0,0.0,0.0,0.0,0.0,0.0,0.0,0.0,-0.0897,-0.0897,-0.0897,0.0,-0.0897,0.0,0.0,0.0,0.0,0.0,0.0,0.0,0.0,0.0,0.0,0.0,0.0,0.0,0.0,0.0,0.0,0.0,0.0,0.0,0.0,0.0,0.0,0.0,0.0,0.0,0.0,0.0,0.0,0.0,0.0,0.0,0.0,0.0,0.0,0.0,0.0,0.0,0.0,0.0,0.0,0.0,0.0,0.0,0.0,0.0,0.0,0.0,0.0,0.0,0.0,0.0,0.0,0.0,0.0,0.0,0.0,0.0,0.0,0.0,0.0,0.0,0.0,0.0,0.0,0.0,0.0,0.0,0.0,0.0,0.0,0.0,0.0,0.0,0.0,0.0,0.0,0.0,0.0,0.0,0.0,0.0,0.0,0.0,0.0,0.0,0.0,0.0,0.0,0.0,0.0,0.0,0.0,0.0,0.0,0.0,0.0,0.0,0.0,0.0,0.0,0.0,0.0,0.0,0.0,0.0,0.0,0.0,0.0,0.0,0.0,-0.0867,-0.0867,-0.0867,-0.0859,0.0,0.0,0.0,0.0,0.0,0.0,0.0,0.0,0.0,0.0,0.0,0.0,0.0,0.0,0.0,0.0,0.0,0.0,0.0,0.0,0.0,0.0,0.0,0.0,0.0,0.0,0.0,0.0,0.0,0.0,0.0,0.0,0.0,0.0,0.0,0.0,0.0,0.0,0.0,0.0,0.0,0.0,0.0,0.0,0.0,0.0,0.0,0.0,0.0,0.0,0.0,0.0,0.0,0.0,0.0,0.0,0.0,0.0,0.0,0.0,0.0,0.0,0.0,0.0,0.0,0.0,0.0,0.0,0.0,0.0,0.0,0.0,0.0,0.0,0.0,0.0,0.0,0.0,0.0,0.0,0.0,0.0,0.0,0.0,0.0,0.0,0.0,0.0,0.0,0.0,0.0,0.0,0.0,0.0,0.0,0.0,0.0,0.0,0.0,0.0,0.0,0.0,0.0,0.0,0.0,0.0,0.0,0.0,0.0,0.0,-0.0873,-0.0884,-0.0884,-0.0884,-0.087,-0.0898,0.0,0.0,0.0,0.0,0.0,0.0,0.0,0.0,0.0,0.0,0.0,0.0,0.0,0.0,0.0,0.0,0.0,0.0,0.0,0.0,0.0,0.0,0.0,0.0,0.0,0.0,0.0,0.0,0.0,0.0,0.0,0.0,0.0,0.0,0.0,0.0,0.0,0.0,0.0,0.0,0.0,0.0,0.0,0.0,0.0,0.0,0.0,0.0,0.0,0.0,0.0,0.0,0.0,0.0,0.0,0.0,0.0,0.0,0.0,0.0,0.0,0.0,0.0,0.0,0.0,0.0,0.0,0.0,0.0,0.0,0.0,0.0,0.0,0.0,0.0,0.0,0.0,0.0,0.0,0.0,0.0,0.0,0.0,0.0,0.0,0.0,0.0,0.0,0.0,0.0,0.0,0.0,0.0,0.0,0.0,0.0,0.0,0.0,0.0,0.0,0.0,0.0,0.0,0.0,0.0,0.0,0.0,0.0,-0.0879,-0.0883,-0.0884,-0.0884,-0.0884,-0.087,0.0,0.0,0.0,0.0,0.0,0.0,0.0,0.0,0.0,0.0,0.0,0.0,0.0,0.0,0.0,0.0,0.0,0.0,0.0,0.0,0.0,0.0,0.0,0.0,0.0,0.0,0.0,0.0,0.0,0.0,0.0,0.0,0.0,0.0,0.0,0.0,0.0,0.0,0.0,0.0,0.0,0.0,0.0,0.0,0.0,0.0,0.0,0.0,0.0,0.0,0.0,0.0,0.0,0.0,0.0,0.0,0.0,0.0,0.0,0.0,0.0,0.0,0.0,0.0,0.0,0.0,0.0,0.0,0.0,0.0,0.0,0.0,0.0,0.0,0.0,0.0,0.0,0.0,0.0,0.0,0.0,0.0,0.0,0.0,0.0,0.0,0.0,0.0,0.0,0.0,0.0,0.0,0.0,0.0,0.0,0.0,0.0,0.0,0.0,0.0,0.0,0.0,0.0,0.0,0.0,0.0,0.0,0.0,0.0,-0.0913,-0.0952,-0.0972,-0.0972,-0.0972,-0.0949,0.0,0.0,0.0,0.0,0.0,0.0,0.0,0.0,0.0,0.0,0.0,0.0,0.0,0.0,0.0,0.0,0.0,0.0,0.0,0.0,0.0,0.0,0.0,0.0,0.0,0.0,0.0,0.0,0.0,0.0,0.0,0.0,0.0,0.0,0.0,0.0,0.0,0.0,0.0,0.0,0.0,0.0,0.0,0.0,0.0,0.0,0.0,0.0,0.0,0.0,0.0,0.0,0.0,0.0,0.0,0.0,0.0,0.0,0.0,0.0,0.0,0.0,0.0,0.0,0.0,0.0,0.0,0.0,0.0,0.0,0.0,0.0,0.0,0.0,0.0,0.0,0.0,0.0,0.0,0.0,0.0,0.0,0.0,0.0,0.0,0.0,0.0,0.0,0.0,0.0,0.0,0.0,0.0,0.0,0.0,0.0,0.0,0.0,0.0,0.0,0.0,0.0,0.0,0.0,0.0,0.0,0.0,0.0,0.0,-0.0927,0.0,-0.1022,-0.1003,-0.1003,-0.0975,0.0,0.0,0.0,0.0,0.0,0.0,0.0,0.0,0.0,0.0,0.0,0.0,0.0,0.0,0.0,0.0,0.0,0.0,0.0,0.0,0.0,0.0,0.0,0.0,0.0,0.0,0.0,0.0,0.0,0.0,0.0,0.0,0.0,0.0,0.0,0.0,0.0,0.0,0.0,0.0,0.0,0.0,0.0,0.0,0.0,0.0,0.0,0.0,0.0,0.0,0.0,0.0,0.0,0.0,0.0,0.0,0.0,0.0,0.0,0.0,0.0,0.0,0.0,0.0,0.0,0.0,0.0,0.0,0.0,0.0,0.0,0.0,0.0,0.0,0.0,0.0,0.0,0.0,0.0,0.0,0.0,0.0,0.0,0.0,0.0,0.0,0.0,0.0,0.0,0.0,0.0,0.0,0.0,0.0,0.0,0.0,0.0,0.0,0.0,0.0,0.0,0.0,0.0,0.0,0.0,0.0,0.0,0.0,-0.093,-0.099,-0.1074,-0.1091,-0.1037,-0.1035,-0.0942,0.0,0.0,0.0,0.0,0.0,0.0,0.0,0.0,0.0,0.0,0.0,0.0,0.0,0.0,0.0,0.0,0.0,0.0,0.0,0.0,0.0,0.0,0.0,0.0,0.0,0.0,0.0,0.0,0.0,0.0,0.0,0.0,0.0,0.0,0.0,0.0,0.0,0.0,0.0,0.0,0.0,0.0,0.0,0.0,0.0,0.0,0.0,0.0,0.0,0.0,0.0,0.0,0.0,0.0,0.0,0.0,0.0,0.0,0.0,0.0,0.0,0.0,0.0,0.0,0.0,0.0,0.0,0.0,0.0,0.0,0.0,0.0,0.0,0.0,0.0,0.0,0.0,0.0,0.0,0.0,0.0,0.0,0.0,0.0,0.0,0.0,0.0,0.0,0.0,0.0,0.0,0.0,0.0,0.0,0.0,0.0,0.0,0.0,0.0,0.0,0.0,0.0,0.0,0.0,0.0,0.0,0.0,0.0,0.0,-0.1011,-0.1038,-0.1122,-0.1123,-0.1085,-0.1036,0.0,0.0,0.0,0.0,0.0,0.0,0.0,0.0,0.0,0.0,0.0,0.0,0.0,0.0,0.0,0.0,0.0,0.0,0.0,0.0,0.0,0.0,0.0,0.0,0.0,0.0,0.0,0.0,0.0,0.0,0.0,0.0,0.0,0.0,0.0,0.0,0.0,0.0,0.0,0.0,0.0,0.0,0.0,0.0,0.0,0.0,0.0,0.0,0.0,0.0,0.0,0.0,0.0,0.0,0.0,0.0,0.0,0.0,0.0,0.0,0.0,0.0,0.0,0.0,0.0,0.0,0.0,0.0,0.0,0.0,0.0,0.0,0.0,0.0,0.0,0.0,0.0,0.0,0.0,0.0,0.0,0.0,0.0,0.0,0.0,0.0,0.0,0.0,0.0,0.0,0.0,0.0,0.0,0.0,0.0,0.0,0.0,0.0,0.0,0.0,0.0,0.0,0.0,0.0,0.0,0.0,0.0,0.0,0.0,-0.0838,-0.0832,-0.0903,-0.0975,-0.1081,-0.1089,-0.1009,0.0,0.0,0.0,0.0,0.0,0.0,0.0,0.0,0.0,0.0,0.0,0.0,0.0,0.0,0.0,0.0,0.0,0.0,0.0,0.0,0.0,0.0,0.0,0.0,0.0,0.0,0.0,0.0,0.0,0.0,0.0,0.0,0.0,0.0,0.0,0.0,0.0,0.0,0.0,0.0,0.0,0.0,0.0,0.0,0.0,0.0,0.0,0.0,0.0,0.0,0.0,0.0,0.0,0.0,0.0,0.0,0.0,0.0,0.0,0.0,0.0,0.0,0.0,0.0,0.0,0.0,0.0,0.0,0.0,0.0,0.0,0.0,0.0,0.0,0.0,0.0,0.0,0.0,0.0,0.0,0.0,0.0,0.0,0.0,0.0,0.0,0.0,0.0,0.0,0.0,0.0,0.0,0.0,0.0,0.0,0.0,0.0,0.0,0.0,0.0,0.0,0.0,0.0,0.0,0.0,0.0,0.0,0.0,-0.0523,-0.0515,-0.05,-0.0477,-0.0926,-0.1089,0.0,0.0,0.0,0.0,0.0,0.0,0.0,0.0,0.0,0.0,0.0,0.0,0.0,0.0,0.0,0.0,0.0,0.0,0.0,0.0,0.0,0.0,0.0,0.0,0.0,0.0,0.0,0.0,0.0,0.0,0.0,0.0,0.0,0.0,0.0,0.0,0.0,0.0,0.0,0.0,0.0,0.0,0.0,0.0,0.0,0.0,0.0,0.0,0.0,0.0,0.0,0.0,0.0,0.0,0.0,0.0,0.0,0.0,0.0,0.0,0.0,0.0,0.0,0.0,0.0,0.0,0.0,0.0,0.0,0.0,0.0,0.0,0.0,0.0,0.0,0.0,0.0,0.0,0.0,0.0,0.0,0.0,0.0,0.0,0.0,0.0,0.0,0.0,0.0,0.0,0.0,0.0,0.0,0.0,0.0,0.0,0.0,0.0,0.0,0.0,0.0,0.0,0.0,0.0,0.0,0.0,0.0,0.0,0.0,-0.1243,-0.094,-0.0565,-0.0178,-0.0498,-0.0847,0.0,0.0,0.0,0.0,0.0,0.0,0.0,0.0,0.0,0.0,0.0,0.0,0.0,0.0,0.0,0.0,0.0,0.0,0.0,0.0,0.0,0.0,0.0,0.0,0.0,0.0,0.0,0.0,0.0,0.0,0.0,0.0,0.0,0.0,0.0,0.0,0.0,0.0,0.0,0.0,0.0,0.0,0.0,0.0,0.0,0.0,0.0,0.0,0.0,0.0,0.0,0.0,0.0,0.0,0.0,0.0,0.0,0.0,0.0,0.0,0.0,0.0,0.0,0.0,0.0,0.0,0.0,0.0,0.0,0.0,0.0,0.0,0.0,0.0,0.0,0.0,0.0,0.0,0.0,0.0,0.0,0.0,0.0,0.0,0.0,0.0,0.0,0.0,0.0,0.0,0.0,0.0,0.0,0.0,0.0,0.0,0.0,0.0,0.0,0.0,0.0,0.0,0.0,0.0,0.0,0.0,0.0,0.0,-0.1391,-0.1509,-0.1415,-0.1132,-0.0797,-0.0901,-0.0978,0.0,0.0,0.0,0.0,0.0,0.0,0.0,0.0,0.0,0.0,0.0,0.0,0.0,0.0,0.0,0.0,0.0,0.0,0.0,0.0,0.0,0.0,0.0,0.0,0.0,0.0,0.0,0.0,0.0,0.0,0.0,0.0,0.0,0.0,0.0,0.0,0.0,0.0,0.0,0.0,0.0,0.0,0.0,0.0,0.0,0.0,0.0,0.0,0.0,0.0,0.0,0.0,0.0,0.0,0.0,0.0,0.0,0.0,0.0,0.0,0.0,0.0,0.0,0.0,0.0,0.0,0.0,0.0,0.0,0.0,0.0,0.0,0.0,0.0,0.0,0.0,0.0,0.0,0.0,0.0,0.0,0.0,0.0,0.0,0.0,0.0,0.0,0.0,0.0,0.0,0.0,0.0,0.0,0.0,0.0,0.0,0.0,0.0,0.0,0.0,0.0,0.0,0.0,0.0,0.0,0.0,0.0,0.0,-0.1495,-0.162,-0.1708,-0.1755,-0.1749,-0.1557,-0.138,0.0,0.0,0.0,0.0,0.0,0.0,0.0,0.0,0.0,0.0,0.0,0.0,0.0,0.0,0.0,0.0,0.0,0.0,0.0,0.0,0.0,0.0,0.0,0.0,0.0,0.0,0.0,0.0,0.0,0.0,0.0,0.0,0.0,0.0,0.0,0.0,0.0,0.0,0.0,0.0,0.0,0.0,0.0,0.0,0.0,0.0,0.0,0.0,0.0,0.0,0.0,0.0,0.0,0.0,0.0,0.0,0.0,0.0,0.0,0.0,0.0,0.0,0.0,0.0,0.0,0.0,0.0,0.0,0.0,0.0,0.0,0.0,0.0,0.0,0.0,0.0,0.0,0.0,0.0,0.0,0.0,0.0,0.0,0.0,0.0,0.0,0.0,0.0,0.0,0.0,0.0,0.0,0.0,0.0,0.0,0.0,0.0,0.0,0.0,0.0,0.0,0.0,0.0,0.0,0.0,0.0,0.0,0.0,-0.1505,-0.165,-0.174,-0.1786,-0.1785,-0.1628,-0.1472,0.0,0.0,0.0,0.0,0.0,0.0,0.0,0.0,0.0,0.0,0.0,0.0,0.0,0.0,0.0,0.0,0.0,0.0,0.0,0.0,0.0,0.0,0.0,0.0,0.0,0.0,0.0,0.0,0.0,0.0,0.0,0.0,0.0,0.0,0.0,0.0,0.0,0.0,0.0,0.0,0.0,0.0,0.0,0.0,0.0,0.0,0.0,0.0,-0.5529,0.0,0.0,0.0,0.0,0.0,0.0,0.0,0.0,0.0,0.0,0.0,0.0,0.0,0.0,0.0,0.0,0.0,0.0,0.0,0.0,0.0,0.0,0.0,0.0,0.0,0.0,0.0,0.0,0.0,0.0,0.0,0.0,0.0,0.0,0.0,0.0,0.0,0.0,0.0,0.0,0.0,0.0,0.0,0.0,0.0,0.0,0.0,0.0,0.0,0.0,0.0,0.0,0.0,0.0,0.0,0.0,0.0,0.0,0.0,-0.1551,-0.17,-0.1778,-0.1823,-0.1832,-0.1693,-0.1536,0.0,0.0,0.0,0.0,0.0,0.0,0.0,0.0,0.0,0.0,0.0,0.0,0.0,0.0,0.0,0.0,0.0,0.0,0.0,0.0,0.0,0.0,0.0,0.0,0.0,0.0,0.0,0.0,0.0,0.0,0.0,0.0,0.0,0.0,0.0,0.0,0.0,0.0,0.0,0.0,0.0,0.0,0.0,0.0,0.0,0.0,0.0,0.0,0.0,0.0,0.0,0.0,0.0,0.0,0.0,0.0,0.0,0.0,0.0,0.0,0.0,0.0,0.0,0.0,0.0,0.0,0.0,0.0,0.0,0.0,0.0,0.0,0.0,0.0,0.0,0.0,0.0,0.0,0.0,0.0,0.0,0.0,0.0,0.0,0.0,0.0,0.0,0.0,0.0,0.0,0.0,0.0,0.0,0.0,0.0,0.0,0.0,0.0,0.0,0.0,0.0,0.0,0.0,0.0,0.0,0.0,0.0,-0.144,-0.16,-0.175,-0.1812,-0.1853,-0.1874,-0.1734,-0.1572,-0.1309,0.0,0.0,0.0,0.0,0.0,0.0,0.0,0.0,0.0,0.0,0.0,0.0,0.0,0.0,0.0,0.0,0.0,0.0,0.0,0.0,0.0,0.0,0.0,0.0,0.0,0.0,0.0,0.0,0.0,0.0,0.0,0.0,0.0,0.0,0.0,0.0,0.0,0.0,-0.4736,-0.515,0.0,0.0,0.0,0.0,0.0,0.0,0.0,0.0,-0.5474,0.0,0.0,0.0,0.0,0.0,0.0,0.0,0.0,0.0,0.0,0.0,0.0,0.0,0.0,0.0,0.0,0.0,0.0,0.0,0.0,0.0,0.0,0.0,0.0,0.0,0.0,0.0,0.0,0.0,0.0,0.0,0.0,0.0,0.0,0.0,0.0,0.0,0.0,0.0,0.0,0.0,0.0,0.0,0.0,0.0,0.0,0.0,0.0,0.0,0.0,0.0,0.0,0.0,0.0,0.0,0.0,-0.1332,-0.146,-0.1611,-0.1783,-0.1823,-0.1843,-0.1844,-0.1809,-0.1454,-0.1048,0.0,0.0,0.0,0.0,0.0,0.0,0.0,0.0,0.0,0.0,0.0,0.0,0.0,0.0,0.0,0.0,0.0,0.0,0.0,0.0,0.0,0.0,0.0,0.0,0.0,0.0,0.0,0.0,0.0,0.0,0.0,0.0,0.0,0.0,0.0,0.0,0.0,0.0,0.0,-0.5416,-0.5669,0.0,0.0,0.0,0.0,0.0,0.0,0.0,0.0,-0.5574,0.0,0.0,0.0,0.0,0.0,0.0,0.0,0.0,0.0,0.0,0.0,0.0,0.0,0.0,0.0,0.0,0.0,0.0,0.0,0.0,0.0,0.0,0.0,0.0,0.0,0.0,0.0,0.0,0.0,0.0,0.0,0.0,0.0,0.0,0.0,0.0,0.0,0.0,0.0,0.0,0.0,0.0,0.0,0.0,0.0,0.0,0.0,0.0,0.0,0.0,0.0,0.0,0.0,0.0,0.0,-0.1259,-0.1374,-0.1513,-0.1787,-0.1809,-0.1824,-0.1836,-0.1784,-0.1531,0.0,0.0,0.0,0.0,0.0,0.0,0.0,0.0,0.0,0.0,0.0,0.0,0.0,0.0,0.0,0.0,0.0,0.0,0.0,0.0,0.0,0.0,0.0,0.0,0.0,0.0,0.0,0.0,0.0,0.0,0.0,0.0,0.0,0.0,0.0,0.0,0.0,0.0,0.0,0.0,-0.562,-0.5743,-0.589,0.0,0.0,0.0,0.0,0.0,0.0,-0.5358,-0.5173,0.0,0.0,0.0,0.0,0.0,0.0,0.0,0.0,0.0,0.0,0.0,0.0,0.0,0.0,0.0,0.0,0.0,0.0,0.0,0.0,0.0,0.0,0.0,0.0,0.0,0.0,0.0,0.0,0.0,0.0,0.0,0.0,0.0,0.0,0.0,0.0,0.0,0.0,0.0,0.0,0.0,0.0,0.0,0.0,0.0,0.0,0.0,0.0,0.0,0.0,0.0,0.0,0.0,0.0,0.0,-0.1269,-0.1383,-0.1416,-0.1338,-0.1458,-0.1578,-0.159,-0.1447,-0.1224,0.0,0.0,0.0,0.0,0.0,0.0,0.0,0.0,0.0,0.0,0.0,0.0,0.0,0.0,0.0,0.0,0.0,0.0,0.0,0.0,0.0,0.0,0.0,0.0,0.0,0.0,0.0,0.0,0.0,0.0,0.0,0.0,0.0,0.0,0.0,0.0,0.0,0.0,0.0,0.0,0.0,-0.5629,-0.5756,-0.5712,0.0,0.0,0.0,0.0,-0.5197,-0.4929,0.0,0.0,0.0,0.0,0.0,0.0,0.0,0.0,0.0,0.0,0.0,0.0,0.0,0.0,0.0,0.0,0.0,0.0,0.0,0.0,0.0,0.0,0.0,0.0,0.0,0.0,0.0,0.0,0.0,0.0,0.0,0.0,0.0,0.0,0.0,0.0,0.0,0.0,0.0,0.0,0.0,0.0,0.0,0.0,0.0,0.0,0.0,0.0,0.0,0.0,0.0,0.0,0.0,0.0,0.0,0.0,-0.1299,-0.1412,-0.1025,-0.0112,-0.0224,-0.0223,-0.033,-0.0403,-0.0184,0.0,0.0,0.0,0.0,0.0,0.0,0.0,0.0,0.0,0.0,0.0,0.0,0.0,0.0,0.0,0.0,0.0,0.0,0.0,0.0,0.0,0.0,0.0,0.0,0.0,0.0,0.0,0.0,0.0,0.0,0.0,0.0,0.0,0.0,0.0,0.0,0.0,0.0,0.0,0.0,0.0,-0.5378,-0.5313,-0.5145,-0.507,0.0,0.0,-0.5551,-0.5079,-0.4736,0.0,0.0,0.0,0.0,0.0,0.0,0.0,0.0,0.0,0.0,0.0,0.0,0.0,0.0,0.0,0.0,0.0,0.0,0.0,0.0,0.0,0.0,0.0,0.0,0.0,0.0,0.0,0.0,0.0,0.0,0.0,0.0,0.0,0.0,0.0,0.0,0.0,0.0,0.0,0.0,0.0,0.0,0.0,0.0,0.0,0.0,0.0,0.0,0.0,0.0,0.0,0.0,0.0,0.0,0.0,-0.1211,-0.1304,-0.0755,0.0308,0.2012,0.1682,0.1447,0.1421,0.1203,0.1102,0.0,0.0,0.0,0.0,0.0,0.0,0.0,0.0,0.0,0.0,0.0,0.0,0.0,0.0,0.0,0.0,0.0,0.0,0.0,0.0,0.0,0.0,0.0,0.0,0.0,0.0,0.0,0.0,0.0,0.0,0.0,0.0,0.0,0.0,0.0,0.0,0.0,0.0,0.0,0.0,0.0,0.0,-0.5147,-0.4873,0.0,0.0,0.0,-0.5018,-0.4514,0.0,0.0,0.0,0.0,0.0,0.0,0.0,0.0,0.0,0.0,0.0,0.0,0.0,0.0,0.0,0.0,0.0,0.0,0.0,0.0,0.0,0.0,0.0,0.0,0.0,0.0,0.0,0.0,0.0,0.0,0.0,0.0,0.0,0.0,0.0,0.0,0.0,0.0,0.0,0.0,0.0,0.0,0.0,0.0,0.0,0.0,0.0,0.0,0.0,0.0,0.0,0.0,0.0,0.0,0.0,0.0,0.0,-0.0876,-0.0,0.1341,0.3245,0.3031,0.2888,0.2607,0.24,0.0,0.0,0.0,0.0,0.0,0.0,0.0,0.0,0.0,0.0,0.0,0.0,0.0,0.0,0.0,0.0,0.0,0.0,0.0,0.0,0.0,0.0,0.0,0.0,0.0,0.0,0.0,0.0,0.0,0.0,0.0,0.0,0.0,0.0,0.0,0.0,0.0,0.0,0.0,0.0,0.0,0.0,-0.478,-0.4738,-0.4368,-0.4232,0.0,0.0,-0.4477,-0.3914,-0.3587,-0.3456,0.0,0.0,0.0,0.0,0.0,0.0,0.0,0.0,0.0,0.0,0.0,0.0,0.0,0.0,0.0,0.0,0.0,0.0,0.0,0.0,0.0,0.0,0.0,0.0,0.0,0.0,0.0,0.0,0.0,0.0,0.0,0.0,0.0,0.0,0.0,0.0,0.0,0.0,0.0,0.0,0.0,0.0,0.0,0.0,0.0,0.0,0.0,0.0,0.0,0.0,0.0,0.0,0.0,0.0,0.0,0.0268,0.0776,0.1463,0.2461,0.3141,0.3314,0.299,0.2781,0.2571,0.0,0.0,0.0,0.0,0.0,0.0,0.0,0.0,0.0,0.0,0.0,0.0,0.0,0.0,0.0,0.0,0.0,0.0,0.0,0.0,0.0,0.0,0.0,0.0,0.0,0.0,0.0,0.0,0.0,0.0,0.0,0.0,0.0,0.0,0.0,0.0,0.0,0.0,0.0,0.0,0.0,-0.4259,-0.3702,-0.3566,-0.3458,0.0,0.0,-0.4193,-0.3324,-0.2446,-0.2245,-0.3045,0.0,0.0,0.0,0.0,0.0,0.0,0.0,0.0,0.0,0.0,0.0,0.0,0.0,0.0,0.0,0.0,0.0,0.0,0.0,0.0,0.0,0.0,0.0,0.0,0.0,0.0,0.0,0.0,0.0,0.0,0.0,0.0,0.0,0.0,0.0,0.0,0.0,0.0,0.0,0.0,0.0,0.0,0.0,0.0,0.0,0.0,0.0,0.0,0.0,0.0,0.0,0.0,0.0,0.0,0.0627,0.1262,0.2197,0.3466,0.3701,0.3862,0.384,0.351,0.3344,0.0,0.0,0.0,0.0,0.0,0.0,0.0,0.0,0.0,0.0,0.0,0.0,0.0,0.0,0.0,0.0,0.0,0.0,0.0,0.0,0.0,0.0,0.0,0.0,0.0,0.0,0.0,0.0,-0.0957,-0.1088,-0.1236,0.0,0.0,0.0,0.0,0.0,0.0,0.0,0.0,0.0,0.0,-0.3684,-0.3507,-0.329,0.0,0.0,-0.3222,-0.3231,-0.2761,-0.2205,-0.1892,-0.2243,-0.2481,0.0,0.0,0.0,0.0,0.0,0.0,0.0,0.0,0.0,0.0,0.0,0.0,0.0,0.0,0.0,0.0,0.0,0.0,0.0,0.0,0.0,0.0,0.0,0.0,0.0,0.0,0.0,0.0,0.0,0.0,0.0,0.0,0.0,0.0,0.0,0.0,0.0,0.0,0.0,0.0,0.0,0.0,0.0,0.0,0.0,0.0,0.0,0.0,0.0,0.0,0.0,0.0,0.103,0.1537,0.2142,0.303,0.4254,0.4372,0.4412,0.4578,0.434,0.3942,0.0,0.0,0.0,0.0,0.0,0.0,0.0,0.0,0.0,0.0,0.0,0.0,0.0,0.0,0.0,0.0,0.0,0.0,0.0,0.0,0.0,0.0,0.0,0.0,0.0,0.0,0.0,0.0,-0.0954,-0.1097,-0.1191,0.0,0.0,0.0,0.0,0.0,0.0,0.0,0.0,0.0,0.0,-0.3183,-0.3075,-0.2819,-0.2648,-0.2583,-0.2578,-0.2569,-0.2328,-0.2138,-0.1944,-0.1871,0.0,0.0,0.0,0.0,0.0,0.0,0.0,0.0,0.0,0.0,0.0,0.0,0.0,0.0,0.0,0.0,0.0,0.0,0.0,0.0,0.0,0.0,0.0,0.0,0.0,0.0,0.0,0.0,0.0,0.0,-0.0405,0.0,0.0,0.0,0.0,0.0,0.0,0.0,0.0,0.0,0.0,0.0,0.0,0.0,0.0,0.0,0.0,0.0,0.0,0.0,0.0,0.0,0.0,0.0,0.3135,0.3531,0.408,0.447,0.5039,0.5288,0.5112,0.4847,0.4532,0.3913,0.0,0.0,0.0,0.0,0.0,0.0,0.0,0.0,0.0,0.0,0.0,0.0,0.0,0.0,0.0,0.0,0.0,0.0,0.0,0.0,0.0,0.0,0.0,0.0,0.0,0.0,-0.0907,-0.0934,-0.0909,0.0,0.0,0.0,0.0,0.0,0.0,0.0,0.0,0.0,0.0,-0.276,-0.2766,-0.2292,-0.2394,-0.2341,-0.21,-0.1999,-0.1996,-0.1943,-0.1906,-0.197,0.0,0.0,0.0,0.0,0.0,0.0,0.0,0.0,0.0,0.0,0.0,0.0,0.0,0.0,0.0,0.0,0.0,0.0,0.0,0.0,0.0,0.0,0.0,0.0,0.0,0.0,0.0,0.1715,0.17,0.0,0.0,0.0,0.0,0.0,0.0,0.0,0.0,0.0,0.0,0.0,0.1608,0.1715,0.0,0.0,0.0,0.0,0.0,0.0,0.0,0.0,0.0,0.0,0.0,0.0,0.2884,0.3687,0.4164,0.4755,0.5361,0.5596,0.5647,0.5521,0.5093,0.463,0.384,0.0,0.0,0.0,0.0,0.0,0.0,0.0,0.0,0.0,0.0,0.0,0.0,0.0,0.0,0.0,0.0,0.0,0.0,0.0,0.0,0.0,0.0,0.0,0.0,0.0,-0.092,0.0,0.0,0.0,0.0,0.0,0.0,0.0,0.0,0.0,0.0,0.0,-0.2272,-0.2374,-0.2449,-0.2385,-0.2394,-0.2199,-0.2106,0.0,0.0,0.0,0.0,0.0,0.0,0.0,0.0,0.0,0.0,0.0,0.0,0.0,0.0,-0.2948,-0.3728,-0.4199,-0.4602,-0.4835,0.0,0.0,0.0,0.0,0.0,0.0,0.0,0.0,0.0,0.0,0.0,0.0,0.0,0.0,0.0,0.0,0.1601,0.0,0.0,0.0,0.0,0.0,0.0,0.0,0.0,0.1929,0.2268,0.2555,0.2679,0.2849,0.0,0.3411,0.3137,0.0,0.0,0.0,0.0,0.0,0.0,0.0,0.0,0.3482,0.4328,0.4718,0.5316,0.6028,0.6047,0.5886,0.5782,0.5214,0.463,0.3929,0.3557,0.3172,0.0,0.0,0.0,0.0,0.0,0.0,0.0,0.0,0.0,0.0,0.0,0.0,0.0,0.0,0.0,0.0,0.0,0.0,0.0,0.0,0.0,0.0,0.0,-0.0971,0.0,0.0,0.0,0.0,0.0,0.0,0.0,0.0,0.0,-0.1649,-0.1779,-0.2031,-0.2197,-0.2101,-0.2092,-0.219,0.0,0.0,0.0,0.0,0.0,0.0,0.0,-0.1951,-0.1922,-0.2021,-0.2113,-0.208,-0.2055,-0.2166,-0.2317,0.0,0.0,-0.3207,-0.3635,-0.3894,-0.4164,-0.4403,-0.4459,-0.4205,-0.4299,-0.4279,0.0,0.0,0.0,0.0,0.0,0.0,0.0,0.0,0.2821,0.2941,0.0,0.2289,0.0,0.0,0.0,0.0,0.0,0.0869,0.0,0.0,0.2511,0.2798,0.3239,0.3254,0.3344,0.3529,0.3714,0.3774,0.3531,0.2927,0.0,0.0,0.0,0.0,0.0,0.0,0.4086,0.5183,0.5399,0.5854,0.6589,0.6386,0.6222,0.5995,0.5107,0.4557,0.4206,0.3843,0.3549,0.3304,0.2646,0.0,0.0,0.0,0.0,0.0,0.0,0.0,0.0,0.0,0.0,0.0,0.0,0.0,0.0,0.0,0.0,0.0,0.0,0.0,0.0,-0.1036,0.0,0.0,0.0,0.0,0.0,0.0,0.0,0.0,0.0,0.0,-0.1448,-0.1549,-0.1654,-0.1742,0.0,0.0,0.0,0.0,-0.202,-0.202,-0.2045,-0.2053,-0.2024,-0.202,-0.2136,-0.1985,0.0,0.0,-0.2018,-0.202,-0.2026,-0.2057,-0.2012,-0.2175,-0.2796,-0.3079,-0.3273,-0.3441,-0.3625,-0.3703,-0.3608,-0.3569,-0.3528,0.5194,0.0,0.0,0.0,0.0,0.4151,0.3878,0.351,0.3634,0.3871,0.4142,0.3234,0.0,0.0,0.0,0.0,0.0,0.0,0.2603,0.2948,0.3239,0.3562,0.3917,0.4173,0.4271,0.4321,0.4518,0.4485,0.4238,0.4133,0.3623,0.3016,0.0,0.0,0.0,0.0,0.5032,0.5787,0.6088,0.6536,0.7038,0.6497,0.5969,0.5363,0.5089,0.4761,0.4467,0.4194,0.389,0.3557,0.3238,0.0,0.0,0.0,0.0,0.0,0.0,0.0,0.0,0.0,0.0,0.0,0.0,0.0,0.0,0.0,0.0,0.0,0.0,0.0,-0.1098,-0.1084,-0.1189,0.0,0.0,0.0,0.0,0.0,0.0,0.0,0.0,0.0,-0.1651,-0.1689,-0.1745,0.0,0.0,-0.196,-0.1989,-0.2027,-0.205,-0.2052,0.0,0.0,0.0,-0.2178,-0.2184,-0.2069,-0.2089,-0.2106,-0.2114,-0.2098,-0.2086,-0.2095,-0.2065,-0.2149,-0.2357,-0.2542,-0.2741,-0.2968,-0.3105,-0.3015,-0.2925,-0.2831,-0.2857,0.6313,0.5873,0.5265,0.5063,0.5107,0.4994,0.4671,0.415,0.4487,0.4723,0.4687,0.4094,0.357,0.3215,0.2501,0.0,0.0,0.0,0.3373,0.3547,0.3854,0.4191,0.4552,0.4813,0.4919,0.4876,0.4974,0.4961,0.4732,0.4728,0.4454,0.3845,0.0,0.0,0.4682,0.5175,0.5741,0.6374,0.6632,0.6931,0.7149,0.6381,0.5621,0.5116,0.5055,0.49,0.4638,0.4451,0.4174,0.3894,0.358,0.3145,0.0,0.0,0.0,0.0,0.0,0.0,0.0,0.0,0.0,0.0,0.0,-0.0872,0.0,0.0,0.0,0.0,-0.1006,-0.1133,-0.1123,-0.1163,0.0,0.0,0.0,0.0,0.0,0.0,0.0,-0.1483,-0.1595,-0.1704,-0.1791,-0.1824,-0.1859,-0.1915,-0.1974,-0.2018,-0.2034,0.0,-0.2082,-0.2082,-0.2102,-0.2119,-0.2119,-0.2128,-0.2277,-0.2159,-0.2189,-0.2207,-0.2208,-0.2184,-0.2163,-0.2159,-0.2128,-0.2099,-0.2099,-0.2199,-0.2418,-0.2518,-0.2525,-0.2542,-0.2436,-0.2322,-0.2339,0.729,0.7127,0.6073,0.5674,0.5748,0.5748,0.5395,0.4855,0.5468,0.5461,0.4897,0.4797,0.4414,0.3713,0.3258,0.0,0.3269,0.3616,0.3919,0.4268,0.4545,0.488,0.5251,0.5255,0.5255,0.5255,0.5255,0.5165,0.4998,0.4994,0.4945,0.4847,0.481,0.5,0.5456,0.5858,0.6274,0.6812,0.6937,0.7051,0.7154,0.6033,0.5279,0.5112,0.51,0.4973,0.472,0.454,0.4402,0.4295,0.3808,0.3359,0.2961,0.0,0.0,0.0,0.0,0.0,0.0,0.0,0.0,0.0,0.0,0.0,0.0,0.0,0.0,0.0,-0.1165,0.0,-0.1217,-0.1226,0.0,0.0,0.0,-0.1373,-0.1399,-0.1482,-0.155,-0.1581,0.0,0.0,-0.1881,0.0,-0.1984,-0.1986,-0.2034,-0.2068,-0.2067,-0.2093,-0.2113,-0.2113,-0.2161,-0.2198,-0.2192,-0.2219,-0.2241,-0.2244,-0.2274,-0.2289,-0.2288,-0.2266,-0.2249,-0.224,-0.2198,-0.2155,-0.2155,-0.2147,-0.2138,-0.208,-0.2091,-0.2112,-0.2112,-0.2129,-0.2281,0.7546,0.7415,0.7134,0.6979,0.684,0.6624,0.6373,0.6318,0.6105,0.6032,0.5906,0.5422,0.4918,0.4324,0.4223,0.4069,0.394,0.4264,0.446,0.4714,0.4955,0.5134,0.5345,0.5349,0.5349,0.5349,0.5349,0.5292,0.5181,0.5181,0.5132,0.5043,0.5471,0.5717,0.5689,0.6303,0.6763,0.6942,0.7056,0.6911,0.6492,0.5634,0.5106,0.5112,0.5043,0.4912,0.4716,0.4598,0.4467,0.4304,0.4157,0.3804,0.3352,0.3061,0.0,0.0,0.0,0.0,0.0,0.0,0.0,0.0,0.0,-0.1031,-0.1024,0.0,-0.1118,0.0,-0.1176,-0.125,-0.131,-0.1335,0.0,0.0,-0.1451,-0.1486,-0.1494,-0.1575,-0.165,-0.1701,-0.1774,-0.1853,-0.1944,-0.2007,-0.2052,-0.2075,-0.209,-0.2098,-0.2099,-0.2124,-0.2144,-0.2147,-0.2176,-0.2199,-0.2206,-0.2245,-0.2281,-0.2279,-0.2304,-0.2323,-0.2323,-0.2298,-0.2274,-0.2249,-0.2215,-0.2183,-0.2159,-0.2155,-0.2151,-0.2136,-0.2139,-0.2143,-0.2144,-0.215,-0.2155,0.7818,0.7752,0.7698,0.76,0.7464,0.7252,0.7166,0.7113,0.6883,0.671,0.6488,0.5794,0.5252,0.4755,0.4755,0.4698,0.4669,0.4778,0.4959,0.5084,0.5234,0.539,0.5439,0.548,0.5475,0.5439,0.5439,0.539,0.5308,0.5308,0.5279,0.523,0.566,0.5957,0.6013,0.6557,0.6942,0.7056,0.7122,0.6937,0.6492,0.5836,0.5409,0.532,0.5081,0.4847,0.4712,0.4581,0.4463,0.4361,0.4238,0.4018,0.362,0.3469,0.3027,0.0,0.0,0.0,0.0,0.0,0.0,0.0,0.0,0.0,0.0,0.0,-0.1211,0.0,-0.1279,-0.1341,-0.1401,-0.1421,-0.1453,-0.151,-0.1546,-0.1576,-0.1602,-0.1674,-0.1734,-0.1767,-0.1835,-0.191,-0.1985,-0.2035,-0.208,-0.2123,-0.2129,-0.2129,-0.2131,-0.2144,-0.2155,-0.2157,-0.2192,-0.223,-0.2253,-0.2288,-0.2309,-0.2311,-0.2322,-0.2333,-0.2333,-0.2309,-0.2281,-0.2251,-0.2221,-0.2191,-0.2161,-0.2155,-0.2158,-0.2172,-0.2174,-0.217,-0.2158,-0.2165,-0.2174,0.8079,0.8068,0.7959,0.791,0.7877,0.7671,0.7573,0.7663,0.7546,0.7243,0.6779,0.6028,0.5573,0.5177,0.5177,0.5222,0.5296,0.5296,0.5341,0.5418,0.5492,0.5524,0.5529,0.5606,0.5602,0.5524,0.5524,0.5488,0.5418,0.5414,0.5414,0.5414,0.5751,0.5976,0.6308,0.6774,0.7089,0.7154,0.7154,0.7043,0.671,0.6151,0.5723,0.5629,0.5133,0.479,0.4692,0.4536,0.4442,0.4414,0.4271,0.4098,0.3732,0.3855,0.3491,0.0,0.264,0.0,0.0,0.0,0.0,0.0,0.0,0.0,0.0,-0.134,-0.1303,-0.1361,-0.1386,-0.1429,-0.1491,-0.1498,-0.1532,-0.1617,-0.1632,-0.1655,-0.1711,-0.1767,-0.1804,-0.1812,-0.1885,-0.1959,-0.2016,-0.205,-0.2093,-0.2142,-0.2153,-0.2151,-0.2154,-0.2154,-0.2155,-0.2155,-0.2206,-0.2259,-0.2305,-0.2326,-0.2331,-0.2333,-0.2333,-0.2333,-0.2333,-0.2313,-0.2288,-0.2258,-0.2233,-0.2204,-0.2172,-0.2168,-0.2177,-0.2202,-0.2206,-0.2198,-0.2178,-0.2189,-0.2204,0.8198,0.8198,0.8176,0.8106,0.8019,0.797,0.7967,0.779,0.7671,0.7241,0.6667,0.6165,0.5792,0.5541,0.5545,0.5549,0.5569,0.5569,0.5578,0.5594,0.561,0.5618,0.5618,0.5635,0.5635,0.5618,0.5618,0.561,0.5594,0.5594,0.5594,0.5594,0.5946,0.6179,0.6522,0.0,0.0,0.0,0.7154,0.7043,0.6705,0.6295,0.5864,0.5629,0.5342,0.0,0.461,0.4565,0.4475,0.4332,0.4291,0.0,0.0,0.0,0.0,0.0,0.0,0.0,0.0,0.0,0.0,0.0,0.0353,-0.0435,-0.1331,-0.1371,-0.1416,-0.1452,-0.146,-0.1498,-0.1583,-0.1591,-0.1617,-0.168,-0.171,-0.174,-0.1775,-0.181,-0.185,-0.19,-0.1943,-0.199,-0.2045,-0.2082,-0.2113,-0.2147,-0.2155,-0.2155,-0.2155,-0.2155,-0.2155,-0.2159,-0.2207,-0.2256,-0.2293,-0.2318,-0.233,-0.2333,-0.2333,-0.2333,-0.2333,-0.233,-0.2315,-0.2286,-0.2277,-0.2263,-0.2233,-0.2229,-0.2226,-0.2236,-0.2237,-0.2234,-0.2229,-0.2233,-0.2237,0.8329,0.0,0.8258,0.8198,0.0,0.8144,0.8079,0.8082,0.7839,0.7475,0.6897,0.6542,0.616,0.5881,0.5647,0.5526,0.5526,0.5526,0.5526,0.5647,0.5692,0.5712,0.5712,0.5757,0.5753,0.5712,0.5712,0.5688,0.5647,0.5526,0.5526,0.5647,0.5764,0.6116,0.6579,0.7051,0.7201,0.7247,0.7187,0.7154,0.6927,0.6542,0.6216,0.5946,0.0,0.0,0.0,0.0,0.0,0.0,0.0,0.0,0.0,0.0,0.0,0.357,0.316,0.3002,0.2917,0.2319,0.181,0.157,0.0761,-0.019,-0.1352,-0.1463,-0.1498,-0.1543,-0.1451,-0.1579,-0.1652,-0.1662,-0.168,-0.1722,-0.1753,-0.1785,-0.1816,-0.1858,-0.1896,-0.1928,-0.197,-0.2015,-0.2059,-0.2091,-0.212,-0.215,-0.2155,-0.2155,-0.2155,-0.2155,-0.2159,-0.2174,-0.22,-0.224,-0.2281,-0.2301,-0.2318,-0.2328,-0.2333,-0.2333,-0.2333,-0.2333,-0.2323,-0.2298,-0.2292,-0.2282,-0.2253,-0.2245,-0.2249,-0.2264,-0.2268,-0.2274,-0.2283,-0.2278,-0.2268,0.8448,0.8437,0.8339,0.8285,0.8269,0.8269,0.8253,0.822,0.0,0.0,0.0,0.701,0.6602,0.6169,0.581,0.5692,0.5692,0.5692,0.5692,0.5696,0.5769,0.5806,0.581,0.588,0.5876,0.5806,0.5806,0.5765,0.5696,0.5692,0.5692,0.5692,0.5692,0.6046,0.6754,0.721,0.7502,0.7399,0.7258,0.7176,0.7154,0.6822,0.6609,0.6404,0.5779,0.5322,0.5121,0.4835,0.4589,0.4573,0.4573,0.4569,0.4379,0.4379,0.3971,0.326,0.317,0.2992,0.2714,0.2628,0.2372,0.1644,0.11,0.0201,-0.1166,-0.136,-0.1381,-0.1424,-0.1326,-0.1345,-0.1495,-0.1608,-0.1729,-0.1761,-0.1789,-0.1816,-0.1854,-0.1899,-0.1933,-0.1949,-0.1994,-0.2038,-0.2069,-0.2099,-0.2125,-0.2148,-0.2155,-0.2155,-0.2155,-0.2155,-0.2162,-0.2183,-0.2195,-0.2219,-0.2259,-0.2279,-0.2293,-0.2318,-0.2319,-0.2319,-0.2323,-0.232,-0.2311,-0.2296,-0.2292,-0.2283,-0.2266,-0.2264,-0.227,-0.2294,-0.2298,-0.2305,-0.2324,-0.2315,-0.23,0.8562,0.8562,0.8546,0.8481,0.8394,0.8394,0.8334,0.8225,0.8089,0.7835,0.7362,0.7001,0.6625,0.6363,0.5998,0.588,0.588,0.588,0.588,0.0,0.5892,0.5896,0.59,0.5912,0.5908,0.59,0.59,0.5892,0.588,0.5876,0.588,0.5876,0.6119,0.6602,0.721,0.7605,0.7671,0.7649,0.7426,0.7258,0.7154,0.7046,0.6867,0.6511,0.5989,0.5625,0.5322,0.4937,0.4655,0.4577,0.4573,0.4573,0.4573,0.4573,0.4186,0.3325,0.3178,0.3206,0.3117,0.2867,0.2412,0.1741,0.1568,0.1048,-0.0103,-0.0624,-0.0946,-0.0847,-0.0529,-0.0427,-0.0869,-0.1418,-0.1656,-0.1817,-0.1832,-0.1855,-0.1909,-0.1925,-0.1951,-0.1996,-0.2035,-0.2068,-0.2228,-0.2127,-0.2147,-0.2154,-0.2155,-0.2155,-0.2155,-0.2155,-0.2157,-0.2163,-0.2184,-0.2202,-0.2219,-0.2236,-0.2262,-0.2292,-0.2277,-0.2275,-0.2297,-0.2285,-0.2278,-0.2289,-0.2294,-0.23,-0.2311,-0.232,-0.2319,-0.2323,-0.2323,-0.2327,-0.2333,-0.2327,-0.2324,0.8649,0.859,0.859,0.8557,0.8508,0.8508,0.8443,0.8334,0.828,0.8055,0.7822,0.7441,0.7156,0.6731,0.6487,0.6085,0.5916,0.5916,0.5916,0.5916,0.5916,0.5916,0.5916,0.5916,0.5916,0.5916,0.5916,0.5916,0.5916,0.5916,0.5916,0.5916,0.6407,0.6893,0.7383,0.7702,0.7763,0.7698,0.7459,0.7307,0.7252,0.7138,0.6936,0.6542,0.6119,0.5817,0.5408,0.5051,0.4883,0.4794,0.479,0.4765,0.472,0.4716,0.4422,0.3736,0.3399,0.3335,0.3237,0.2986,0.2817,0.242,0.2247,0.1831,0.0962,0.0427,-0.0,-0.0324,-0.0108,-0.0109,-0.0336,-0.0674,-0.0908,-0.1279,-0.1644,-0.19,-0.1926,-0.1947,-0.1973,-0.2014,-0.2045,-0.2075,-0.2236,-0.2136,-0.2154,-0.2155,-0.2155,-0.2155,-0.2155,-0.2155,-0.2155,-0.2157,-0.2168,-0.2183,-0.2198,-0.221,-0.2233,-0.226,-0.227,-0.2275,-0.229,-0.2286,-0.2297,-0.2309,-0.2313,-0.2319,-0.2333,-0.2333,-0.2333,-0.2333,-0.2333,-0.2333,-0.2333,-0.2333,-0.2333,0.8715,0.8628,0.86,0.859,0.859,0.859,0.8535,0.8459,0.8454,0.8405,0.8183,0.7868,0.7536,0.7088,0.6836,0.6419,0.5982,0.5978,0.5978,0.585,0.5957,0.5949,0.5945,0.5929,0.5916,0.5916,0.5916,0.5916,0.5916,0.5916,0.6039,0.6162,0.6653,0.7143,0.7505,0.775,0.7828,0.7731,0.7529,0.7388,0.7334,0.7241,0.7027,0.6593,0.6231,0.5971,0.5572,0.5227,0.5075,0.501,0.5002,0.4969,0.4798,0.4794,0.4591,0.4089,0.3621,0.3338,0.3346,0.3186,0.3109,0.3005,0.2832,0.2529,0.1978,0.1528,0.098,0.055,0.0332,0.0224,0.0,0.0,-0.0233,-0.071,-0.1197,-0.157,-0.1821,-0.1969,-0.1997,-0.2026,-0.2056,-0.2086,-0.2114,-0.214,-0.2154,-0.2155,-0.2155,-0.2155,-0.2155,-0.2155,-0.2155,-0.2155,-0.2155,-0.2163,-0.2187,-0.2198,-0.2214,-0.224,-0.2263,-0.2278,-0.2288,-0.2305,-0.2315,-0.2315,-0.232,-0.2323,-0.233,-0.2333,-0.2333,-0.2333,-0.2333,-0.2333,-0.2333,-0.2333,-0.2333,0.8764,0.8736,0.8638,0.859,0.859,0.859,0.8579,0.8568,0.8568,0.8568,0.8524,0.7935,0.7459,0.7193,0.681,0.6545,0.6149,0.6153,0.6022,0.5882,0.595,0.5914,0.5906,0.5961,0.5916,0.5925,0.5925,0.5925,0.5925,0.5916,0.6162,0.6775,0.7143,0.751,0.7872,0.7872,0.7867,0.785,0.7731,0.7562,0.735,0.7323,0.7038,0.67,0.6274,0.5999,0.566,0.5256,0.5104,0.5096,0.5096,0.4986,0.4869,0.4759,0.4657,0.4235,0.3713,0.3401,0.3409,0.3458,0.3382,0.306,0.3102,0.2908,0.2576,0.2381,0.2043,0.169,0.1135,0.0687,0.0,0.0,0.0,0.0,0.0,-0.0607,-0.16,-0.1997,-0.2026,-0.2056,-0.2084,-0.2116,-0.214,-0.2153,-0.2154,-0.2155,-0.2155,-0.2155,-0.2155,-0.2155,-0.2155,-0.2155,-0.2155,-0.2158,-0.2166,-0.2184,-0.221,-0.2238,-0.2248,-0.2264,-0.2282,-0.2277,-0.2263,-0.2308,-0.2301,-0.2311,-0.2326,-0.2333,-0.2333,-0.2333,-0.2333,-0.2333,-0.2333,-0.2333,-0.2333,0.8943,0.8867,0.8747,0.8649,0.859,0.859,0.859,0.859,0.859,0.859,0.8579,0.8349,0.8013,0.7557,0.7303,0.6886,0.6443,0.631,0.6182,0.605,0.6141,0.6129,0.6125,0.6092,0.6072,0.6068,0.6023,0.5998,0.6234,0.6438,0.6653,0.7021,0.7266,0.7627,0.7872,0.7872,0.7872,0.7872,0.7828,0.772,0.7568,0.7481,0.7159,0.6596,0.6317,0.6042,0.555,0.5397,0.5247,0.5194,0.519,0.5165,0.5002,0.4998,0.4896,0.4471,0.4085,0.3694,0.3515,0.3537,0.355,0.3442,0.3383,0.33,0.3075,0.2888,0.2791,0.2431,0.1859,0.1405,0.1182,0.0476,0.0,0.0,0.0,0.0,-0.075,-0.1509,-0.2035,-0.2082,-0.2101,-0.2121,-0.2147,-0.2155,-0.2155,-0.2155,-0.2155,-0.2155,-0.2155,-0.2155,-0.2155,-0.2157,-0.2169,-0.2181,-0.2183,-0.2191,-0.2214,-0.2238,-0.226,-0.2281,-0.2286,-0.23,-0.2303,-0.2313,-0.2313,-0.2316,-0.233,-0.2333,-0.2333,-0.2333,-0.2333,-0.2333,-0.2333,-0.2333,-0.2333,0.9084,0.8986,0.8834,0.872,0.8638,0.86,0.859,0.859,0.859,0.859,0.859,0.859,0.8408,0.807,0.7802,0.7365,0.6913,0.6515,0.6381,0.6251,0.6231,0.6219,0.6215,0.619,0.631,0.6302,0.6243,0.6341,0.671,0.7022,0.7217,0.7311,0.7434,0.7659,0.7872,0.7872,0.7872,0.7872,0.7872,0.7828,0.7747,0.766,0.7306,0.6599,0.6465,0.6088,0.5459,0.5455,0.541,0.532,0.5316,0.5275,0.519,0.5181,0.5074,0.4863,0.4262,0.3883,0.372,0.3726,0.3619,0.3638,0.3681,0.3588,0.348,0.3406,0.3196,0.308,0.2499,0.2159,0.1806,0.1091,0.0488,0.0,0.0,0.0,0.0,-0.1142,-0.2061,-0.2102,-0.2117,-0.2129,-0.2148,-0.2155,-0.2155,-0.2155,-0.2155,-0.2155,-0.2155,-0.2155,-0.2157,-0.2165,-0.2187,-0.2198,-0.2202,-0.2221,-0.2233,-0.2253,-0.2282,-0.2301,-0.2303,-0.2322,-0.2331,-0.2324,-0.2331,-0.2333,-0.2333,-0.2333,-0.2333,-0.2333,-0.2333,-0.2333,-0.2333,-0.2333,-0.2333,0.9128,0.909,0.8867,0.8769,0.8753,0.8638,0.859,0.859,0.859,0.859,0.859,0.859,0.8584,0.8573,0.8169,0.7779,0.7507,0.7089,0.6818,0.6544,0.6345,0.6308,0.6304,0.6223,0.6447,0.6726,0.6704,0.6819,0.7193,0.7566,0.7648,0.7551,0.7796,0.7992,0.791,0.7899,0.7877,0.7888,0.7883,0.7872,0.7856,0.785,0.7491,0.672,0.6574,0.6336,0.5622,0.5627,0.5586,0.5496,0.5488,0.5455,0.5382,0.5369,0.5369,0.5262,0.4254,0.3836,0.4008,0.3902,0.381,0.3747,0.3758,0.3766,0.3768,0.3579,0.337,0.3372,0.3045,0.2689,0.2182,0.1833,0.1232,0.0247,0.0,0.0,0.0,-0.1164,-0.197,-0.2114,-0.2133,-0.2148,-0.2154,-0.2155,-0.2155,-0.2155,-0.2155,-0.2155,-0.2155,-0.2155,-0.2169,-0.2188,-0.22,-0.2202,-0.2206,-0.2238,-0.2274,-0.2292,-0.2307,-0.2327,-0.233,-0.2333,-0.2333,-0.2333,-0.2333,-0.2333,-0.2333,-0.2333,-0.2333,-0.2333,-0.2333,-0.2333,-0.2333,-0.2333,-0.2333,0.9198,0.9117,0.8959,0.8845,0.8758,0.8638,0.859,0.859,0.859,0.859,0.859,0.859,0.859,0.859,0.8456,0.8189,0.7927,0.7522,0.7121,0.6982,0.7084,0.7204,0.7332,0.7162,0.7017,0.7139,0.721,0.7274,0.7596,0.7847,0.7959,0.7922,0.8044,0.8144,0.8111,0.81,0.8068,0.7997,0.7992,0.7954,0.7883,0.7872,0.7585,0.6788,0.6717,0.6414,0.5647,0.5526,0.5627,0.5594,0.5594,0.5582,0.5553,0.5549,0.5549,0.5438,0.4857,0.4406,0.4196,0.3969,0.3861,0.3768,0.3807,0.3826,0.3837,0.3759,0.3674,0.3676,0.3441,0.3198,0.2946,0.2337,0.1858,0.1375,0.0,0.0,0.0,-0.0917,-0.1455,-0.1467,-0.188,-0.2154,-0.2155,-0.2155,-0.2155,-0.2155,-0.2155,-0.2155,-0.2159,-0.2169,-0.2189,-0.2204,-0.2233,-0.2258,-0.2258,-0.2273,-0.2294,-0.2312,-0.2327,-0.233,-0.2333,-0.2333,-0.2333,-0.2333,-0.2333,-0.2333,-0.2333,-0.2333,-0.2333,-0.2333,-0.2333,-0.2333,-0.2333,-0.2333,-0.2333,0.9258,0.9177,0.9057,0.8943,0.8823,0.8698,0.8622,0.859,0.859,0.859,0.859,0.859,0.859,0.859,0.859,0.8456,0.8189,0.7922,0.766,0.7522,0.7526,0.7531,0.7665,0.7531,0.7526,0.765,0.772,0.7898,0.7966,0.8215,0.8329,0.8296,0.8296,0.8274,0.8242,0.8236,0.8187,0.8122,0.8111,0.8068,0.7997,0.7986,0.7614,0.7108,0.7021,0.6552,0.5737,0.5733,0.5716,0.5696,0.5688,0.5676,0.5647,0.5647,0.5647,0.5651,0.5295,0.4958,0.4503,0.4269,0.4044,0.3826,0.3864,0.3888,0.3891,0.3927,0.3946,0.3828,0.3722,0.3606,0.336,0.287,0.2383,0.2022,0.1146,0.0516,0.0,-0.0397,-0.0933,-0.1476,-0.1885,-0.2155,-0.2155,-0.2155,-0.2155,-0.2155,-0.2162,-0.2169,-0.2173,-0.2195,-0.2219,-0.223,-0.2262,-0.2288,-0.2296,-0.2305,-0.2309,-0.2324,-0.2328,-0.2331,-0.2333,-0.2333,-0.2333,-0.2333,-0.2333,-0.2333,-0.2333,-0.2333,-0.2333,-0.2333,-0.2333,-0.2333,-0.2333,-0.2333,-0.2338,0.9302,0.928,0.9177,0.9057,0.8943,0.8807,0.8698,0.8611,0.859,0.859,0.859,0.859,0.859,0.859,0.859,0.8584,0.8451,0.8189,0.8056,0.8056,0.7794,0.766,0.766,0.766,0.7794,0.8056,0.8451,0.8579,0.8557,0.8546,0.8508,0.8568,0.8421,0.8372,0.8381,0.8274,0.8253,0.8242,0.8236,0.8225,0.8231,0.8204,0.7816,0.7306,0.7345,0.6998,0.5921,0.5908,0.5859,0.579,0.5782,0.5737,0.568,0.5667,0.5655,0.5671,0.5663,0.5349,0.4931,0.4701,0.4367,0.4043,0.3946,0.4074,0.4074,0.3962,0.397,0.3978,0.4008,0.3912,0.3668,0.3575,0.3075,0.2285,0.194,0.1313,0.0529,0.0,-0.0538,-0.1616,-0.2021,-0.2155,-0.2155,-0.2155,-0.2157,-0.2163,-0.218,-0.2196,-0.2202,-0.2226,-0.2256,-0.2277,-0.2292,-0.2305,-0.232,-0.2333,-0.2331,-0.2333,-0.2333,-0.2333,-0.2333,-0.2333,-0.2333,-0.2333,-0.2333,-0.2333,-0.2333,-0.2333,-0.2333,-0.2333,-0.2333,-0.2334,-0.2334,-0.2337,-0.2353,0.9302,0.9291,0.9182,0.9111,0.9052,0.8856,0.8742,0.8704,0.8628,0.859,0.859,0.859,0.859,0.859,0.859,0.859,0.859,0.8451,0.8456,0.8462,0.8328,0.8189,0.8189,0.8189,0.8323,0.8456,0.859,0.859,0.859,0.859,0.8562,0.8541,0.8535,0.8519,0.847,0.8475,0.8448,0.8372,0.8361,0.8323,0.8247,0.8236,0.7852,0.7331,0.7302,0.6887,0.6223,0.5982,0.5908,0.5876,0.5876,0.5859,0.5839,0.5831,0.5831,0.5831,0.5589,0.5475,0.5255,0.5021,0.4787,0.457,0.4608,0.4755,0.4765,0.4548,0.4443,0.4449,0.4218,0.397,0.3978,0.4023,0.3653,0.2864,0.236,0.1986,0.1468,0.0537,-0.0135,-0.0673,-0.1616,-0.2155,-0.2155,-0.2157,-0.2165,-0.2184,-0.2196,-0.2208,-0.223,-0.2258,-0.2277,-0.2289,-0.2304,-0.2318,-0.2327,-0.2333,-0.2333,-0.2333,-0.2333,-0.2333,-0.2333,-0.2333,-0.2333,-0.2333,-0.2333,-0.2333,-0.2333,-0.2333,-0.2333,-0.2334,-0.2335,-0.2335,-0.2337,-0.2349,-0.2371,0.9302,0.9291,0.9226,0.9171,0.9122,0.8965,0.8878,0.8686,0.8709,0.8655,0.8649,0.8606,0.859,0.859,0.859,0.8617,0.8649,0.8655,0.8682,0.8693,0.8617,0.859,0.859,0.859,0.859,0.859,0.859,0.859,0.859,0.859,0.8584,0.8584,0.859,0.8584,0.859,0.8584,0.8546,0.8486,0.8481,0.8443,0.8383,0.8367,0.7977,0.7452,0.7288,0.6882,0.6348,0.6092,0.6014,0.6014,0.6014,0.6014,0.6014,0.6014,0.6014,0.6014,0.5765,0.564,0.5515,0.5272,0.5143,0.5025,0.5059,0.5083,0.509,0.5003,0.4766,0.464,0.4532,0.4288,0.4166,0.4344,0.4113,0.372,0.2924,0.24,0.2151,0.0943,0.0,0.0,-0.0808,-0.1485,-0.2033,-0.2173,-0.2184,-0.221,-0.2226,-0.2236,-0.2263,-0.2288,-0.2298,-0.2307,-0.2319,-0.2327,-0.2331,-0.2333,-0.2333,-0.2333,-0.2333,-0.2333,-0.2333,-0.2333,-0.2333,-0.2333,-0.2333,-0.2333,-0.2333,-0.2333,-0.2333,-0.2335,-0.2342,-0.2352,-0.2361,-0.238,-0.2401,0.9302,0.9302,0.9302,0.9242,0.9155,0.9122,0.8906,0.867,0.8692,0.878,0.8617,0.8682,0.8633,0.8617,0.8649,0.8698,0.8764,0.878,0.8829,0.8845,0.8742,0.8644,0.8649,0.8649,0.8655,0.8638,0.8622,0.8606,0.8617,0.8595,0.859,0.859,0.859,0.859,0.859,0.859,0.8584,0.8573,0.8579,0.8568,0.8562,0.8573,0.8302,0.7636,0.729,0.6981,0.6439,0.6369,0.6314,0.6178,0.6157,0.6153,0.6174,0.6178,0.6161,0.6157,0.6174,0.6038,0.5789,0.577,0.5646,0.5386,0.5401,0.5286,0.529,0.5178,0.5062,0.4933,0.4975,0.4876,0.4628,0.453,0.4562,0.4168,0.349,0.2821,0.2154,0.0943,0.0,0.0,0.0,-0.0542,-0.1786,-0.2064,-0.2217,-0.2243,-0.2267,-0.2279,-0.2294,-0.2311,-0.2327,-0.2331,-0.2331,-0.2331,-0.2333,-0.2333,-0.2333,-0.2333,-0.2333,-0.2333,-0.2333,-0.2333,-0.2333,-0.2333,-0.2335,-0.2334,-0.2335,-0.2338,-0.2342,-0.2346,-0.2358,-0.2373,-0.2391,-0.2409,-0.2427,0.9302,0.9302,0.9302,0.9285,0.9247,0.9177,0.9117,0.9073,0.8959,0.8905,0.8889,0.8872,0.884,0.8856,0.8851,0.8878,0.8899,0.8905,0.891,0.8938,0.8899,0.8856,0.8856,0.8851,0.8851,0.8834,0.8758,0.8725,0.8715,0.8644,0.86,0.859,0.86,0.8595,0.859,0.859,0.859,0.859,0.859,0.859,0.859,0.859,0.8456,0.7922,0.7626,0.7213,0.6814,0.6527,0.6313,0.619,0.6182,0.6182,0.6194,0.6194,0.6198,0.6198,0.619,0.6186,0.6058,0.6062,0.6058,0.5933,0.5988,0.6019,0.6023,0.6078,0.5841,0.5719,0.5741,0.5882,0.5352,0.4967,0.4574,0.4037,0.3508,0.2967,0.2291,0.1886,0.1216,0.0,0.0,0.0,0.0,-0.1536,-0.2105,-0.2129,-0.2288,-0.23,-0.2313,-0.2322,-0.2333,-0.2333,-0.2333,-0.2333,-0.2333,-0.2333,-0.2333,-0.2333,-0.2333,-0.2333,-0.2333,-0.2333,-0.2333,-0.2333,-0.2341,-0.2342,-0.2346,-0.235,-0.2354,-0.2365,-0.2388,-0.241,-0.242,-0.2435,-0.2451,0.9302,0.9302,0.9302,0.9302,0.9296,0.9237,0.9209,0.9325,0.9084,0.903,0.9019,0.897,0.8948,0.8948,0.8948,0.8981,0.9024,0.9024,0.9057,0.9101,0.9101,0.9046,0.8976,0.8948,0.8948,0.8943,0.8883,0.8851,0.884,0.8774,0.8742,0.8736,0.8687,0.8666,0.8666,0.8606,0.859,0.859,0.859,0.859,0.859,0.859,0.8456,0.8195,0.7794,0.7259,0.6853,0.6585,0.6398,0.6317,0.6296,0.6296,0.6296,0.6296,0.6296,0.6296,0.6296,0.6296,0.6296,0.6296,0.6296,0.6304,0.6349,0.637,0.6382,0.6427,0.6317,0.618,0.6317,0.6317,0.6057,0.5272,0.4759,0.4382,0.3835,0.3279,0.2449,0.2187,0.1786,0.1106,0.0,0.0,0.0,0.0,-0.1424,-0.1725,-0.2166,-0.2174,-0.2328,-0.2331,-0.2333,-0.2333,-0.2333,-0.2333,-0.2333,-0.2333,-0.2337,-0.2337,-0.2339,-0.2338,-0.2342,-0.2341,-0.2335,-0.2338,-0.2345,-0.2353,-0.2361,-0.2373,-0.239,-0.2405,-0.2428,-0.2442,-0.245,-0.2459,-0.2476,0.9302,0.9302,0.9302,0.9302,0.9302,0.9302,0.9291,0.928,0.9193,0.915,0.9275,0.9041,0.9024,0.8986,0.9035,0.9052,0.915,0.915,0.9204,0.9253,0.9258,0.9188,0.9041,0.9035,0.903,0.9019,0.8986,0.897,0.8959,0.8948,0.8938,0.8899,0.8823,0.8796,0.8774,0.8693,0.8633,0.8655,0.8666,0.8671,0.8671,0.8671,0.8677,0.8547,0.7868,0.7188,0.6774,0.6496,0.6488,0.6484,0.6468,0.6435,0.6443,0.6447,0.6443,0.6435,0.6427,0.6431,0.6451,0.6439,0.6464,0.646,0.6472,0.648,0.6496,0.6509,0.6513,0.6381,0.6484,0.6504,0.6246,0.5607,0.5106,0.4875,0.4337,0.3769,0.3055,0.2507,0.2244,0.2109,0.0984,0.0424,0.0143,-0.0,-0.0288,-0.1013,-0.1454,-0.1601,-0.1895,-0.2187,-0.2188,-0.2333,-0.2333,-0.2333,-0.2333,-0.2333,-0.2338,-0.2342,-0.2348,-0.235,-0.236,-0.2357,-0.2346,-0.2346,-0.2367,-0.2379,-0.2386,-0.2401,-0.2423,-0.2438,-0.2455,-0.2466,-0.2476,-0.2487,-0.2502,0.9302,0.9302,0.9302,0.9302,0.9302,0.9302,0.9302,0.9302,0.928,0.9258,0.9258,0.9237,0.922,0.922,0.9209,0.9247,0.9253,0.9258,0.9285,0.9296,0.9302,0.9285,0.922,0.9209,0.922,0.9198,0.9128,0.9095,0.9079,0.9019,0.8954,0.8954,0.8948,0.891,0.8899,0.8872,0.8872,0.8872,0.8867,0.8851,0.8708,0.8851,0.8713,0.8581,0.8025,0.7346,0.6806,0.6668,0.6668,0.6635,0.6545,0.6476,0.6476,0.6472,0.6472,0.6476,0.6468,0.6464,0.6468,0.6525,0.6562,0.6566,0.6611,0.6668,0.6668,0.6656,0.6521,0.6525,0.6668,0.6651,0.6383,0.6121,0.5733,0.5203,0.4958,0.4553,0.3827,0.31,0.2681,0.2273,0.1996,0.1576,0.1015,0.0435,0.0145,-0.0292,-0.0584,-0.0876,-0.1314,-0.1752,-0.1896,-0.1896,-0.2334,-0.2335,-0.2346,-0.235,-0.2361,-0.2365,-0.2368,-0.2371,-0.2379,-0.2386,-0.2379,-0.2383,-0.2395,-0.2405,-0.2414,-0.2436,-0.2459,-0.247,-0.248,-0.2489,-0.2499,-0.2511,-0.2519,0.9302,0.9302,0.9302,0.9302,0.9302,0.9302,0.9302,0.9302,0.9302,0.9302,0.9302,0.9302,0.9302,0.9302,0.9302,0.9302,0.9302,0.9302,0.9302,0.9302,0.9302,0.9302,0.9302,0.9302,0.9302,0.9291,0.9247,0.9215,0.9193,0.915,0.9128,0.9106,0.9068,0.9041,0.9019,0.8986,0.8943,0.8943,0.8948,0.8809,0.8809,0.8809,0.867,0.8392,0.797,0.7418,0.6721,0.6721,0.6725,0.6705,0.6635,0.6582,0.6582,0.6582,0.6578,0.6582,0.6582,0.6582,0.6602,0.6623,0.6656,0.6656,0.67,0.6717,0.6725,0.6725,0.6585,0.6585,0.6725,0.6593,0.6497,0.6363,0.5948,0.5709,0.5457,0.5051,0.4469,0.387,0.3147,0.2737,0.2309,0.2027,0.1601,0.1167,0.0876,0.0584,-0.0,-0.0292,-0.0438,-0.0875,-0.1314,-0.1459,-0.2043,-0.2341,-0.2357,-0.2371,-0.239,-0.2395,-0.2399,-0.2402,-0.2406,-0.2413,-0.2418,-0.2421,-0.2424,-0.2438,-0.245,-0.2473,-0.2488,-0.2495,-0.2502,-0.251,-0.2515,-0.2519,-0.2529,0.9302,0.9302,0.9302,0.9302,0.9302,0.9302,0.9302,0.9302,0.9302,0.9302,0.9302,0.9302,0.9302,0.9302,0.9302,0.9302,0.9302,0.9302,0.9302,0.9302,0.9302,0.9302,0.9302,0.9302,0.9302,0.9302,0.9291,0.9291,0.9291,0.9302,0.9258,0.9275,0.9209,0.916,0.9133,0.9068,0.9035,0.9041,0.9046,0.9041,0.9035,0.903,0.8614,0.8053,0.7912,0.7495,0.6935,0.679,0.6778,0.6766,0.6766,0.6766,0.6762,0.6733,0.6725,0.6721,0.6705,0.6696,0.67,0.6729,0.6745,0.6745,0.677,0.6774,0.6778,0.679,0.6794,0.6786,0.6794,0.6815,0.6864,0.6733,0.6482,0.6239,0.568,0.5392,0.5101,0.4665,0.3928,0.3201,0.2907,0.2619,0.2331,0.2042,0.1752,0.146,0.073,0.0292,0.0146,-0.0,-0.0587,-0.1031,-0.1476,-0.2221,-0.2384,-0.2393,-0.2412,-0.2427,-0.2431,-0.2436,-0.244,-0.2453,-0.2458,-0.2447,-0.245,-0.2465,-0.2477,-0.2492,-0.2504,-0.2514,-0.2523,-0.2532,-0.253,-0.2526,-0.2542,0.9302,0.9302,0.9302,0.9302,0.9302,0.9302,0.9302,0.9302,0.9302,0.9302,0.9302,0.9302,0.9302,0.9302,0.9302,0.9302,0.9302,0.9302,0.9302,0.9302,0.9302,0.9302,0.9302,0.9302,0.9302,0.9302,0.9302,0.9302,0.9302,0.9302,0.9302,0.9302,0.928,0.9264,0.9258,0.9247,0.9209,0.9198,0.9204,0.9204,0.9209,0.9209,0.8923,0.8208,0.806,0.7639,0.7077,0.6941,0.6945,0.6945,0.6945,0.6941,0.6909,0.6811,0.6762,0.6749,0.6754,0.6762,0.6762,0.6803,0.6827,0.6847,0.6888,0.6929,0.6933,0.6933,0.6913,0.6921,0.6925,0.6945,0.6962,0.6809,0.668,0.6413,0.6268,0.5974,0.5683,0.5247,0.467,0.3946,0.3504,0.3063,0.2917,0.2627,0.2339,0.2049,0.176,0.1175,0.103,0.0591,0.0,-0.0447,-0.0898,-0.1653,-0.2266,-0.2421,-0.2433,-0.2454,-0.2463,-0.2473,-0.2481,-0.2497,-0.2499,-0.2487,-0.2484,-0.2493,-0.2506,-0.2512,-0.2518,-0.2525,-0.2537,-0.2552,-0.2555,-0.2557,-0.2575,0.9302,0.9302,0.9302,0.9302,0.9302,0.9302,0.9302,0.9302,0.9302,0.9302,0.9302,0.9302,0.9302,0.9302,0.9302,0.9302,0.9302,0.9302,0.9302,0.9302,0.9302,0.9302,0.9313,0.9307,0.9302,0.9302,0.9302,0.9307,0.9302,0.9302,0.9302,0.9302,0.9302,0.9302,0.9302,0.9296,0.9302,0.9302,0.9302,0.9302,0.9302,0.9302,0.9018,0.8584,0.8155,0.786,0.7425,0.7135,0.6986,0.6986,0.6986,0.699,0.6978,0.6962,0.6909,0.6872,0.6864,0.6864,0.6864,0.6905,0.6921,0.6929,0.6974,0.6986,0.699,0.6982,0.6998,0.6994,0.699,0.699,0.6986,0.6994,0.6845,0.6704,0.6563,0.6272,0.6123,0.5686,0.5268,0.4698,0.4248,0.3656,0.3209,0.3068,0.2929,0.2642,0.2503,0.2216,0.178,0.1343,0.0751,0.0151,0.0,0.0,0.0,-0.1688,-0.2001,-0.2172,-0.2495,-0.2504,-0.2515,-0.2529,-0.2532,-0.2526,-0.2527,-0.2526,-0.2522,-0.2526,-0.2532,-0.2541,-0.2563,-0.2579,-0.2585,-0.2593,-0.2609,0.9302,0.9302,0.9302,0.9302,0.9302,0.9302,0.9302,0.9302,0.9302,0.9302,0.9302,0.9302,0.9302,0.9302,0.9302,0.9302,0.9302,0.9302,0.9318,0.9351,0.9356,0.9351,0.9378,0.9378,0.94,0.9421,0.941,0.9351,0.9307,0.9302,0.9302,0.9302,0.9302,0.9302,0.9302,0.9302,0.9302,0.9302,0.9302,0.9302,0.9302,0.9302,0.9179,0.876,0.8329,0.7902,0.7646,0.7215,0.7068,0.7064,0.706,0.7052,0.706,0.7113,0.7117,0.706,0.7043,0.7043,0.7043,0.7047,0.706,0.7064,0.7052,0.7052,0.7056,0.7072,0.706,0.7043,0.7052,0.7064,0.7072,0.7052,0.7056,0.7056,0.6771,0.6616,0.6481,0.6345,0.5924,0.5477,0.4858,0.4273,0.3842,0.3697,0.3419,0.3124,0.2983,0.269,0.2402,0.227,0.1674,0.0765,0.0,0.0,0.0,0.0,-0.1094,-0.1258,-0.2052,-0.2533,-0.2544,-0.2556,-0.2557,-0.2562,-0.2555,-0.2552,-0.2545,-0.2547,-0.2559,-0.2575,-0.2596,-0.2608,-0.2612,-0.2626,-0.2642,0.9302,0.9302,0.9302,0.9302,0.9302,0.9302,0.9302,0.9302,0.9302,0.9302,0.9302,0.9302,0.9302,0.9302,0.9302,0.9302,0.9313,0.9323,0.9378,0.9454,0.947,0.9514,0.9595,0.9628,0.9584,0.9574,0.9595,0.9492,0.9389,0.934,0.9323,0.9334,0.9345,0.9318,0.9356,0.9362,0.9302,0.9313,0.9318,0.9318,0.9323,0.9329,0.9092,0.8851,0.844,0.8169,0.7927,0.7493,0.7203,0.7211,0.7219,0.7227,0.7231,0.7235,0.7243,0.7235,0.7231,0.7227,0.7215,0.7199,0.7199,0.7194,0.7203,0.7227,0.7203,0.7199,0.7199,0.7231,0.7219,0.7203,0.7194,0.7215,0.7223,0.7211,0.719,0.7049,0.7057,0.6712,0.6436,0.6319,0.57,0.5115,0.4527,0.4376,0.4075,0.3625,0.3325,0.3181,0.2889,0.2759,0.2466,0.1394,0.0935,0.0,0.0,0.0,-0.0476,-0.0638,-0.1278,-0.224,-0.2571,-0.2582,-0.2593,-0.2593,-0.2589,-0.259,-0.2596,-0.2598,-0.2598,-0.2608,-0.2624,-0.2634,-0.2642,-0.2657,-0.2671,0.9302,0.9302,0.9302,0.9302,0.9302,0.9302,0.9302,0.9302,0.9302,0.9302,0.9302,0.9302,0.9302,0.9302,0.9302,0.9345,0.9394,0.9405,0.9476,0.9568,0.9595,0.9622,0.965,0.9666,0.9666,0.9682,0.9666,0.9628,0.9525,0.9514,0.9508,0.9503,0.9503,0.9525,0.9487,0.9508,0.9514,0.9519,0.9366,0.9361,0.9508,0.9514,0.953,0.9287,0.8691,0.8421,0.8159,0.7561,0.7264,0.7264,0.7264,0.7264,0.7276,0.7301,0.7181,0.7337,0.7386,0.7362,0.728,0.7272,0.7272,0.7268,0.7268,0.7256,0.7264,0.7268,0.7268,0.726,0.7415,0.7419,0.7272,0.7264,0.7264,0.7264,0.7288,0.7284,0.728,0.7268,0.6958,0.6846,0.6575,0.5975,0.5361,0.5185,0.4725,0.413,0.3831,0.3686,0.3242,0.2799,0.2497,0.2191,0.1734,0.0,0.0,0.032,0.0,-0.0161,-0.0323,-0.1295,-0.2274,-0.2609,-0.2458,-0.2635,-0.2641,-0.2645,-0.2647,-0.2639,-0.263,-0.2639,-0.2652,-0.2658,-0.2665,-0.2672,-0.2683,0.9302,0.9302,0.9302,0.9302,0.9302,0.9302,0.9302,0.9302,0.9302,0.9302,0.9302,0.9302,0.9302,0.9318,0.9345,0.9405,0.9481,0.9514,0.9606,0.9677,0.972,0.9737,0.9775,0.9775,0.9769,0.9753,0.9791,0.9775,0.9769,0.9748,0.9726,0.9677,0.9633,0.965,0.9661,0.9644,0.9633,0.9633,0.9489,0.9489,0.965,0.965,0.9677,0.9548,0.9106,0.8663,0.8536,0.7946,0.7494,0.7341,0.7346,0.7354,0.7362,0.7395,0.7423,0.7431,0.7472,0.746,0.7386,0.7354,0.7329,0.7329,0.7329,0.7354,0.7346,0.7329,0.7329,0.735,0.735,0.7498,0.7329,0.7337,0.7354,0.7358,0.735,0.7333,0.7329,0.7341,0.7209,0.7091,0.6968,0.6988,0.6509,0.6155,0.5538,0.4794,0.4502,0.4201,0.3753,0.3147,0.3,0.269,0.2234,0.2087,0.1771,0.1132,0.0651,0.0163,0.0163,-0.0328,-0.1318,-0.1984,-0.2158,-0.2336,-0.2511,-0.2679,-0.2671,-0.2664,-0.2658,-0.2665,-0.2673,-0.2682,-0.2688,-0.2692,-0.2694,0.9302,0.9302,0.9302,0.9302,0.9302,0.9302,0.9302,0.9302,0.9302,0.9302,0.9302,0.9302,0.9302,0.9329,0.9405,0.947,0.9497,0.9606,0.972,0.9796,0.9835,0.9883,0.9921,0.9949,0.9965,0.9965,0.9943,0.9949,0.9976,0.9932,0.984,0.9704,0.9731,0.9693,0.9699,0.9731,0.9726,0.9726,0.972,0.9709,0.9709,0.9709,0.9742,0.966,0.9376,0.9111,0.8745,0.8265,0.7791,0.7472,0.7468,0.7468,0.7464,0.748,0.7493,0.7501,0.7509,0.7501,0.7472,0.7464,0.7493,0.7501,0.7493,0.7468,0.746,0.7488,0.7501,0.7476,0.7456,0.7472,0.7484,0.7501,0.7464,0.7456,0.7439,0.7439,0.7444,0.746,0.748,0.7505,0.7357,0.7197,0.7217,0.67,0.6206,0.5456,0.5016,0.4716,0.4259,0.3646,0.3507,0.3202,0.2745,0.2597,0.2601,0.2125,0.1645,0.099,0.0661,0.0333,-0.0335,-0.0839,-0.1507,-0.2012,-0.2015,-0.2354,-0.2694,-0.269,-0.2687,-0.2688,-0.2692,-0.2692,-0.2697,-0.2701,-0.2699,0.959,0.9302,0.9302,0.9302,0.9302,0.9302,0.9302,0.9302,0.9302,0.9302,0.9302,0.9302,0.9302,0.934,0.9432,0.953,0.9606,0.972,0.9835,0.9916,0.996,0.9981,1.0019,1.0019,1.0014,1.0019,1.0019,1.0019,1.0014,1.0019,0.9987,0.9905,0.9867,0.9889,0.9889,0.9862,0.9867,0.9873,0.9878,0.9883,0.9883,0.9883,0.9905,0.9938,0.9485,0.9196,0.8769,0.8466,0.7998,0.769,0.7533,0.7542,0.7546,0.7542,0.7542,0.7542,0.7542,0.7542,0.7537,0.7533,0.7525,0.7525,0.7521,0.7533,0.7546,0.7533,0.7525,0.7521,0.7537,0.755,0.7529,0.7525,0.7513,0.7521,0.7533,0.7542,0.755,0.7562,0.7562,0.7421,0.7546,0.7365,0.7393,0.7413,0.6766,0.6128,0.5688,0.524,0.4621,0.4163,0.4027,0.3725,0.343,0.3118,0.3124,0.281,0.2495,0.1833,0.1169,0.084,0.0506,-0.0,-0.0672,-0.1178,-0.1686,-0.2027,-0.2369,-0.2543,-0.2712,-0.2705,-0.2698,-0.2692,-0.2698,-0.2712,-0.2716,0.9735,0.9446,0.9302,0.9302,0.9302,0.9302,0.9302,0.9302,0.9302,0.9302,0.9302,0.9302,0.9329,0.9383,0.9487,0.9612,0.9726,0.984,0.9932,0.9987,1.0008,1.0019,1.0019,1.0019,1.0019,1.0019,1.0019,1.0019,1.0019,1.0019,1.0003,1.0003,1.0019,1.0003,1.0003,1.0019,1.0019,1.0019,1.0019,1.0019,1.0008,1.0008,1.0008,1.0008,0.9698,0.9266,0.8983,0.8531,0.8234,0.7773,0.7623,0.7615,0.7611,0.7449,0.7607,0.7607,0.7603,0.7603,0.7603,0.7578,0.757,0.7578,0.7615,0.7615,0.7607,0.7603,0.7631,0.7623,0.7615,0.7603,0.7599,0.7627,0.7635,0.7652,0.7652,0.7656,0.7652,0.7656,0.7489,0.7481,0.7619,0.7627,0.7644,0.768,0.7358,0.6705,0.6081,0.5626,0.5313,0.4859,0.4567,0.4265,0.3962,0.3647,0.3492,0.3171,0.2846,0.2517,0.185,0.169,0.1355,0.0677,0.017,-0.0341,-0.1025,-0.1531,-0.2046,-0.2573,-0.2732,-0.2714,-0.2716,-0.2722,-0.2732,-0.2747,-0.2748,0.9879,0.9879,0.9446,0.9302,0.9302,0.9302,0.9302,0.9302,0.9302,0.9302,0.9302,0.9307,0.9372,0.947,0.9579,0.9693,0.9813,0.9938,1.0008,1.0014,1.0019,1.0019,1.0019,1.0019,1.0019,1.0019,1.0019,1.0019,1.0019,1.0019,1.0019,1.0019,1.0019,1.0019,1.0019,1.0019,1.0019,1.0019,1.0019,1.0019,1.0041,1.0047,1.0052,1.0079,0.9928,0.9661,0.9233,0.8935,0.8486,0.805,0.7742,0.7742,0.7585,0.7589,0.7754,0.7923,0.7927,0.7774,0.7778,0.7705,0.7676,0.7668,0.7701,0.7738,0.777,0.7774,0.7754,0.7725,0.775,0.7762,0.7778,0.7778,0.7762,0.775,0.7746,0.7742,0.7733,0.789,0.7873,0.7705,0.775,0.7787,0.7791,0.7795,0.7637,0.7147,0.6337,0.6019,0.57,0.5409,0.5119,0.4804,0.4496,0.4172,0.4015,0.3696,0.3202,0.2871,0.2713,0.2388,0.2056,0.1717,0.1034,0.0347,-0.0346,-0.086,-0.1727,-0.2607,-0.2598,-0.2592,-0.2763,-0.2769,-0.2776,-0.278,-0.2781,1.0167,0.9879,0.9446,0.9302,0.9302,0.9302,0.9302,0.9302,0.9302,0.9302,0.9302,0.9302,0.9372,0.9492,0.9612,0.9731,0.9851,0.996,1.0019,1.0019,1.0019,1.0019,1.0019,1.0019,1.0019,1.0019,1.0019,1.0019,1.0019,1.0019,1.0019,1.0019,1.0019,1.0019,1.0019,1.0019,1.0019,1.0019,1.0025,1.0052,1.0128,1.0144,1.0172,1.0242,1.0242,0.9951,0.9512,0.9196,0.8746,0.8302,0.7986,0.7819,0.7653,0.7653,0.7811,0.7969,0.7969,0.7961,0.7815,0.7799,0.7811,0.7795,0.7787,0.7819,0.7803,0.7799,0.7799,0.7807,0.7823,0.7819,0.7795,0.7795,0.7787,0.7782,0.7778,0.7782,0.7778,0.8101,0.8258,0.8088,0.7952,0.8015,0.804,0.7889,0.7729,0.7741,0.7084,0.6413,0.6088,0.597,0.5683,0.5185,0.4863,0.4703,0.4378,0.4068,0.3913,0.3748,0.3257,0.2936,0.2774,0.261,0.2263,0.1744,0.0696,-0.0174,-0.0873,-0.1579,-0.2293,-0.2471,-0.2635,-0.2799,-0.2795,-0.2803,-0.2812,1.0455,1.0023,0.9735,0.9446,0.9302,0.9302,0.9302,0.9302,0.9302,0.9302,0.9302,0.9307,0.9405,0.9536,0.9633,0.9775,0.9894,0.9976,1.0019,1.0019,1.0019,1.0019,1.0019,1.0019,1.0019,1.0019,1.0019,1.0019,1.0019,1.0019,1.0019,1.0019,1.0019,1.0019,1.0019,1.0019,1.0047,1.0074,1.0106,1.015,1.0231,1.0275,1.0302,1.0351,1.0373,1.0233,0.9774,0.947,0.8996,0.8526,0.8212,0.7885,0.7885,0.7885,0.8052,0.8057,0.8057,0.8061,0.7917,0.7934,0.7938,0.7909,0.7889,0.7889,0.7889,0.7909,0.7905,0.7905,0.7885,0.7885,0.7885,0.788,0.7876,0.7876,0.788,0.7885,0.8216,0.8384,0.8707,0.853,0.8367,0.8419,0.8284,0.814,0.7987,0.7833,0.7845,0.7165,0.6652,0.6363,0.6243,0.5752,0.542,0.5264,0.4942,0.4629,0.4469,0.4299,0.3985,0.3671,0.3508,0.3343,0.3164,0.2988,0.1938,0.1059,0.0176,-0.0531,-0.1422,-0.1958,-0.2308,-0.2475,-0.2816,-0.2825,-0.2838,1.0743,1.0455,1.0023,0.9735,0.9302,0.9302,0.9302,0.9302,0.9302,0.9302,0.9302,0.9302,0.9427,0.9622,0.9666,0.9796,0.9965,1.0008,1.0019,1.0019,1.0019,1.0019,1.0019,1.0019,1.0019,1.0019,1.0019,1.0019,1.0019,1.0019,1.0019,1.0025,1.0047,1.0052,1.0057,1.009,1.0123,1.0161,1.0204,1.0269,1.0362,1.0394,1.0416,1.0449,1.0465,1.0335,1.0045,0.9583,0.9132,0.8842,0.8378,0.8215,0.8052,0.8056,0.806,0.8052,0.8044,0.8036,0.8032,0.8036,0.804,0.8011,0.8027,0.8048,0.8036,0.8011,0.8003,0.8007,0.8003,0.8023,0.8036,0.8027,0.8023,0.8023,0.8194,0.8365,0.8536,0.8869,0.9036,0.9193,0.9183,0.9036,0.8698,0.8382,0.8215,0.8076,0.7925,0.7772,0.7252,0.6899,0.6616,0.6328,0.5998,0.5845,0.5523,0.5196,0.5038,0.487,0.456,0.4242,0.4079,0.3908,0.3553,0.338,0.3042,0.2327,0.1248,0.0357,-0.0537,-0.1074,-0.1608,-0.2321,-0.2666,-0.2851,-0.2863,1.109,1.075,1.0167,0.9879,0.9735,0.9446,0.9302,0.9302,0.9302,0.9302,0.9302,0.9302,0.9443,0.9661,0.9671,0.9818,0.9943,1.0019,1.0019,1.0019,1.0019,1.0019,1.0019,1.0019,1.0019,1.0019,1.0019,1.0019,1.0019,1.0019,1.0019,1.0025,1.0101,1.0128,1.0177,1.0231,1.0237,1.0253,1.0302,1.0394,1.0476,1.0509,1.0541,1.0585,1.0601,1.0469,1.0325,1.0009,0.9545,0.9226,0.8738,0.8399,0.806,0.806,0.806,0.806,0.8056,0.8056,0.806,0.8064,0.8072,0.8085,0.8081,0.806,0.806,0.8068,0.8068,0.806,0.806,0.806,0.806,0.806,0.806,0.8232,0.8399,0.8566,0.8905,0.924,0.9574,0.9569,0.9736,0.9421,0.8914,0.8584,0.8424,0.8302,0.817,0.8025,0.7862,0.7503,0.7181,0.6726,0.6579,0.6422,0.6094,0.5769,0.561,0.5457,0.514,0.4811,0.4639,0.447,0.4122,0.3769,0.3411,0.3052,0.2512,0.1436,0.0539,-0.0359,-0.0896,-0.1795,-0.2515,-0.2515,-0.2694,1.1302,1.1103,1.0437,1.0023,0.959,0.9452,0.9302,0.9302,0.9302,0.9302,0.9302,0.9302,0.9443,0.9644,0.9682,0.9791,1.0008,1.0019,1.0019,1.0019,1.0019,1.0019,1.0019,1.0019,1.0019,1.0019,1.0019,1.0019,1.0019,1.0025,1.003,0.9949,1.0182,1.0226,1.0291,1.0373,1.0405,1.04,1.0427,1.0514,1.0574,1.0623,1.0677,1.0715,1.0732,1.0737,1.0737,1.0237,0.9903,0.9407,0.8905,0.8566,0.8227,0.806,0.806,0.8068,0.8109,0.8117,0.813,0.8166,0.8166,0.8166,0.8162,0.8174,0.8138,0.8125,0.8089,0.806,0.806,0.806,0.806,0.806,0.8232,0.8399,0.8566,0.8905,0.924,0.9741,0.9903,1.007,0.9913,0.9603,0.9277,0.895,0.8653,0.8386,0.8268,0.8301,0.8133,0.7945,0.7623,0.7324,0.7167,0.6832,0.6504,0.6174,0.6016,0.5681,0.5525,0.5191,0.5201,0.4843,0.4485,0.4126,0.3768,0.3411,0.2872,0.2513,0.1795,0.0897,0.018,-0.0359,-0.0898,-0.1257,-0.1796,1.165,1.1268,1.0687,1.0023,0.9446,0.9302,0.9302,0.9302,0.9302,0.9302,0.9302,0.9302,0.9443,0.9633,0.9677,0.9807,0.996,1.0019,1.0019,1.0019,1.0019,1.0019,1.0019,1.0019,1.0019,1.0019,1.0019,1.0019,1.0019,1.003,1.0074,1.0035,1.0226,1.0286,1.0405,1.0514,1.0552,1.0552,1.0563,1.0617,1.0688,1.0726,1.0737,1.0732,1.0737,1.0737,1.057,1.0404,0.9903,0.9402,0.9072,0.8566,0.8252,0.8109,0.8105,0.8121,0.8179,0.8199,0.8223,0.8256,0.8289,0.8309,0.833,0.8301,0.8244,0.8199,0.8158,0.8146,0.8158,0.8158,0.8158,0.8158,0.8327,0.8497,0.8835,0.9342,0.9849,1.0192,1.0361,1.0525,1.0361,1.0043,0.9554,0.9403,0.8928,0.8486,0.8354,0.8391,0.8415,0.8403,0.807,0.7933,0.7593,0.7254,0.7105,0.6596,0.6252,0.6091,0.5918,0.5559,0.5559,0.5201,0.4843,0.4485,0.4305,0.3768,0.3409,0.305,0.2692,0.2334,0.1615,0.1077,0.0718,0.018,-0.0718,1.1877,1.1684,1.083,1.0167,0.9735,0.9446,0.9302,0.9302,0.9302,0.9302,0.9302,0.9323,0.9443,0.9644,0.9671,0.9796,0.9976,1.0019,1.0019,1.0019,1.0019,1.0019,1.0019,1.0019,1.0019,1.0019,1.0019,1.0019,1.0025,1.0036,1.0085,1.0046,1.028,1.04,1.0514,1.0628,1.0672,1.0666,1.0677,1.0683,1.0721,1.0737,1.0737,1.0737,1.0737,1.0737,1.0737,1.0576,1.0242,0.9903,0.9574,0.8941,0.8158,0.8228,0.826,0.8277,0.8281,0.8297,0.8313,0.8338,0.8362,0.8354,0.835,0.8338,0.8313,0.8285,0.8268,0.8264,0.826,0.8256,0.8256,0.8252,0.8423,0.8766,0.9279,0.9792,1.0304,1.048,1.0827,1.0827,1.0827,1.0501,1.0007,0.9697,0.9043,0.8735,0.8598,0.8464,0.8522,0.8534,0.8517,0.8191,0.8025,0.7688,0.7352,0.717,0.6812,0.6454,0.6276,0.6097,0.5741,0.5562,0.5201,0.5022,0.4662,0.4305,0.4126,0.3768,0.3409,0.3231,0.2872,0.2333,0.1795,0.1436,0.0539,1.2171,1.1867,1.0947,1.0311,0.9879,0.9446,0.9302,0.9302,0.9302,0.9302,0.9302,0.9318,0.9438,0.9644,0.9671,0.9796,0.9987,1.0019,1.0019,1.0019,1.0019,1.0019,1.0019,1.0019,1.0019,1.0019,1.0019,1.0019,1.0036,1.0101,1.0172,1.0121,1.0238,1.0514,1.0623,1.0704,1.0737,1.0732,1.0737,1.0737,1.0737,1.0737,1.0737,1.0737,1.0737,1.0737,1.0759,1.0775,1.0483,1.0172,0.9526,0.8884,0.8423,0.8293,0.8321,0.8342,0.8362,0.8395,0.8403,0.8424,0.844,0.844,0.8452,0.8473,0.8477,0.8448,0.8375,0.8362,0.8309,0.8301,0.8473,0.8473,0.8813,0.933,0.9673,1.0189,1.0537,1.0886,1.1058,1.1058,1.0902,1.0756,1.0437,1.0304,0.9656,0.8845,0.8703,0.8703,0.8761,0.8607,0.8607,0.8607,0.825,0.8067,0.771,0.7531,0.7349,0.6991,0.6812,0.6454,0.6279,0.592,0.5559,0.538,0.5201,0.5022,0.4664,0.4485,0.4128,0.3769,0.359,0.3411,0.3052,0.2513,0.1795,1.2376,1.2022,1.1031,1.0299,0.9879,0.959,0.9302,0.9302,0.9302,0.9302,0.9302,0.9302,0.9454,0.9601,0.9677,0.984,0.996,1.0008,1.0019,1.0019,1.0019,1.0019,1.0019,1.0019,1.0019,1.0019,1.0019,1.0047,1.0068,1.0144,1.0083,1.0066,1.034,1.0612,1.0699,1.0737,1.0737,1.0737,1.0737,1.0737,1.0737,1.0737,1.0737,1.0737,1.0753,1.0759,1.0797,1.0862,1.0593,1.0299,0.9836,0.9012,0.8701,0.8561,0.8573,0.8598,0.846,0.8485,0.8501,0.8542,0.857,0.8595,0.8607,0.8607,0.8599,0.8562,0.8489,0.8448,0.8395,0.8375,0.8548,0.8722,0.9243,0.9764,1.0284,1.0631,1.0982,1.1156,1.1156,1.1156,1.1004,1.0862,1.0888,1.0755,1.0102,0.9291,0.8956,0.8782,0.8786,0.8607,0.8607,0.8607,0.8429,0.825,0.8067,0.7889,0.771,0.7527,0.7349,0.6991,0.6633,0.6276,0.5918,0.5918,0.5739,0.5383,0.5383,0.5201,0.4845,0.4487,0.4305,0.4126,0.3588,0.3231,0.3052,1.2135,1.1724,1.1074,1.0643,1.0299,1.0023,0.959,0.9302,0.9302,0.9302,0.9302,0.9323,0.9438,0.9666,0.9666,0.9796,0.9992,1.0019,1.0019,1.0019,1.0019,1.0019,1.0019,1.0019,1.0019,1.0019,1.003,1.0079,1.0128,1.0193,1.0313,1.034,1.053,1.0617,1.0715,1.0737,1.0737,1.0737,1.0737,1.0737,1.0742,1.0737,1.0737,1.077,1.0835,1.0862,1.0916,1.1003,1.1052,1.0756,1.0478,0.9651,0.9158,0.8837,0.8862,0.869,0.8728,0.8558,0.8579,0.8591,0.8607,0.8607,0.8607,0.8607,0.8603,0.8603,0.8558,0.8558,0.8526,0.8526,0.8703,0.9056,0.941,1.0112,1.0641,1.0993,1.1351,1.1351,1.1351,1.1351,1.1357,1.1191,1.1196,1.1041,1.0869,1.003,0.9496,0.95,0.9143,0.8786,0.8607,0.8607,0.8607,0.8607,0.8429,0.8429,0.825,0.7889,0.7706,0.7527,0.717,0.6633,0.6454,0.6276,0.592,0.5562,0.5562,0.5739,0.538,0.5022,0.4843,0.4664,0.4305,0.3947,0.3769]}]]